[[{"header":{"parameterUnit":"m.s-1","parameterCategory":1,"la1":31.0,"la2":29.5877,"lo1":-88.7671,"lo2":-86.6584,"dy":0.0162,"dx":0.0185,"nx":115,"ny":88,"refTime":"2026-03-17T12:00:00:Z","depth":0,"parameterNumber":2,"parameterNumberName":"U-component_of_WINDS"},"data":[0.0,0.0,0.0,0.0,0.0,0.0,0.0,0.0,0.0,0.0,0.0,0.0,0.0,0.0,0.0,0.0,0.0,0.0,0.0,0.0,0.0,0.0,0.0,0.0,0.0,0.0,0.0,0.0,0.0,0.0,0.0,0.0,0.0,0.0,0.0,0.0,0.0,0.0,0.0,0.0,0.0,0.0,0.0,0.0,0.0,0.0,0.0,0.0,0.0,0.0,0.0,0.0,0.0,0.0,0.0,0.0,0.0,0.0,0.0,0.0,0.0,0.0,0.0,0.0,0.0,0.0,0.0,0.0,0.0,0.0,0.0,0.0,0.0,0.0,0.0,0.0,0.0,0.0,0.0,0.0,0.0,0.0,0.0,0.0,0.0,0.0,0.0,0.0,0.0,0.0,0.0,0.0,0.0,0.0,0.0,0.0,0.0,0.0,0.0,0.0,0.0,0.0,0.0,0.0,0.0,0.0,0.0,0.0,0.0,0.0,0.0,0.0,0.0,0.0,0.0,0.0,0.0,0.0,0.0,0.0,0.0,0.0,0.0,0.0,0.0,0.0,0.0,0.0,0.0,0.0,0.0,0.0,0.0,0.0,0.0,0.0,0.0,0.0,0.0,0.0,0.0,0.0,0.0,0.0,0.0,0.0,0.0,0.0,0.0,0.0,0.0,0.0,0.0,0.0,0.0,0.0,0.0,0.0,0.0,0.0,0.0,0.0,0.0,0.0,0.0,0.0,0.0,0.0,0.0,0.0,0.0,0.0,0.0,0.0,0.0,0.0,0.0,0.0,0.0,0.0,0.0,0.0,0.0,0.0,0.0,0.0,0.0,0.0,0.0,0.0,0.0,0.0,0.0,0.0,0.0,0.0,0.0,0.0,0.0,0.0,0.0,0.0,0.0,0.0,0.0,0.0,0.0,0.0,0.0,0.0,0.0,0.0,0.0,0.0,0.0,0.0,0.0,0.0,0.0,0.0,0.0,0.0,0.0,0.0,0.0,0.0,0.0,0.0,0.0,0.0,0.0,0.0,0.0,0.0,0.0,0.0,0.0,0.0,0.0,0.0,0.0,0.0,0.0,0.0,0.0,0.0,0.0,0.0,0.0,0.0,0.0,0.0,0.0,0.0,0.0,0.0,0.0,0.0,0.0,0.0,0.0,0.0,0.0,0.0,0.0,0.0,0.0,0.0,0.0,0.0,0.0,0.0,0.0,0.0,0.0,0.0,0.0,0.0,0.0,0.0,0.0,0.0,0.0,0.0,0.0,0.0,0.0,0.0,0.0,0.0,0.0,0.0,0.0,0.0,0.0,0.0,0.0,0.0,0.0,0.0,0.0,0.0,0.0,0.0,0.0,0.0,0.0,0.0,0.0,0.0,0.0,0.0,0.0,0.0,0.0,0.0,0.0,0.0,0.0,0.0,0.0,0.0,0.0,0.0,0.0,0.0,0.0,0.0,0.0,0.0,0.0,0.0,0.0,0.0,0.0,0.0,0.0,0.0,0.0,0.0,0.0,0.0,0.0,0.0,0.0,0.0,0.0,0.0,0.0,0.0,0.0,0.0,0.0,0.0,0.0,0.0,0.0,0.0,0.0,0.0,0.0,0.0,0.0,0.0,0.0,0.0,0.0,0.0,0.0,0.0,0.0,0.0,0.0,0.0,0.0,0.0,0.0,0.0,0.0,0.0,0.0,0.0,0.0,0.0,0.0,0.0,0.0,0.0,0.0,0.0,0.0,0.0,0.0,0.0,0.0,0.0,0.0,0.0,0.0,0.0,0.0,0.0,0.0,0.0,0.0,0.0,0.0,0.0,0.0,0.0,0.0,0.0,0.0,0.0,0.0,0.0,0.0,0.0,0.0,0.0,0.0,0.0,0.0,0.0,0.0,0.0,0.0,0.0,0.0,0.0,0.0,0.0,0.0,0.0,0.0,0.0,0.0,0.0,0.0,0.0,0.0,0.0,0.0,0.0,0.0,0.0,0.0,0.0,0.0,0.0,0.0,0.0,0.0,0.0,0.0,0.0,0.0,0.0,0.0,0.0,0.0,0.0,0.0,0.0,0.0,0.0,0.0,0.0,0.0,0.0,0.0,0.0,0.0,0.0,0.0,0.0,0.0,0.0,0.0,0.0,0.0,0.0,0.0,0.0,0.0,0.0,0.0,0.0,0.0,0.0,0.0,0.0,0.0,0.0,0.0,0.0,0.0,0.0,0.0,0.0,0.0,0.0,0.0,0.0,0.0,0.0,0.0,0.0,0.0,0.0,0.0,0.0,0.0,0.0,0.0,0.0,0.0,0.0,0.0,0.0,0.0,0.0,0.0,0.0,0.0,0.0,0.0,0.0,0.0,0.0,0.0,0.0,0.0,0.0,0.0,0.0,0.0,0.0,0.0,0.0,0.0,0.0,0.0,0.0,0.0,0.0,0.0,0.0,0.0,0.0,0.0,0.0,0.0,0.0,0.0,0.0,0.0,0.0,0.0,0.0,0.0,0.0,0.0,0.0,0.0,0.0,0.0,0.0,0.0,0.0,0.0,0.0,0.0,0.0,0.0,0.0,0.0,0.0,0.0,0.0,0.0,0.0,0.0,0.0,0.0,0.0,0.0,0.0,0.0,0.0,0.0,0.0,0.0,0.0,0.0,0.0,0.0,0.0,0.0,0.0,0.0,0.0,0.0,0.0,0.0,0.0,0.0,0.0,0.0,0.0,0.0,0.0,0.0,0.0,0.0,0.0,0.0,0.0,0.0,0.0,0.0,0.0,0.0,0.0,0.0,0.0,0.0,0.0,0.0,0.0,0.0,0.0,0.0,0.0,0.0,0.0,0.0,0.0,0.0,0.0,0.0,0.0,0.0,0.0,0.0,0.0,0.0,0.0,0.0,0.0,0.0,0.0,0.0,0.0,0.0,0.0,0.0,0.0,0.0,0.0,0.0,0.0,0.0,0.0,0.0,0.0,0.0,0.0,0.0,0.0,0.0,0.0,0.0,0.0,0.0,0.0,0.0,0.0,0.0,0.0,0.0,0.0,0.0,0.0,0.0,0.0,0.0,0.0,0.0,0.0,0.0,0.0,0.0,0.0,0.0,0.0,0.0,0.0,0.0,0.0,0.0,0.0,0.0,0.0,0.0,0.0,0.0,0.0,0.0,0.0,0.0,0.0,0.0,0.0,0.0,0.0,0.0,0.0,0.0,0.0,0.0,0.0,0.0,0.0,0.0,0.0,0.0,0.0,0.0,0.0,0.0,0.0,0.0,0.0,0.0,0.0,0.0,0.0,0.0,0.0,0.0,0.0,0.0,0.0,0.0,0.0,0.0,0.0,0.0,0.0,0.0,0.0,0.0,0.0,0.0,0.0,0.0,0.0,0.0,0.0,0.0,0.0,0.0,0.0,0.0,0.0,0.0,0.0,0.0,0.0,0.0,0.0,0.0,0.0,0.0,0.0,0.0,0.0,0.0,0.0,0.0,0.0,0.0,0.0,0.0,0.0,0.0,0.0,0.0,0.0,0.0,0.0,0.0,0.0,0.0,0.0,0.0,0.0,0.0,0.0,0.0,0.0,0.0,0.0,0.0,0.0,0.0,0.0,0.0,0.0,0.0,0.0,0.0,0.0,0.0,0.0,0.0,0.0,0.0,0.0,0.0,0.0,0.0,0.0,0.0,0.0,0.0,0.0,0.0,0.0,0.0,0.0,0.0,0.0,0.0,0.0,0.0,0.0,0.0,0.0,0.0,0.0,0.0,0.0,0.0,0.0,0.0,0.0,0.0,0.0,0.0,0.0,0.0,0.0,0.0,0.0,0.0,0.0,0.0,0.0,0.0,0.0,0.0,0.0,0.0,0.0,0.0,0.0,0.0,0.0,0.0,0.0,0.0,0.0,0.0,0.0,0.0,0.0,0.0,0.0,0.0,0.0,0.0,0.0,0.0,0.0,0.0,0.0,0.0,0.0,0.0,0.0,0.0,0.0,0.0,0.0,0.0,0.0,0.0,0.0,0.0,0.0,0.0,0.0,0.0,0.0,0.0,0.0,0.0,0.0,0.0,0.0,0.0,0.0,0.0,0.0,0.0,0.0,0.0,0.0,0.0,0.0,0.0,0.0,0.0,0.0,0.0,0.0,0.0,0.0,0.0,0.0,0.0,0.0,0.0,0.0,0.0,0.0,0.0,0.0,0.0,0.0,0.0,0.0,0.0,0.0,0.0,0.0,0.0,0.0,0.0,0.0,0.0,0.0,0.0,0.0,0.0,0.0,0.0,0.0,0.0,0.0,0.0,0.0,0.0,0.0,-2.4458,0.0,0.0,0.0,0.0,0.0,0.0,0.0,0.0,0.0,0.0,0.0,0.0,0.0,0.0,0.0,0.0,0.0,0.0,0.0,0.0,0.0,0.0,0.0,0.0,0.0,0.0,0.0,0.0,0.0,0.0,0.0,0.0,0.0,0.0,0.0,0.0,0.0,0.0,0.0,0.0,0.0,0.0,0.0,0.0,0.0,0.0,0.0,0.0,0.0,0.0,0.0,0.0,0.0,0.0,0.0,0.0,0.0,0.0,0.0,0.0,0.0,0.0,0.0,0.0,0.0,0.0,0.0,0.0,0.0,0.0,0.0,0.0,0.0,0.0,0.0,0.0,0.0,0.0,0.0,0.0,0.0,0.0,0.0,0.0,0.0,0.0,0.0,0.0,0.0,0.0,0.0,0.0,0.0,0.0,0.0,0.0,0.0,0.0,0.0,0.0,0.0,0.0,0.0,0.0,0.0,0.0,0.0,0.0,0.0,0.0,-2.5445,-2.5394,-2.4831,-2.4305,-2.3794,0.0,0.0,0.0,0.0,0.0,0.0,0.0,0.0,0.0,0.0,0.0,0.0,0.0,0.0,0.0,0.0,0.0,0.0,0.0,0.0,0.0,0.0,0.0,0.0,0.0,0.0,0.0,0.0,0.0,0.0,0.0,0.0,0.0,0.0,0.0,0.0,0.0,0.0,0.0,0.0,0.0,0.0,0.0,0.0,0.0,0.0,0.0,0.0,0.0,0.0,0.0,0.0,0.0,0.0,0.0,0.0,0.0,0.0,0.0,0.0,0.0,0.0,0.0,0.0,0.0,0.0,0.0,0.0,0.0,0.0,0.0,0.0,0.0,0.0,0.0,0.0,0.0,0.0,0.0,0.0,0.0,0.0,0.0,0.0,0.0,0.0,0.0,0.0,0.0,0.0,0.0,0.0,0.0,0.0,0.0,0.0,0.0,0.0,0.0,0.0,0.0,0.0,0.0,0.0,0.0,0.0,0.0,0.0,0.0,0.0,0.0,0.0,-2.4609,-2.4157,-2.3518,0.0,0.0,0.0,0.0,0.0,0.0,0.0,0.0,0.0,0.0,0.0,0.0,0.0,0.0,0.0,0.0,0.0,0.0,0.0,0.0,0.0,0.0,0.0,0.0,0.0,0.0,0.0,0.0,0.0,0.0,0.0,0.0,0.0,0.0,0.0,0.0,0.0,0.0,0.0,0.0,0.0,0.0,0.0,0.0,0.0,0.0,0.0,0.0,0.0,0.0,0.0,0.0,0.0,0.0,0.0,0.0,0.0,0.0,0.0,0.0,0.0,0.0,0.0,0.0,0.0,0.0,0.0,0.0,0.0,0.0,0.0,0.0,0.0,0.0,0.0,0.0,0.0,0.0,0.0,0.0,0.0,0.0,0.0,0.0,0.0,0.0,0.0,0.0,0.0,0.0,0.0,0.0,0.0,0.0,0.0,0.0,0.0,0.0,0.0,0.0,0.0,0.0,0.0,0.0,0.0,0.0,0.0,0.0,0.0,0.0,-2.4243,-2.6303,-2.5714,0.0,-2.4384,0.0,0.0,0.0,0.0,0.0,0.0,0.0,0.0,0.0,0.0,0.0,0.0,0.0,0.0,0.0,0.0,0.0,0.0,0.0,0.0,0.0,0.0,0.0,0.0,0.0,0.0,0.0,0.0,0.0,0.0,0.0,0.0,0.0,0.0,0.0,0.0,0.0,0.0,0.0,0.0,0.0,0.0,0.0,0.0,0.0,0.0,0.0,0.0,0.0,0.0,0.0,0.0,0.0,0.0,0.0,0.0,0.0,0.0,0.0,0.0,0.0,0.0,0.0,0.0,0.0,0.0,0.0,0.0,0.0,0.0,0.0,0.0,0.0,0.0,0.0,0.0,0.0,0.0,0.0,0.0,0.0,0.0,0.0,0.0,0.0,0.0,0.0,0.0,0.0,0.0,0.0,0.0,0.0,0.0,0.0,0.0,0.0,0.0,0.0,0.0,0.0,0.0,0.0,0.0,0.0,0.0,0.0,0.0,0.0,0.0,0.0,-2.5046,-2.4763,-2.4246,0.0,0.0,0.0,0.0,0.0,0.0,0.0,0.0,0.0,0.0,0.0,0.0,0.0,0.0,0.0,0.0,0.0,0.0,0.0,0.0,0.0,0.0,0.0,0.0,0.0,0.0,0.0,0.0,0.0,0.0,0.0,0.0,0.0,0.0,0.0,0.0,0.0,0.0,0.0,0.0,0.0,0.0,0.0,0.0,0.0,0.0,0.0,0.0,0.0,0.0,0.0,0.0,0.0,0.0,0.0,0.0,0.0,0.0,0.0,0.0,0.0,0.0,0.0,0.0,0.0,0.0,0.0,0.0,0.0,0.0,0.0,0.0,0.0,0.0,0.0,0.0,0.0,0.0,0.0,0.0,0.0,0.0,0.0,0.0,0.0,0.0,0.0,0.0,0.0,0.0,0.0,0.0,0.0,0.0,0.0,0.0,0.0,0.0,0.0,0.0,0.0,0.0,0.0,0.0,0.0,0.0,0.0,0.0,0.0,0.0,-2.3984,0.0,-2.4332,-2.4315,-2.3884,-2.2986,0.0,0.0,0.0,0.0,0.0,0.0,0.0,0.0,0.0,0.0,0.0,0.0,0.0,0.0,0.0,0.0,0.0,0.0,0.0,0.0,0.0,0.0,0.0,0.0,0.0,0.0,0.0,0.0,0.0,0.0,0.0,0.0,0.0,0.0,0.0,0.0,0.0,0.0,0.0,0.0,0.0,0.0,0.0,0.0,0.0,0.0,0.0,0.0,0.0,0.0,0.0,0.0,0.0,0.0,0.0,0.0,0.0,0.0,0.0,0.0,0.0,0.0,0.0,0.0,0.0,0.0,0.0,0.0,0.0,0.0,0.0,0.0,0.0,0.0,0.0,0.0,0.0,0.0,0.0,0.0,0.0,0.0,0.0,0.0,0.0,0.0,0.0,0.0,0.0,0.0,0.0,0.0,0.0,0.0,0.0,0.0,0.0,0.0,0.0,0.0,0.0,0.0,0.0,0.0,0.0,0.0,0.0,0.0,0.0,-2.4033,-2.3701,-2.5096,-2.5146,-2.4497,0.0,0.0,0.0,0.0,0.0,0.0,0.0,0.0,0.0,0.0,0.0,0.0,0.0,0.0,0.0,0.0,0.0,0.0,0.0,0.0,0.0,0.0,0.0,0.0,0.0,0.0,0.0,0.0,0.0,0.0,0.0,0.0,0.0,0.0,0.0,0.0,0.0,0.0,0.0,0.0,0.0,0.0,0.0,0.0,0.0,0.0,0.0,0.0,0.0,0.0,0.0,0.0,0.0,0.0,0.0,0.0,0.0,0.0,0.0,0.0,0.0,0.0,0.0,0.0,0.0,0.0,0.0,0.0,0.0,0.0,0.0,0.0,0.0,0.0,0.0,0.0,0.0,0.0,0.0,0.0,0.0,0.0,0.0,0.0,0.0,0.0,0.0,0.0,0.0,0.0,0.0,0.0,0.0,0.0,0.0,0.0,0.0,0.0,0.0,0.0,0.0,0.0,0.0,0.0,0.0,0.0,0.0,0.0,0.0,-2.3321,-2.3503,-2.4332,-2.5708,-2.4481,-2.3501,0.0,0.0,0.0,0.0,0.0,0.0,0.0,0.0,0.0,0.0,0.0,0.0,0.0,0.0,0.0,0.0,0.0,0.0,0.0,0.0,0.0,0.0,0.0,0.0,0.0,0.0,0.0,0.0,0.0,0.0,0.0,0.0,0.0,0.0,0.0,0.0,0.0,0.0,0.0,0.0,0.0,0.0,0.0,0.0,0.0,0.0,0.0,0.0,0.0,0.0,0.0,0.0,0.0,0.0,0.0,0.0,0.0,0.0,0.0,0.0,0.0,0.0,0.0,0.0,0.0,0.0,0.0,0.0,0.0,0.0,0.0,0.0,0.0,0.0,0.0,0.0,0.0,0.0,0.0,0.0,0.0,0.0,0.0,0.0,0.0,0.0,0.0,0.0,0.0,0.0,0.0,0.0,0.0,0.0,0.0,0.0,0.0,0.0,0.0,0.0,0.0,0.0,0.0,0.0,0.0,0.0,0.0,0.0,0.0,-2.2526,0.0,-2.4961,0.0,-2.4033,-2.2808,0.0,0.0,0.0,0.0,0.0,0.0,0.0,0.0,0.0,0.0,0.0,0.0,0.0,0.0,0.0,0.0,0.0,0.0,0.0,0.0,0.0,0.0,0.0,0.0,0.0,0.0,0.0,0.0,0.0,0.0,0.0,0.0,0.0,0.0,0.0,0.0,0.0,0.0,0.0,0.0,0.0,0.0,0.0,0.0,0.0,0.0,0.0,0.0,0.0,0.0,0.0,0.0,0.0,0.0,0.0,0.0,0.0,0.0,0.0,0.0,0.0,0.0,0.0,0.0,0.0,0.0,0.0,0.0,0.0,0.0,0.0,0.0,0.0,0.0,0.0,0.0,0.0,0.0,0.0,0.0,0.0,0.0,0.0,0.0,0.0,0.0,0.0,0.0,0.0,0.0,0.0,0.0,0.0,0.0,0.0,0.0,0.0,0.0,0.0,0.0,0.0,0.0,0.0,0.0,0.0,0.0,0.0,0.0,-2.2542,-2.3918,-2.5325,-2.5425,-2.41,-2.3918,-2.2592,0.0,0.0,0.0,0.0,0.0,0.0,0.0,0.0,0.0,0.0,0.0,0.0,0.0,0.0,0.0,0.0,0.0,0.0,0.0,0.0,0.0,0.0,0.0,0.0,0.0,0.0,0.0,0.0,0.0,0.0,0.0,0.0,0.0,0.0,0.0,0.0,0.0,0.0,0.0,0.0,0.0,0.0,0.0,0.0,0.0,0.0,0.0,0.0,0.0,0.0,0.0,0.0,0.0,0.0,0.0,0.0,0.0,0.0,0.0,0.0,0.0,0.0,0.0,0.0,0.0,0.0,0.0,0.0,0.0,0.0,0.0,0.0,0.0,0.0,0.0,0.0,0.0,0.0,0.0,0.0,0.0,0.0,0.0,0.0,0.0,0.0,0.0,0.0,0.0,0.0,0.0,0.0,0.0,0.0,0.0,0.0,0.0,0.0,0.0,0.0,0.0,0.0,0.0,0.0,0.0,0.0,0.0,0.0,0.0,-2.2543,-2.3918,-2.4713,-2.4679,-2.2775,-2.2013,0.0,0.0,0.0,0.0,0.0,0.0,0.0,0.0,0.0,0.0,0.0,0.0,0.0,0.0,0.0,0.0,0.0,0.0,0.0,0.0,0.0,0.0,0.0,0.0,0.0,0.0,0.0,0.0,0.0,0.0,0.0,0.0,0.0,0.0,0.0,0.0,0.0,0.0,0.0,0.0,0.0,0.0,0.0,0.0,0.0,0.0,0.0,0.0,0.0,0.0,0.0,0.0,0.0,0.0,0.0,0.0,0.0,0.0,0.0,0.0,0.0,0.0,0.0,0.0,0.0,0.0,0.0,0.0,0.0,0.0,0.0,0.0,0.0,0.0,0.0,0.0,0.0,0.0,0.0,0.0,0.0,0.0,0.0,0.0,0.0,0.0,0.0,0.0,0.0,0.0,0.0,0.0,0.0,0.0,0.0,0.0,0.0,0.0,0.0,0.0,0.0,0.0,0.0,0.0,0.0,0.0,0.0,0.0,0.0,-2.3189,-2.4729,-2.559,-2.5524,-2.3719,-2.2725,-2.2742,0.0,0.0,0.0,0.0,0.0,0.0,0.0,0.0,0.0,0.0,0.0,0.0,0.0,0.0,0.0,0.0,0.0,0.0,0.0,0.0,0.0,0.0,0.0,0.0,0.0,0.0,0.0,0.0,0.0,0.0,0.0,0.0,0.0,0.0,0.0,0.0,0.0,0.0,0.0,0.0,0.0,0.0,0.0,0.0,0.0,0.0,0.0,0.0,0.0,0.0,0.0,0.0,0.0,0.0,0.0,0.0,0.0,0.0,0.0,0.0,0.0,0.0,0.0,0.0,0.0,0.0,0.0,0.0,0.0,0.0,0.0,0.0,0.0,0.0,0.0,0.0,0.0,0.0,0.0,0.0,0.0,0.0,0.0,0.0,0.0,0.0,0.0,0.0,0.0,0.0,0.0,0.0,0.0,0.0,0.0,0.0,0.0,0.0,0.0,0.0,0.0,0.0,0.0,0.0,0.0,0.0,0.0,0.0,-2.5474,-2.758,-2.7978,-2.645,-2.6219,-2.4564,0.0,0.0,0.0,0.0,0.0,0.0,0.0,0.0,0.0,0.0,0.0,0.0,0.0,0.0,0.0,0.0,0.0,0.0,0.0,0.0,0.0,0.0,0.0,0.0,0.0,0.0,0.0,0.0,0.0,0.0,0.0,0.0,0.0,0.0,0.0,0.0,0.0,0.0,0.0,0.0,0.0,0.0,0.0,0.0,0.0,0.0,0.0,0.0,0.0,0.0,0.0,0.0,0.0,0.0,0.0,0.0,0.0,0.0,0.0,0.0,0.0,0.0,0.0,0.0,0.0,0.0,0.0,0.0,0.0,0.0,0.0,0.0,0.0,0.0,0.0,0.0,0.0,0.0,0.0,0.0,0.0,0.0,0.0,0.0,0.0,0.0,0.0,0.0,0.0,0.0,0.0,0.0,0.0,0.0,0.0,0.0,0.0,0.0,0.0,0.0,0.0,0.0,0.0,0.0,0.0,0.0,0.0,0.0,0.0,-2.9893,-3.1537,-3.1156,-2.8635,-2.703,-2.5755,0.0,0.0,0.0,0.0,0.0,0.0,0.0,0.0,0.0,0.0,0.0,0.0,0.0,0.0,0.0,0.0,0.0,0.0,0.0,0.0,0.0,0.0,0.0,0.0,0.0,0.0,0.0,0.0,0.0,0.0,0.0,0.0,0.0,0.0,0.0,0.0,0.0,0.0,0.0,0.0,0.0,0.0,0.0,0.0,0.0,0.0,0.0,0.0,0.0,0.0,0.0,0.0,0.0,0.0,0.0,0.0,0.0,0.0,0.0,0.0,0.0,0.0,0.0,0.0,0.0,0.0,0.0,0.0,0.0,0.0,0.0,0.0,0.0,0.0,0.0,0.0,0.0,0.0,0.0,0.0,0.0,0.0,0.0,0.0,0.0,0.0,0.0,0.0,0.0,0.0,0.0,0.0,0.0,0.0,0.0,0.0,0.0,0.0,0.0,0.0,0.0,0.0,0.0,0.0,0.0,0.0,0.0,0.0,-3.0046,-3.1598,-3.3955,-3.4041,-3.1594,-2.9852,-2.802,0.0,0.0,0.0,0.0,0.0,0.0,0.0,0.0,0.0,0.0,0.0,0.0,0.0,0.0,0.0,0.0,0.0,0.0,0.0,0.0,0.0,0.0,0.0,0.0,0.0,0.0,0.0,0.0,0.0,0.0,0.0,0.0,0.0,0.0,0.0,0.0,0.0,0.0,0.0,0.0,0.0,0.0,0.0,0.0,0.0,0.0,0.0,0.0,0.0,0.0,0.0,0.0,0.0,0.0,0.0,0.0,0.0,0.0,0.0,0.0,0.0,0.0,0.0,0.0,0.0,0.0,0.0,0.0,0.0,0.0,0.0,0.0,0.0,0.0,0.0,0.0,0.0,0.0,0.0,0.0,0.0,0.0,0.0,0.0,0.0,0.0,0.0,0.0,0.0,0.0,0.0,0.0,0.0,0.0,0.0,0.0,0.0,0.0,0.0,0.0,0.0,0.0,0.0,0.0,0.0,0.0,0.0,0.0,-3.0948,-3.1858,-3.5323,-3.6347,-3.4718,-3.3403,-3.0625,0.0,0.0,0.0,0.0,0.0,0.0,0.0,0.0,0.0,0.0,0.0,0.0,0.0,0.0,0.0,0.0,0.0,0.0,0.0,0.0,0.0,0.0,0.0,0.0,0.0,0.0,0.0,0.0,0.0,0.0,0.0,0.0,0.0,0.0,0.0,0.0,0.0,0.0,0.0,0.0,0.0,0.0,0.0,0.0,0.0,0.0,0.0,0.0,0.0,0.0,0.0,0.0,0.0,0.0,0.0,0.0,0.0,0.0,0.0,0.0,0.0,0.0,0.0,0.0,0.0,0.0,0.0,0.0,0.0,0.0,0.0,0.0,0.0,0.0,0.0,0.0,0.0,0.0,0.0,0.0,0.0,0.0,0.0,0.0,0.0,0.0,0.0,0.0,0.0,0.0,0.0,0.0,0.0,0.0,0.0,0.0,0.0,0.0,0.0,0.0,0.0,0.0,0.0,0.0,0.0,0.0,0.0,0.0,-3.1462,-3.3478,-3.6165,-3.7016,-3.5857,-3.382,-3.1018,0.0,0.0,0.0,0.0,0.0,0.0,0.0,0.0,0.0,0.0,0.0,0.0,0.0,0.0,0.0,0.0,0.0,0.0,0.0,0.0,0.0,0.0,0.0,0.0,0.0,0.0,0.0,0.0,0.0,0.0,0.0,0.0,0.0,0.0,0.0,0.0,0.0,0.0,0.0,0.0,0.0,0.0,0.0,0.0,0.0,0.0,0.0,0.0,-1.6448,0.0,0.0,0.0,0.0,0.0,0.0,0.0,0.0,0.0,0.0,0.0,0.0,0.0,0.0,0.0,0.0,0.0,0.0,0.0,0.0,0.0,0.0,0.0,0.0,0.0,0.0,0.0,0.0,0.0,0.0,0.0,0.0,0.0,0.0,0.0,0.0,0.0,0.0,0.0,0.0,0.0,0.0,0.0,0.0,0.0,0.0,0.0,0.0,0.0,0.0,0.0,0.0,0.0,0.0,0.0,0.0,0.0,0.0,0.0,-3.2597,-3.4503,-3.6826,-3.74,-3.6045,-3.4584,-3.215,0.0,0.0,0.0,0.0,0.0,0.0,0.0,0.0,0.0,0.0,0.0,0.0,0.0,0.0,0.0,0.0,0.0,0.0,0.0,0.0,0.0,0.0,0.0,0.0,0.0,0.0,0.0,0.0,0.0,0.0,0.0,0.0,0.0,0.0,0.0,0.0,0.0,0.0,0.0,0.0,0.0,0.0,0.0,0.0,0.0,0.0,0.0,0.0,0.0,0.0,0.0,0.0,0.0,0.0,0.0,0.0,0.0,0.0,0.0,0.0,0.0,0.0,0.0,0.0,0.0,0.0,0.0,0.0,0.0,0.0,0.0,0.0,0.0,0.0,0.0,0.0,0.0,0.0,0.0,0.0,0.0,0.0,0.0,0.0,0.0,0.0,0.0,0.0,0.0,0.0,0.0,0.0,0.0,0.0,0.0,0.0,0.0,0.0,0.0,0.0,0.0,0.0,0.0,0.0,0.0,0.0,0.0,-3.0663,-3.3333,-3.5049,-3.705,-3.7347,-3.5828,-3.53,-3.3281,-2.9699,0.0,0.0,0.0,0.0,0.0,0.0,0.0,0.0,0.0,0.0,0.0,0.0,0.0,0.0,0.0,0.0,0.0,0.0,0.0,0.0,0.0,0.0,0.0,0.0,0.0,0.0,0.0,0.0,0.0,0.0,0.0,0.0,0.0,0.0,0.0,0.0,0.0,0.0,-1.6967,-1.8755,0.0,0.0,0.0,0.0,0.0,0.0,0.0,0.0,-1.7264,0.0,0.0,0.0,0.0,0.0,0.0,0.0,0.0,0.0,0.0,0.0,0.0,0.0,0.0,0.0,0.0,0.0,0.0,0.0,0.0,0.0,0.0,0.0,0.0,0.0,0.0,0.0,0.0,0.0,0.0,0.0,0.0,0.0,0.0,0.0,0.0,0.0,0.0,0.0,0.0,0.0,0.0,0.0,0.0,0.0,0.0,0.0,0.0,0.0,0.0,0.0,0.0,0.0,0.0,0.0,0.0,-2.9202,-2.9862,-3.1711,-3.4833,-3.6105,-3.6395,-3.5753,-3.5036,-3.31,-2.981,0.0,0.0,0.0,0.0,0.0,0.0,0.0,0.0,0.0,0.0,0.0,0.0,0.0,0.0,0.0,0.0,0.0,0.0,0.0,0.0,0.0,0.0,0.0,0.0,0.0,0.0,0.0,0.0,0.0,0.0,0.0,0.0,0.0,0.0,0.0,0.0,0.0,0.0,0.0,-2.1932,-2.2793,0.0,0.0,0.0,0.0,0.0,0.0,0.0,0.0,-1.7899,0.0,0.0,0.0,0.0,0.0,0.0,0.0,0.0,0.0,0.0,0.0,0.0,0.0,0.0,0.0,0.0,0.0,0.0,0.0,0.0,0.0,0.0,0.0,0.0,0.0,0.0,0.0,0.0,0.0,0.0,0.0,0.0,0.0,0.0,0.0,0.0,0.0,0.0,0.0,0.0,0.0,0.0,0.0,0.0,0.0,0.0,0.0,0.0,0.0,0.0,0.0,0.0,0.0,0.0,0.0,-2.8649,-3.0452,-3.2466,-3.482,-3.572,-3.5691,-3.4788,-3.3775,-3.1839,0.0,0.0,0.0,0.0,0.0,0.0,0.0,0.0,0.0,0.0,0.0,0.0,0.0,0.0,0.0,0.0,0.0,0.0,0.0,0.0,0.0,0.0,0.0,0.0,0.0,0.0,0.0,0.0,0.0,0.0,0.0,0.0,0.0,0.0,0.0,0.0,0.0,0.0,0.0,0.0,-2.2552,-2.3589,-2.2701,0.0,0.0,0.0,0.0,0.0,0.0,-1.802,-1.7733,0.0,0.0,0.0,0.0,0.0,0.0,0.0,0.0,0.0,0.0,0.0,0.0,0.0,0.0,0.0,0.0,0.0,0.0,0.0,0.0,0.0,0.0,0.0,0.0,0.0,0.0,0.0,0.0,0.0,0.0,0.0,0.0,0.0,0.0,0.0,0.0,0.0,0.0,0.0,0.0,0.0,0.0,0.0,0.0,0.0,0.0,0.0,0.0,0.0,0.0,0.0,0.0,0.0,0.0,0.0,-2.7931,-3.09,-3.3201,-3.4751,-3.5337,-3.5068,-3.397,-3.273,-3.0779,0.0,0.0,0.0,0.0,0.0,0.0,0.0,0.0,0.0,0.0,0.0,0.0,0.0,0.0,0.0,0.0,0.0,0.0,0.0,0.0,0.0,0.0,0.0,0.0,0.0,0.0,0.0,0.0,0.0,0.0,0.0,0.0,0.0,0.0,0.0,0.0,0.0,0.0,0.0,0.0,0.0,-2.3909,-2.2799,-2.2247,0.0,0.0,0.0,0.0,-1.8871,-1.9014,0.0,0.0,0.0,0.0,0.0,0.0,0.0,0.0,0.0,0.0,0.0,0.0,0.0,0.0,0.0,0.0,0.0,0.0,0.0,0.0,0.0,0.0,0.0,0.0,0.0,0.0,0.0,0.0,0.0,0.0,0.0,0.0,0.0,0.0,0.0,0.0,0.0,0.0,0.0,0.0,0.0,0.0,0.0,0.0,0.0,0.0,0.0,0.0,0.0,0.0,0.0,0.0,0.0,0.0,0.0,0.0,-2.7968,-2.9927,-3.2046,-3.432,-3.4524,-3.4449,-3.4163,-3.2883,-3.1006,0.0,0.0,0.0,0.0,0.0,0.0,0.0,0.0,0.0,0.0,0.0,0.0,0.0,0.0,0.0,0.0,0.0,0.0,0.0,0.0,0.0,0.0,0.0,0.0,0.0,0.0,0.0,0.0,0.0,0.0,0.0,0.0,0.0,0.0,0.0,0.0,0.0,0.0,0.0,0.0,0.0,-2.4778,-2.2121,-2.2591,-2.2597,0.0,0.0,0.0,-2.1799,-2.2647,0.0,0.0,0.0,0.0,0.0,0.0,0.0,0.0,0.0,0.0,0.0,0.0,0.0,0.0,0.0,0.0,0.0,0.0,0.0,0.0,0.0,0.0,0.0,0.0,0.0,0.0,0.0,0.0,0.0,0.0,0.0,0.0,0.0,0.0,0.0,0.0,0.0,0.0,0.0,0.0,0.0,0.0,0.0,0.0,0.0,0.0,0.0,0.0,0.0,0.0,0.0,0.0,0.0,0.0,0.0,-2.4849,-2.8366,-3.0599,-3.2556,-3.4327,-3.438,-3.402,-3.3255,-3.1613,-2.9546,0.0,0.0,0.0,0.0,0.0,0.0,0.0,0.0,0.0,0.0,0.0,0.0,0.0,0.0,0.0,0.0,0.0,0.0,0.0,0.0,0.0,0.0,0.0,0.0,0.0,0.0,0.0,0.0,0.0,0.0,0.0,0.0,0.0,0.0,0.0,0.0,0.0,0.0,0.0,0.0,0.0,0.0,-2.4133,-2.4502,0.0,0.0,0.0,-2.2757,-2.238,0.0,0.0,0.0,0.0,0.0,0.0,0.0,0.0,0.0,0.0,0.0,0.0,0.0,0.0,0.0,0.0,0.0,0.0,0.0,0.0,0.0,0.0,0.0,0.0,0.0,0.0,0.0,0.0,0.0,0.0,0.0,0.0,0.0,0.0,0.0,0.0,0.0,0.0,0.0,0.0,0.0,0.0,0.0,0.0,0.0,0.0,0.0,0.0,0.0,0.0,0.0,0.0,0.0,0.0,0.0,0.0,0.0,-2.868,-3.1221,-3.309,-3.4337,-3.438,-3.3786,-3.251,-3.0755,0.0,0.0,0.0,0.0,0.0,0.0,0.0,0.0,0.0,0.0,0.0,0.0,0.0,0.0,0.0,0.0,0.0,0.0,0.0,0.0,0.0,0.0,0.0,0.0,0.0,0.0,0.0,-1.1972,0.0,0.0,0.0,0.0,0.0,0.0,0.0,0.0,0.0,0.0,0.0,0.0,0.0,0.0,-2.5217,-2.5116,-2.5878,-2.6155,0.0,0.0,-2.3954,-2.3251,-2.3697,-2.3108,0.0,0.0,0.0,0.0,0.0,0.0,0.0,0.0,0.0,0.0,0.0,0.0,0.0,0.0,0.0,0.0,0.0,0.0,0.0,0.0,0.0,0.0,0.0,0.0,0.0,0.0,0.0,0.0,0.0,0.0,0.0,0.0,0.0,0.0,0.0,0.0,0.0,0.0,0.0,0.0,0.0,0.0,0.0,0.0,0.0,0.0,0.0,0.0,0.0,0.0,0.0,0.0,0.0,0.0,0.0,-2.8636,-3.1221,-3.3137,-3.4356,-3.438,-3.3804,-3.2524,-3.1221,-2.9058,0.0,0.0,0.0,0.0,0.0,0.0,0.0,0.0,0.0,0.0,0.0,0.0,0.0,0.0,0.0,0.0,0.0,0.0,0.0,0.0,0.0,0.0,0.0,0.0,0.0,0.0,0.0,0.0,0.0,0.0,0.0,0.0,0.0,0.0,0.0,0.0,0.0,0.0,0.0,0.0,0.0,-2.4797,-2.3463,-2.5796,-2.7377,0.0,0.0,-2.4908,-2.531,-2.6264,-2.5711,-2.1933,0.0,0.0,0.0,0.0,0.0,0.0,0.0,0.0,0.0,0.0,0.0,0.0,0.0,0.0,0.0,0.0,0.0,0.0,0.0,0.0,0.0,0.0,0.0,0.0,0.0,0.0,0.0,0.0,0.0,0.0,0.0,0.0,0.0,0.0,0.0,0.0,0.0,0.0,0.0,0.0,0.0,0.0,0.0,0.0,0.0,0.0,0.0,0.0,0.0,0.0,0.0,0.0,0.0,-2.481,-2.8637,-3.1221,-3.3104,-3.4308,-3.438,-3.3771,-3.251,-3.125,-2.9087,0.0,0.0,0.0,0.0,0.0,0.0,0.0,0.0,0.0,0.0,0.0,0.0,0.0,0.0,0.0,0.0,0.0,0.0,0.0,0.0,0.0,0.0,0.0,0.0,0.0,0.0,0.0,0.0,-1.5255,-1.5429,-1.4645,0.0,0.0,0.0,0.0,0.0,0.0,0.0,0.0,0.0,0.0,-2.4748,-2.5145,-2.6564,0.0,0.0,-2.6603,-2.6289,-2.6185,-2.6189,-2.5285,-2.2447,-2.1129,0.0,0.0,0.0,0.0,0.0,0.0,0.0,0.0,0.0,0.0,0.0,0.0,0.0,0.0,0.0,0.0,0.0,0.0,0.0,0.0,0.0,0.0,0.0,0.0,0.0,0.0,0.0,0.0,0.0,0.0,0.0,0.0,0.0,0.0,0.0,0.0,0.0,0.0,0.0,0.0,0.0,0.0,0.0,0.0,0.0,0.0,0.0,0.0,0.0,0.0,0.0,0.0,-2.481,-2.868,-3.1206,-3.3104,-3.4351,-3.438,-3.3771,-3.2524,-3.1438,-2.929,0.0,0.0,0.0,0.0,0.0,0.0,0.0,0.0,0.0,0.0,0.0,0.0,0.0,0.0,0.0,0.0,0.0,0.0,0.0,0.0,0.0,0.0,0.0,0.0,0.0,0.0,0.0,0.0,-1.6487,-1.6313,-1.4877,0.0,0.0,0.0,0.0,0.0,0.0,0.0,0.0,0.0,0.0,-2.4957,-2.6299,-2.7203,-2.7717,-2.7551,-2.7243,-2.6904,-2.6549,-2.6147,-2.5109,-2.2869,0.0,0.0,0.0,0.0,0.0,0.0,0.0,0.0,0.0,0.0,0.0,0.0,0.0,0.0,0.0,0.0,0.0,0.0,0.0,0.0,0.0,0.0,0.0,0.0,0.0,0.0,0.0,0.0,0.0,0.0,-2.2844,0.0,0.0,0.0,0.0,0.0,0.0,0.0,0.0,0.0,0.0,0.0,0.0,0.0,0.0,0.0,0.0,0.0,0.0,0.0,0.0,0.0,0.0,0.0,-2.868,-3.1221,-3.3104,-3.437,-3.438,-3.3771,-3.2553,-3.1845,-2.9697,-2.589,0.0,0.0,0.0,0.0,0.0,0.0,0.0,0.0,0.0,0.0,0.0,0.0,0.0,0.0,0.0,0.0,0.0,0.0,0.0,0.0,0.0,0.0,0.0,0.0,0.0,0.0,-1.7038,-1.6605,-1.5516,0.0,0.0,0.0,0.0,0.0,0.0,0.0,0.0,0.0,0.0,-2.3533,-2.5418,-2.6409,-2.7571,-2.8287,-2.8105,-2.7228,-2.6537,-2.6512,-2.6461,-2.572,0.0,0.0,0.0,0.0,0.0,0.0,0.0,0.0,0.0,0.0,0.0,0.0,0.0,0.0,0.0,0.0,0.0,0.0,0.0,0.0,0.0,0.0,0.0,0.0,0.0,0.0,0.0,-2.6271,-2.5517,0.0,0.0,0.0,0.0,0.0,0.0,0.0,0.0,0.0,0.0,0.0,-2.7737,-2.8565,0.0,0.0,0.0,0.0,0.0,0.0,0.0,0.0,0.0,0.0,0.0,0.0,-2.5255,-2.8651,-3.1206,-3.3104,-3.437,-3.438,-3.4008,-3.3166,-3.2077,-2.9319,-2.4675,0.0,0.0,0.0,0.0,0.0,0.0,0.0,0.0,0.0,0.0,0.0,0.0,0.0,0.0,0.0,0.0,0.0,0.0,0.0,0.0,0.0,0.0,0.0,0.0,0.0,-1.6917,0.0,0.0,0.0,0.0,0.0,0.0,0.0,0.0,0.0,0.0,0.0,-2.0042,-2.2813,-2.4498,-2.5968,-2.7354,-2.791,-2.8299,0.0,0.0,0.0,0.0,0.0,0.0,0.0,0.0,0.0,0.0,0.0,0.0,0.0,0.0,-2.3929,-1.9547,-1.8455,-1.8204,-1.8204,0.0,0.0,0.0,0.0,0.0,0.0,0.0,0.0,0.0,0.0,0.0,0.0,0.0,0.0,-2.8681,0.0,-2.7868,0.0,0.0,0.0,0.0,0.0,0.0,0.0,0.0,-2.9058,-3.0349,-3.0988,-3.1613,-3.1569,0.0,-2.9914,-2.7345,0.0,0.0,0.0,0.0,0.0,0.0,0.0,0.0,-2.601,-2.8971,-3.154,-3.3354,-3.4356,-3.438,-3.4109,-3.3503,-3.1772,-2.9087,-2.5342,-2.3368,-2.1656,0.0,0.0,0.0,0.0,0.0,0.0,0.0,0.0,0.0,0.0,0.0,0.0,0.0,0.0,0.0,0.0,0.0,0.0,0.0,0.0,0.0,0.0,0.0,-1.7818,0.0,0.0,0.0,0.0,0.0,0.0,0.0,0.0,0.0,-1.8731,-1.9914,-2.1716,-2.4511,-2.5294,-2.6214,-2.7883,0.0,0.0,0.0,0.0,0.0,0.0,0.0,-2.595,-2.5933,-2.5322,-2.4971,-2.5335,-2.6302,-2.6876,-2.6298,0.0,0.0,-2.241,-2.1167,-2.0828,-2.1029,-2.1644,-2.2074,-2.1857,-2.2849,-2.3653,0.0,0.0,0.0,0.0,0.0,0.0,0.0,0.0,-2.9929,-3.0277,0.0,-3.0089,0.0,0.0,0.0,0.0,0.0,0.0,0.0,0.0,-3.3166,-3.4124,-3.3692,-3.4211,-3.4182,-3.3678,-3.408,-3.273,-2.9523,-2.4776,0.0,0.0,0.0,0.0,0.0,0.0,-2.7099,-2.961,-3.2164,-3.3808,-3.4385,-3.438,-3.4109,-3.3431,-3.1018,-2.9073,-2.7724,-2.5908,-2.4036,-2.2149,-2.0219,0.0,0.0,0.0,0.0,0.0,0.0,0.0,0.0,0.0,0.0,0.0,0.0,0.0,0.0,0.0,0.0,0.0,0.0,0.0,0.0,-1.8753,0.0,0.0,0.0,0.0,0.0,0.0,0.0,0.0,0.0,0.0,-2.054,-2.1637,-2.3381,-2.6071,0.0,0.0,0.0,0.0,-2.7544,-2.8109,-2.8172,-2.7984,-2.7444,-2.7745,-2.772,-2.6751,0.0,0.0,-2.6788,-2.748,-2.7657,-2.6063,-2.6766,-2.7532,-2.7934,-2.6465,-2.5598,-2.6122,-2.5398,-2.5096,-2.5511,-2.5896,-2.6399,-3.4675,0.0,0.0,0.0,0.0,-3.2962,-3.408,-3.572,-3.5299,-3.4724,-3.3983,-3.3311,0.0,0.0,0.0,0.0,0.0,0.0,-3.1743,-3.2748,-3.4361,-3.5523,-3.6214,-3.6388,-3.6388,-3.6185,-3.5494,-3.4385,-3.2916,-3.0146,-2.6765,-2.2875,0.0,0.0,0.0,0.0,-2.8202,-3.0292,-3.2428,-3.3808,-3.4399,-3.438,-3.3891,-3.2817,-3.1613,-3.0161,-2.8463,-2.7012,-2.5575,-2.4094,-2.2222,0.0,0.0,0.0,0.0,0.0,0.0,0.0,0.0,0.0,0.0,0.0,0.0,0.0,0.0,0.0,0.0,0.0,0.0,0.0,-1.8666,-1.8999,-1.8908,0.0,0.0,0.0,0.0,0.0,0.0,0.0,0.0,0.0,-2.3802,-2.4343,-2.5261,0.0,0.0,-2.757,-2.8034,-2.831,-2.8662,-2.9227,0.0,0.0,0.0,-2.826,-2.8134,-2.821,-2.8825,-2.9202,-2.8888,-2.9101,-2.9151,-2.8637,-2.8863,-2.9126,-2.9151,-2.7632,-2.6424,-2.6449,-2.6537,-2.6603,-2.6791,-2.7243,-2.7632,-3.8986,-3.6228,-3.5198,-3.5212,-3.5923,-3.6199,-3.7186,-3.858,-3.8217,-3.7752,-3.7186,-3.6301,-3.4559,-3.2191,-3.1482,0.0,0.0,0.0,-3.3746,-3.5024,-3.5813,-3.6678,-3.7622,-3.7665,-3.7665,-3.7607,-3.662,-3.5938,-3.5532,-3.3862,-3.1105,-2.7389,0.0,0.0,-2.6228,-2.8188,-2.9885,-3.1351,-3.2991,-3.4037,-3.4399,-3.438,-3.3786,-3.2539,-3.2104,-3.1018,-2.9116,-2.8071,-2.6939,-2.5701,-2.3789,-2.1989,0.0,0.0,0.0,0.0,0.0,0.0,0.0,0.0,0.0,0.0,0.0,-1.4355,0.0,0.0,0.0,0.0,-1.6996,-1.8778,-2.046,-2.0407,0.0,0.0,0.0,0.0,0.0,0.0,0.0,-2.3191,-2.4235,-2.5206,-2.6059,-2.6584,-2.7195,-2.7911,-2.806,-2.8348,-2.9013,0.0,-2.9541,-3.0319,-3.0432,-3.0306,-2.9955,-2.9453,-2.9151,-2.9239,-2.9553,-2.9779,-2.9779,-2.9779,-2.9779,-2.9779,-2.9779,-2.9779,-2.9779,-2.8662,-2.7819,-2.7819,-2.7846,-2.7996,-2.8222,-2.8536,-2.8775,-4.276,-4.2049,-3.9654,-3.8609,-3.858,-3.9218,-3.9479,-3.9436,-3.9436,-3.9712,-4.006,-3.8899,-3.768,-3.6431,-3.4719,0.0,0.0,-3.5436,-3.6315,-3.7447,-3.7404,-3.7665,-3.8188,-3.8202,-3.8202,-3.8188,-3.7636,-3.7375,-3.7302,-3.6098,-3.4666,-3.2843,-3.048,-2.9435,-2.9726,-3.0915,-3.1901,-3.26,-3.3757,-3.438,-3.438,-3.438,-3.3804,-3.2539,-3.2481,-3.1582,-2.9682,-2.9,-2.8115,-2.6881,-2.5009,-2.3412,-2.2149,0.0,0.0,0.0,0.0,0.0,0.0,0.0,0.0,0.0,0.0,0.0,0.0,0.0,0.0,0.0,-2.0059,0.0,-2.2859,-2.2432,0.0,0.0,0.0,-2.1312,-2.1775,-2.3065,-2.4075,-2.4487,0.0,0.0,0.0,0.0,-2.9013,-2.9026,-2.8624,-2.885,-3.0292,-3.0168,-3.0281,-3.1198,-3.1399,-3.1436,-3.1223,-3.0809,-3.0319,-2.993,-2.9829,-2.9792,-2.9779,-2.9779,-2.9779,-2.9779,-2.9779,-2.9779,-2.9779,-2.9691,-2.9779,-2.9666,-2.9276,-2.9139,-2.9553,-2.9679,-2.9679,-4.3674,-4.3485,-4.2861,-4.2063,-4.1221,-4.1831,-4.1831,-4.141,-4.141,-4.1207,-4.0815,-4.0017,-3.9218,-3.8478,-3.8043,-3.7926,-3.8072,-3.8217,-3.8449,-3.871,-3.8217,-3.8072,-3.8202,-3.8202,-3.8202,-3.8188,-3.8057,-3.7999,-3.7955,-3.7215,-3.662,-3.6127,-3.5038,-3.3108,-3.0539,-3.1642,-3.26,-3.3238,-3.4008,-3.438,-3.438,-3.438,-3.3804,-3.2524,-3.2481,-3.1582,-2.9682,-2.9029,-2.8318,-2.7478,-2.5622,-2.4215,-2.3441,-2.0407,0.0,0.0,0.0,0.0,0.0,0.0,0.0,0.0,0.0,-1.7995,-1.5283,0.0,-1.9972,0.0,-2.1344,-2.278,-2.3586,-2.307,0.0,0.0,-2.4317,-2.4529,-2.6015,-2.642,-2.6784,-2.7355,-2.8119,-2.8575,-2.8522,-2.9477,-3.0179,-3.0179,-3.0093,-3.0018,-3.0043,-3.062,-3.1097,-3.1386,-3.1775,-3.1863,-3.1461,-3.0959,-3.0595,-3.0432,-3.008,-2.9792,-2.9792,-2.9779,-2.9779,-2.9779,-2.9779,-2.9779,-2.9779,-2.9779,-2.9779,-2.9779,-2.9666,-2.9616,-2.9767,-2.9779,-2.9779,-4.4821,-4.4835,-4.485,-4.4429,-4.3776,-4.3544,-4.3253,-4.2948,-4.2934,-4.2571,-4.1889,-4.0945,-4.0191,-3.961,-3.961,-3.961,-3.9596,-3.961,-3.9596,-3.9567,-3.8928,-3.8638,-3.8638,-3.8347,-3.8202,-3.8202,-3.8202,-3.8202,-3.8188,-3.7868,-3.7564,-3.7302,-3.6939,-3.5532,-3.3267,-3.3848,-3.4254,-3.4346,-3.437,-3.438,-3.438,-3.438,-3.3804,-3.2571,-3.2481,-3.1582,-2.9668,-2.9015,-2.8287,-2.7331,-2.5709,-2.4573,-2.3914,-2.1394,-1.9798,0.0,0.0,0.0,0.0,0.0,0.0,0.0,0.0,0.0,0.0,0.0,-2.154,0.0,-2.3267,0.0,-2.5517,-2.5259,-2.5593,-2.6951,-2.7041,-2.752,-2.8855,-2.8862,-2.9018,-2.9544,-2.9513,-2.9387,-2.9328,-3.0068,-3.062,-3.0633,-3.1022,-3.1223,-3.0997,-3.1411,-3.1838,-3.2102,-3.2403,-3.2403,-3.1851,-3.1524,-3.1248,-3.0972,-3.0507,-3.0168,-3.0143,-2.9955,-2.9779,-2.9779,-2.9779,-2.9779,-2.9779,-2.9779,-2.9779,-2.9779,-2.9779,-2.9779,-2.9779,-2.9779,-2.9779,-4.588,-4.588,-4.588,-4.588,-4.5808,-4.469,-4.4182,-4.411,-4.411,-4.3674,-4.2919,-4.1831,-4.0974,-4.0365,-4.035,-4.035,-4.035,-4.0263,-4.022,-4.0191,-3.9523,-3.9204,-3.9175,-3.8522,-3.8202,-3.8202,-3.8202,-3.8202,-3.8202,-3.8202,-3.7941,-3.7433,-3.7418,-3.7128,-3.6577,-3.6548,-3.6156,-3.5407,-3.482,-3.4467,-3.438,-3.438,-3.3804,-3.26,-3.2394,-3.1437,-2.961,-2.8956,-2.8113,-2.6864,-2.5734,-2.4834,-2.4138,-2.2381,-2.1336,0.0,-2.0132,0.0,0.0,0.0,0.0,0.0,0.0,0.0,0.0,-2.1902,-2.3151,-2.4181,-2.5513,-2.6707,-2.7724,-2.7971,-2.8347,-2.8971,-2.9523,-3.0147,-3.0858,-3.0785,-3.0818,-3.1284,-3.0648,-3.0091,-3.0113,-3.0448,-3.0721,-3.0934,-3.1659,-3.224,-3.229,-3.229,-3.2491,-3.3061,-3.3124,-3.283,-3.2416,-3.224,-3.2001,-3.1549,-3.106,-3.0696,-3.0583,-3.0231,-2.9892,-2.9817,-2.9779,-2.9779,-2.9779,-2.9779,-2.9779,-2.9779,-2.9779,-2.9779,-2.9779,-2.9779,-2.9779,-4.588,-4.588,-4.588,-4.588,-4.5866,-4.5634,-4.5213,-4.4719,-4.4719,-4.4066,-4.2992,-4.2745,-4.2295,-4.1744,-4.1715,-4.1715,-4.1686,-4.1149,-4.0916,-4.0873,-3.9726,-3.9204,-3.916,-3.8522,-3.8202,-3.8202,-3.8202,-3.8202,-3.8202,-3.8202,-3.8144,-3.8043,-3.8028,-3.7955,-3.7854,0.0,0.0,0.0,-3.5276,-3.4956,-3.4395,-3.438,-3.3804,-3.2556,-3.199,0.0,-2.8971,-2.8767,-2.81,-2.6866,-2.6588,0.0,0.0,0.0,0.0,0.0,0.0,0.0,0.0,0.0,0.0,0.0,-2.4684,-2.4176,-2.3339,-2.5299,-2.6533,-2.6315,-2.7853,-2.8754,-2.8536,-2.9479,-3.0292,-3.0901,-3.106,-3.1613,-3.2745,-3.2355,-3.2142,-3.2688,-3.1608,-3.0885,-3.1267,-3.1311,-3.1399,-3.1813,-3.2491,-3.2893,-3.2905,-3.288,-3.2943,-3.3099,-3.3124,-3.3086,-3.2943,-3.2528,-3.2227,-3.2001,-3.1599,-3.1122,-3.0721,-3.0557,-3.0269,-2.9892,-2.9779,-2.9779,-2.9779,-2.9779,-2.9779,-2.9779,-2.9779,-2.9779,-2.9779,-2.9779,-2.9779,-4.6635,0.0,-4.6345,-4.6185,0.0,-4.588,-4.5692,-4.5372,-4.5372,-4.4879,-4.3892,-4.3268,-4.2818,-4.2513,-4.2237,-4.2092,-4.2078,-4.1744,-4.1584,-4.1541,-4.0583,-3.9973,-3.9625,-3.9,-3.8522,-3.8202,-3.8202,-3.8202,-3.8202,-3.8202,-3.8202,-3.8202,-3.8202,-3.8202,-3.8202,-3.8202,-3.7593,-3.633,-3.5726,-3.5232,-3.4893,-3.4574,-3.3964,-3.3021,0.0,0.0,0.0,0.0,0.0,0.0,0.0,0.0,0.0,0.0,0.0,-2.5245,-2.4984,-2.494,-2.5245,-2.5288,-2.5825,-2.714,-2.8071,-2.794,-2.6399,-2.7461,-2.8448,-2.9087,-3.0016,-3.0552,-3.0597,-3.1163,-3.1787,-3.2382,-3.2483,-3.2875,-3.3665,-3.3237,-3.3002,-3.3409,-3.2273,-3.1497,-3.2123,-3.1964,-3.1917,-3.219,-3.2717,-3.3124,-3.3124,-3.3124,-3.3124,-3.3124,-3.3124,-3.3124,-3.3099,-3.2867,-3.2629,-3.2579,-3.2164,-3.1625,-3.1097,-3.0796,-3.0432,-2.9917,-2.9779,-2.9779,-2.9779,-2.9779,-2.9779,-2.9779,-2.9779,-2.9779,-2.9779,-2.9779,-2.9779,-4.7477,-4.6998,-4.6983,-4.6693,-4.6214,-4.6098,-4.5996,-4.588,0.0,0.0,0.0,-4.379,-4.321,-4.2963,-4.2469,-4.2194,-4.2107,-4.2092,-4.2092,-4.2063,-4.141,-4.08,-4.0249,-3.9538,-3.8913,-3.8391,-3.826,-3.8202,-3.8202,-3.8202,-3.8202,-3.8202,-3.8202,-3.8202,-3.8202,-3.8202,-3.7955,-3.7433,-3.6336,-3.5625,-3.5392,-3.4849,-3.4225,-3.3518,-3.2846,-3.1961,-3.0785,-3.0234,-2.9102,-2.7403,-2.7416,-2.7157,-2.6544,-2.6474,-2.6997,-2.8129,-2.8203,-2.8246,-2.8362,-2.8362,-2.8652,-2.9319,-3.08,-3.0974,-2.9334,-2.929,-3.0001,-3.1555,-3.177,-3.2106,-3.2643,-3.2803,-3.3064,-3.362,-3.3663,-3.391,-3.4438,-3.4017,-3.3896,-3.4283,-3.3319,-3.2588,-3.321,-3.2819,-3.2516,-3.26,-3.292,-3.3124,-3.3124,-3.3124,-3.3124,-3.3124,-3.3124,-3.3124,-3.3124,-3.3099,-3.3124,-3.3048,-3.2654,-3.2177,-3.1625,-3.1097,-3.0583,-3.0093,-2.988,-2.9792,-2.9779,-2.9779,-2.9779,-2.9779,-2.9779,-2.9779,-2.9779,-2.9779,-2.9779,-4.7738,-4.7651,-4.7651,-4.7593,-4.7477,-4.6925,-4.6388,-4.5895,-4.588,-4.5518,-4.4879,-4.4705,-4.4008,-4.2992,-4.289,-4.2586,-4.2107,-4.2092,-4.2092,0.0,-4.1395,-4.1047,-4.0902,-3.9755,-3.9146,-3.9015,-3.8478,-3.8202,-3.8202,-3.8202,-3.8202,-3.8202,-3.8202,-3.8202,-3.8202,-3.8202,-3.8159,-3.8057,-3.7389,-3.6489,-3.5436,-3.5305,-3.4695,-3.3547,-3.2875,-3.2147,-3.1424,-3.1293,-3.0596,-2.9319,-2.9755,-2.9755,-2.9131,-2.9029,-2.9421,-3.0133,-3.0205,-3.0408,-3.0915,-3.0988,-3.1248,-3.1917,-3.2205,-3.2004,-3.1235,-3.1656,-3.2092,-3.2396,-3.2861,-3.3256,-3.3387,-3.3819,-3.4167,-3.4283,-3.4283,-3.453,-3.5174,-3.5143,-3.5235,-3.5784,-3.5263,-3.477,-3.5033,-3.41,-3.3416,-3.3762,-3.3365,-3.3124,-3.3124,-3.3124,-3.3124,-3.3124,-3.3124,-3.3124,-3.3124,-3.3124,-3.3124,-3.3124,-3.3048,-3.2692,-3.2114,-3.1625,-3.1097,-3.057,-3.0131,-2.9854,-2.9792,-2.9779,-2.9779,-2.9779,-2.9779,-2.9779,-2.9779,-2.9779,-2.9779,-4.8609,-4.8304,-4.829,-4.8087,-4.7724,-4.71,-4.6475,-4.5895,-4.588,-4.5706,-4.5401,-4.5053,-4.456,-4.4023,-4.3674,-4.3181,-4.2571,-4.2586,-4.2397,-4.2092,-4.1787,-4.1453,-4.1076,-4.051,-3.9857,-3.9218,-3.8884,-3.8551,-3.8231,-3.8202,-3.8202,-3.8202,-3.8202,-3.8202,-3.8202,-3.8202,-3.8202,-3.8188,-3.7622,-3.7012,-3.6431,-3.6069,-3.5444,-3.4549,-3.3877,-3.3253,-3.26,-3.2251,-3.1596,-3.0684,-3.093,-3.0945,-3.0654,-3.0625,-3.0945,-3.1569,-3.1627,-3.1743,-3.2002,-3.2382,-3.2701,-3.3021,-3.3354,-3.3572,-3.3601,-3.3253,-3.318,-3.3514,-3.3833,-3.4124,-3.4491,-3.4796,-3.5053,-3.5415,-3.541,-3.5561,-3.5807,-3.5865,-3.5934,-3.6045,-3.54,-3.5,-3.5115,-3.4061,-3.3363,-3.3615,-3.3283,-3.3124,-3.3124,-3.3124,-3.3124,-3.3124,-3.3124,-3.3124,-3.3124,-3.3124,-3.3124,-3.3124,-3.3124,-3.2842,-3.234,-3.1964,-3.1524,-3.0796,-3.0394,-3.0131,-2.9867,-2.9779,-2.9779,-2.9779,-2.9779,-2.9779,-2.9779,-2.9779,-2.9779,-4.9393,-4.8943,-4.8943,-4.8566,-4.7956,-4.7317,-4.6679,-4.6098,-4.5953,-4.588,-4.5808,-4.5329,-4.5039,-4.4835,-4.44,-4.3761,-4.3065,-4.2992,-4.2658,-4.2136,-4.2092,-4.1831,-4.1337,-4.1178,-4.0495,-3.9479,-3.9276,-3.887,-3.826,-3.8202,-3.8202,-3.8202,-3.8202,-3.8202,-3.8202,-3.8202,-3.8202,-3.8173,-3.7752,-3.7433,-3.7302,-3.6794,-3.6228,-3.5625,-3.4951,-3.4399,-3.3939,-3.3282,-3.2643,-3.2019,-3.1961,-3.1961,-3.193,-3.1961,-3.2251,-3.2829,-3.2948,-3.2916,-3.2977,-3.3543,-3.3939,-3.3939,-3.4472,-3.5038,-3.5415,-3.4724,-3.4331,-3.4748,-3.4864,-3.5053,-3.5479,-3.5595,-3.5813,-3.6243,-3.6286,-3.633,-3.6489,-3.6533,-3.6548,-3.641,-3.5861,-3.5483,-3.513,-3.433,-3.3586,-3.3258,-3.3124,-3.3124,-3.3124,-3.3124,-3.3124,-3.3124,-3.3124,-3.3124,-3.3124,-3.3124,-3.3124,-3.3124,-3.3124,-3.2893,-3.2528,-3.234,-3.1876,-3.1047,-3.0643,-3.0369,-2.9917,-2.9779,-2.9779,-2.9779,-2.9779,-2.9779,-2.9779,-2.9779,-2.9779,-4.9688,-4.9596,-4.9567,-4.9219,-4.8566,-4.7956,-4.7317,-4.6693,-4.6142,-4.588,-4.5866,-4.5822,-4.5445,-4.4937,-4.4821,-4.4168,-4.3094,-4.3007,-4.2702,-4.215,-4.2092,-4.2063,-4.1918,-4.1395,-4.0728,-4.0017,-3.9494,-3.8913,-3.8289,-3.8217,-3.8202,-3.8202,-3.8202,-3.8202,-3.8202,-3.8202,-3.8202,-3.8202,-3.8144,-3.7854,-3.7331,-3.7244,-3.6881,-3.6243,-3.5654,-3.529,-3.5174,-3.4574,-3.3949,-3.3402,-3.3344,-3.3329,-3.3329,-3.3329,-3.3605,-3.4182,-3.4206,-3.4206,-3.4283,-3.4869,-3.5203,-3.5276,-3.572,-3.6098,-3.6199,-3.6098,-3.6054,-3.6127,-3.6127,-3.6083,-3.6214,-3.6228,-3.6286,-3.6446,-3.6431,-3.6533,-3.707,-3.7215,-3.7425,-3.7968,-3.7577,-3.7829,-3.7232,-3.5989,-3.4635,-3.324,-3.3124,-3.3124,-3.3124,-3.3124,-3.3124,-3.3124,-3.3124,-3.3124,-3.3124,-3.3124,-3.3124,-3.3124,-3.3124,-3.3048,-3.2855,-3.2528,-3.2001,-3.1512,-3.0947,-3.052,-3.0068,-2.9779,-2.9779,-2.9779,-2.9779,-2.9779,-2.9779,-2.9779,-2.9779,-4.9732,-4.9732,-4.9732,-4.9306,-4.8725,-4.8435,-4.7767,-4.6778,-4.6517,-4.6243,-4.5909,-4.588,-4.5735,-4.5474,-4.5474,-4.4966,-4.411,-4.3747,-4.3239,-4.2629,-4.2266,-4.2092,-4.2049,-4.1845,-4.1337,-4.067,-4.0031,-3.9407,-3.8812,-3.8391,-3.8202,-3.8202,-3.8202,-3.8202,-3.8202,-3.8202,-3.8202,-3.8202,-3.8202,-3.8072,-3.7868,-3.7825,-3.7535,-3.6968,-3.6649,-3.6315,-3.5938,-3.5662,-3.5415,-3.5169,-3.514,-3.5154,-3.514,-3.5154,-3.5256,-3.5517,-3.5546,-3.5532,-3.5532,-3.5778,-3.5909,-3.5938,-3.6141,-3.646,-3.6867,-3.6896,-3.7041,-3.7288,-3.6765,-3.6446,-3.6823,-3.6896,-3.7041,-3.7331,-3.7433,-3.7535,-3.7781,-3.7839,-3.7792,-3.7501,-3.7414,-3.7246,-3.6635,-3.5628,-3.4441,-3.3368,-3.3124,-3.3167,-3.3124,-3.3124,-3.3124,-3.3124,-3.3124,-3.3124,-3.3124,-3.3124,-3.3124,-3.3124,-3.3124,-3.3124,-3.3074,-3.2986,-3.2541,-3.1964,-3.1399,-3.0884,-3.0407,-2.998,-2.9779,-2.9779,-2.9779,-2.9779,-2.9779,-2.9779,-2.9779,-4.9732,-4.9732,-4.9732,-4.9407,-4.8972,-4.8798,-4.8054,-4.7143,-4.6911,-4.6475,-4.5909,-4.588,-4.588,-4.588,-4.588,-4.5518,-4.4879,-4.4429,-4.3776,-4.3021,-4.2528,-4.2252,-4.2107,-4.2092,-4.1744,-4.1105,-4.0612,-3.9973,-3.9218,-3.8522,-3.8202,-3.8202,-3.8202,-3.8202,-3.8202,-3.8202,-3.8202,-3.8202,-3.8202,-3.8202,-3.8202,-3.8202,-3.7999,-3.7578,-3.7389,-3.707,-3.662,-3.6402,-3.6286,-3.6286,-3.6286,-3.6286,-3.6286,-3.6286,-3.6286,-3.6286,-3.6286,-3.6286,-3.6265,-3.6475,-3.6591,-3.6591,-3.6707,-3.7027,-3.7418,-3.7549,-3.7738,-3.8028,-3.736,-3.7099,-3.7447,-3.7549,-3.7752,-3.8144,-3.8202,-3.8202,-3.8188,-3.8202,-3.7947,-3.7362,-3.7414,-3.6791,-3.5829,-3.5128,-3.4413,-3.3368,-3.3326,-3.3326,-3.3167,-3.3124,-3.3124,-3.3124,-3.3124,-3.3124,-3.3124,-3.3124,-3.3124,-3.3124,-3.3124,-3.3124,-3.3124,-3.3124,-3.288,-3.2152,-3.1725,-3.121,-3.0608,-3.0156,-2.9779,-2.9779,-2.9779,-2.9779,-2.9779,-2.9779,-2.9779,-4.9732,-4.9732,-4.9732,-4.9654,-4.9582,-4.9016,-4.8362,-4.7695,-4.7114,-4.649,-4.5967,-4.588,-4.588,-4.588,-4.588,-4.5532,-4.4951,-4.485,-4.4168,-4.3123,-4.2963,-4.2629,-4.2107,-4.2078,-4.1758,-4.1207,-4.1033,-4.0365,-3.9218,-3.8565,-3.8202,-3.8202,-3.8202,-3.8202,-3.8202,-3.8202,-3.8202,-3.8202,-3.8202,-3.8202,-3.8202,-3.8202,-3.8188,-3.8072,-3.7622,-3.7302,-3.7215,-3.6649,-3.633,-3.6315,-3.6388,-3.6359,-3.6344,-3.6359,-3.6388,-3.6373,-3.6359,-3.6344,-3.646,-3.6939,-3.7259,-3.7317,-3.7694,-3.8086,-3.8057,-3.8072,-3.8115,-3.8188,-3.8057,-3.8028,-3.8072,-3.8057,-3.8101,-3.8173,-3.8202,-3.8202,-3.8202,-3.8202,-3.8202,-3.8089,-3.8037,-3.7362,-3.5895,-3.5574,-3.48,-3.3852,-3.3823,-3.3979,-3.3283,-3.3124,-3.3124,-3.3124,-3.3124,-3.3124,-3.3124,-3.3124,-3.3124,-3.3124,-3.3124,-3.3124,-3.3124,-3.3061,-3.2704,-3.2365,-3.1876,-3.1348,-3.0733,-3.0269,-2.9905,-2.9779,-2.9779,-2.9779,-2.9779,-2.9779,-2.9779,-4.9732,-4.9732,-4.9732,-4.9732,-4.9654,-4.9422,-4.8957,-4.8348,-4.7724,-4.7085,-4.649,-4.6069,-4.588,-4.588,-4.588,-4.5764,-4.5488,-4.5097,-4.4429,-4.3631,-4.3195,-4.2673,-4.2136,-4.2092,-4.2005,-4.1715,-4.1308,-4.0452,-3.932,-3.8942,-3.8609,-3.826,-3.8202,-3.8202,-3.8202,-3.8202,-3.8202,-3.8202,-3.8202,-3.8202,-3.8202,-3.8202,-3.8202,-3.8202,-3.7999,-3.7883,-3.7883,-3.7636,-3.752,-3.7506,-3.7535,-3.752,-3.752,-3.752,-3.752,-3.752,-3.752,-3.752,-3.7535,-3.7738,-3.7883,-3.7897,-3.8072,-3.8202,-3.8202,-3.8202,-3.8202,-3.8202,-3.8202,-3.8202,-3.8202,-3.8202,-3.8202,-3.8202,-3.8202,-3.8202,-3.8202,-3.8202,-3.8202,-3.8202,-3.8202,-3.772,-3.6766,-3.6399,-3.5762,-3.4343,-3.4189,-3.3979,-3.3368,-3.3124,-3.3167,-3.3124,-3.3124,-3.3124,-3.3124,-3.3124,-3.3124,-3.3124,-3.3124,-3.3124,-3.3124,-3.3124,-3.2842,-3.2729,-3.2215,-3.165,-3.1097,-3.0382,-3.003,-2.9867,-2.9854,-2.9779,-2.9779,-2.9779,-2.9779,-4.9732,-4.9732,-4.9732,-4.9732,-4.9732,-4.9732,-4.932,-4.8682,-4.8058,-4.7419,-4.6749,-4.6156,-4.588,-4.588,-4.588,-4.588,-4.5837,-4.5401,-4.4864,-4.4255,-4.3616,-4.2977,-4.2426,-4.2179,-4.2092,-4.199,-4.141,-4.0525,-3.9581,-3.9291,-3.8855,-3.8231,-3.8202,-3.8202,-3.8202,-3.8202,-3.8202,-3.8202,-3.8202,-3.8202,-3.8202,-3.8202,-3.8202,-3.8202,-3.8202,-3.8202,-3.8202,-3.8202,-3.8202,-3.8202,-3.8202,-3.8202,-3.8202,-3.8202,-3.8202,-3.8202,-3.8188,-3.8202,-3.8202,-3.8202,-3.8202,-3.8202,-3.8202,-3.8202,-3.8202,-3.8202,-3.8202,-3.8202,-3.8202,-3.8202,-3.8202,-3.8202,-3.8202,-3.8202,-3.8202,-3.8202,-3.8202,-3.8202,-3.8202,-3.8165,-3.7886,-3.7491,-3.7053,-3.6897,-3.607,-3.4634,-3.4592,-3.4413,-3.3738,-3.3539,-3.3539,-3.3539,-3.3569,-3.3411,-3.324,-3.3124,-3.3124,-3.3124,-3.3124,-3.3124,-3.3124,-3.3124,-3.3099,-3.2955,-3.2604,-3.2039,-3.1386,-3.0633,-3.0256,-3.0068,-2.988,-2.9779,-2.9779,-2.9779,-2.9779,-4.9732,-4.9732,-4.9732,-4.9732,-4.9732,-4.9732,-4.932,-4.8754,-4.8072,-4.7448,-4.6911,-4.62,-4.588,-4.588,-4.588,-4.588,-4.5866,-4.5793,-4.543,-4.4777,-4.4182,-4.3558,-4.2905,-4.2339,-4.2092,-4.2063,-4.1453,-4.08,-4.0118,-3.9567,-3.8957,-3.8362,-3.8231,-3.8202,-3.8202,-3.8202,-3.8202,-3.8202,-3.8202,-3.8202,-3.8202,-3.8202,-3.8202,-3.8202,-3.8202,-3.8202,-3.8202,-3.8202,-3.8202,-3.8202,-3.8202,-3.8202,-3.8202,-3.8202,-3.8202,-3.8202,-3.8202,-3.8202,-3.8202,-3.8202,-3.8202,-3.8202,-3.8202,-3.8202,-3.8202,-3.8202,-3.8202,-3.8202,-3.8202,-3.8202,-3.8202,-3.8202,-3.8202,-3.8202,-3.8202,-3.8202,-3.8202,-3.8202,-3.8202,-3.8127,-3.763,-3.7014,-3.6936,-3.6936,-3.6255,-3.5142,-3.5047,-3.5169,-3.4426,-3.4272,-3.4397,-3.4314,-3.4147,-3.3852,-3.3454,-3.3124,-3.3111,-3.3111,-3.3124,-3.3124,-3.3124,-3.3124,-3.3124,-3.3023,-3.2591,-3.2051,-3.175,-3.106,-3.0658,-3.0432,-3.0143,-2.9867,-2.9779,-2.9779,-2.9779,-4.9732,-4.9732,-4.9732,-4.9732,-4.9732,-4.9732,-4.9553,-4.9262,-4.8275,-4.7666,-4.7317,-4.6359,-4.588,-4.588,-4.588,-4.588,-4.588,-4.5866,-4.5532,-4.4879,-4.4269,-4.366,-4.2992,-4.2382,-4.2092,-4.2063,-4.1903,-4.1439,-4.0757,-4.0118,-3.9494,-3.8928,-3.842,-3.8217,-3.8202,-3.8202,-3.8202,-3.8202,-3.8202,-3.8202,-3.8202,-3.8202,-3.8202,-3.8202,-3.8202,-3.8202,-3.8202,-3.8202,-3.8202,-3.8202,-3.8202,-3.8202,-3.8202,-3.8202,-3.8202,-3.8202,-3.8202,-3.8202,-3.8202,-3.8202,-3.8202,-3.8202,-3.8202,-3.8202,-3.8202,-3.8202,-3.8202,-3.8202,-3.8202,-3.8202,-3.8202,-3.8202,-3.8202,-3.8202,-3.8202,-3.8202,-3.8202,-3.8202,-3.8202,-3.8202,-3.7962,-3.781,-3.7644,-3.7414,-3.6531,-3.5521,-3.5507,-3.5359,-3.4744,-3.4937,-3.4937,-3.4551,-3.4384,-3.4105,-3.3484,-3.3326,-3.3539,-3.3356,-3.324,-3.3167,-3.3167,-3.3124,-3.3124,-3.3011,-3.2554,-3.2252,-3.1951,-3.1574,-3.1173,-3.0809,-3.0532,-3.0231,-2.9892,-2.9842,-2.9917,-4.9732,-4.9732,-4.9732,-4.9732,-4.9732,-4.9732,-4.9732,-4.9529,-4.8333,-4.7782,-4.7521,-4.6446,-4.588,-4.588,-4.588,-4.588,-4.588,-4.588,-4.5663,-4.5198,-4.4603,-4.3964,-4.3297,-4.2469,-4.2092,-4.2092,-4.2092,-4.1744,-4.1105,-4.0655,-4.0046,-3.9247,-3.8768,-3.8434,-3.8246,-3.8202,-3.8202,-3.8202,-3.8202,-3.8202,-3.8202,-3.8202,-3.8202,-3.8202,-3.8202,-3.8202,-3.8202,-3.8202,-3.8202,-3.8202,-3.8202,-3.8202,-3.8202,-3.8202,-3.8202,-3.8202,-3.8202,-3.8202,-3.8202,-3.8202,-3.8202,-3.8202,-3.8202,-3.8202,-3.8202,-3.8202,-3.8202,-3.8202,-3.8202,-3.8202,-3.8202,-3.8202,-3.8202,-3.8202,-3.8202,-3.8202,-3.8202,-3.8202,-3.8202,-3.8202,-3.8165,-3.8202,-3.8052,-3.781,-3.7039,-3.6306,-3.6068,-3.5989,-3.5494,-3.548,-3.521,-3.4855,-3.4579,-3.4092,-3.3356,-3.3484,-3.3907,-3.3696,-3.3441,-3.3326,-3.324,-3.3167,-3.3124,-3.3099,-3.278,-3.2729,-3.2466,-3.2026,-3.1625,-3.1286,-3.0984,-3.067,-3.0394,-3.0218,-3.0181,-4.9732,-4.9732,-4.9732,-4.9732,-4.9732,-4.9732,-4.9732,-4.9529,-4.842,-4.7854,-4.7535,-4.6548,-4.5953,-4.5909,-4.588,-4.588,-4.588,-4.588,-4.5866,-4.5663,-4.5198,-4.4545,-4.3645,-4.2687,-4.2223,-4.2092,-4.2092,-4.1773,-4.1279,-4.1062,-4.051,-3.9552,-3.9247,-3.8899,-3.8434,-3.826,-3.8202,-3.8202,-3.8202,-3.8202,-3.8202,-3.8202,-3.8202,-3.8202,-3.8202,-3.8202,-3.8202,-3.8202,-3.8202,-3.8202,-3.8202,-3.8202,-3.8202,-3.8202,-3.8202,-3.8202,-3.8202,-3.8202,-3.8202,-3.8202,-3.8202,-3.8202,-3.8202,-3.8202,-3.8202,-3.8202,-3.8202,-3.8202,-3.8202,-3.8202,-3.8202,-3.8202,-3.8202,-3.8202,-3.8202,-3.8202,-3.8202,-3.8202,-3.8202,-3.8202,-3.8202,-3.8202,-3.8165,-3.8052,-3.7515,-3.7039,-3.6688,-3.6399,-3.6281,-3.5869,-3.5628,-3.5156,-3.462,-3.405,-3.3368,-3.3781,-3.4076,-3.3611,-3.3484,-3.3526,-3.3326,-3.3167,-3.3124,-3.3099,-3.3074,-3.3074,-3.296,-3.2466,-3.2139,-3.1876,-3.1562,-3.121,-3.0934,-3.0733,-3.0583,-4.9732,-4.9732,-4.9732,-4.9732,-4.9732,-4.9732,-4.9732,-4.9616,-4.8827,-4.8145,-4.7666,-4.694,-4.6227,-4.5909,-4.588,-4.588,-4.5835,-4.5835,-4.588,-4.5851,-4.578,-4.4676,-4.3515,-4.2948,-4.2498,-4.215,-4.2092,-4.2005,-4.1802,-4.1366,-4.0916,-4.0583,-3.9683,-3.916,-3.8899,-3.8449,-3.8217,-3.8202,-3.8202,-3.8202,-3.8202,-3.8202,-3.8202,-3.8202,-3.8202,-3.8202,-3.8202,-3.8202,-3.8202,-3.8202,-3.8202,-3.8202,-3.8202,-3.8202,-3.8202,-3.8202,-3.8202,-3.8202,-3.8202,-3.8202,-3.8202,-3.8202,-3.8202,-3.8202,-3.8202,-3.8202,-3.8202,-3.8202,-3.8202,-3.8202,-3.8202,-3.8202,-3.8202,-3.8202,-3.8202,-3.8202,-3.8202,-3.8202,-3.8202,-3.8202,-3.8202,-3.8202,-3.8089,-3.772,-3.7323,-3.6975,-3.661,-3.6148,-3.6227,-3.5909,-3.5534,-3.4896,-3.4356,-3.3907,-3.3654,-3.4076,-3.4076,-3.3526,-3.3496,-3.3781,-3.3454,-3.3124,-3.3124,-3.3111,-3.3099,-3.3099,-3.3111,-3.2898,-3.2641,-3.2378,-3.2152,-3.1813,-3.1449,-3.1185,-3.1148,-4.9732,-4.9732,-4.9732,-4.9732,-4.9732,-4.9732,-4.9732,-4.9494,-4.8711,-4.7879,-4.7184,-4.6657,-4.5987,-4.5261,-4.5247,-4.5201,-4.5233,-4.5201,-4.5187,-4.5278,-4.5656,-4.4951,-4.3703,-4.3181,-4.2673,-4.215,-4.2092,-4.2092,-4.2034,-4.1686,-4.1395,-4.1004,-4.0365,-3.9755,-3.916,-3.8855,-3.8463,-3.826,-3.8202,-3.8202,-3.8202,-3.8202,-3.8202,-3.8202,-3.8202,-3.8202,-3.8202,-3.8202,-3.8202,-3.8202,-3.8202,-3.8202,-3.8202,-3.8202,-3.8202,-3.8202,-3.8202,-3.8202,-3.8202,-3.8202,-3.8202,-3.8202,-3.8202,-3.8202,-3.8202,-3.8202,-3.8202,-3.8202,-3.8202,-3.8202,-3.8202,-3.8202,-3.8202,-3.8202,-3.8202,-3.8202,-3.8202,-3.8202,-3.8202,-3.8202,-3.8202,-3.8202,-3.8202,-3.7734,-3.7529,-3.7414,-3.7232,-3.6752,-3.6346,-3.5855,-3.5346,-3.4703,-3.4076,-3.3581,-3.3539,-3.3907,-3.3949,-3.3411,-3.3326,-3.3666,-3.3496,-3.3124,-3.3124,-3.3124,-3.3124,-3.3124,-3.3124,-3.3111,-3.2986,-3.2717,-3.2604,-3.2365,-3.1976,-3.1738,-3.17,-4.9732,-4.9732,-4.9732,-4.9732,-4.9732,-4.9732,-4.9732,-4.9451,-4.8302,-4.7191,-4.6342,-4.5831,-4.4989,-4.4172,-4.4172,-4.4172,-4.4172,-4.4359,-4.4559,-4.4851,-4.5221,-4.4947,-4.4139,-4.3471,-4.2818,-4.2208,-4.2092,-4.2092,-4.2078,-4.2049,-4.1773,-4.1323,-4.1105,-4.0408,-3.9567,-3.9218,-3.8826,-3.8304,-3.8202,-3.8202,-3.8202,-3.8202,-3.8202,-3.8202,-3.8202,-3.8202,-3.8202,-3.8202,-3.8202,-3.8202,-3.8202,-3.8202,-3.8202,-3.8202,-3.8202,-3.8202,-3.8202,-3.8202,-3.8202,-3.8202,-3.8202,-3.8202,-3.8202,-3.8202,-3.8202,-3.8202,-3.8202,-3.8202,-3.8202,-3.8202,-3.8202,-3.8202,-3.8202,-3.8202,-3.8202,-3.8202,-3.8202,-3.8202,-3.8202,-3.8202,-3.8202,-3.8202,-3.8202,-3.8202,-3.8165,-3.781,-3.7515,-3.7,-3.636,-3.5722,-3.5128,-3.4551,-3.3907,-3.321,-3.3411,-3.3738,-3.3569,-3.3283,-3.321,-3.3326,-3.3326,-3.3124,-3.3124,-3.3124,-3.3124,-3.3124,-3.3124,-3.3111,-3.3086,-3.3061,-3.2855,-3.2667,-3.2453,-3.2353,-3.2277,-4.9732,-4.9732,-4.9732,-4.9732,-4.9732,-4.9732,-4.9683,-4.9533,-4.7975,-4.6825,-4.5992,-4.4733,-4.3829,-4.3115,-4.3115,-4.3115,-4.3211,-4.3843,-4.4712,-4.5444,-4.4805,-4.4786,-4.4427,-4.3921,-4.3152,-4.2382,-4.2107,-4.2092,-4.2092,-4.2078,-4.2034,-4.1831,-4.1337,-4.0713,-4.0002,-3.9465,-3.8884,-3.8333,-3.8217,-3.8202,-3.8202,-3.8202,-3.8202,-3.8202,-3.8202,-3.8202,-3.8202,-3.8202,-3.8202,-3.8202,-3.8202,-3.8202,-3.8202,-3.8202,-3.8202,-3.8202,-3.8202,-3.8202,-3.8202,-3.8202,-3.8202,-3.8202,-3.8202,-3.8202,-3.8202,-3.8202,-3.8202,-3.8202,-3.8202,-3.8202,-3.8202,-3.8202,-3.8202,-3.8202,-3.8202,-3.8202,-3.8202,-3.8202,-3.8202,-3.8202,-3.8202,-3.8202,-3.8202,-3.8202,-3.8165,-3.8127,-3.7734,-3.7208,-3.6452,-3.5696,-3.5019,-3.4468,-3.3738,-3.3167,-3.3539,-3.3781,-3.3696,-3.3441,-3.3283,-3.3124,-3.3124,-3.3124,-3.3124,-3.3124,-3.3124,-3.3124,-3.3124,-3.3124,-3.3111,-3.3124,-3.3124,-3.2973,-3.2792,-3.2792,-3.2754,-4.9732,-4.9732,-4.9732,-4.9732,-4.9732,-4.9683,-4.9236,-4.8422,-4.727,-4.5803,-4.4442,-4.3475,-4.2833,-4.2061,-4.2061,-4.2048,-4.2146,-4.2571,-4.3402,-4.4045,-4.3782,-4.3589,-4.3448,-4.3362,-4.2883,-4.2431,-4.2208,-4.2121,-4.2092,-4.2092,-4.2092,-4.2092,-4.1715,-4.125,-4.0568,-3.9915,-3.9334,-3.8739,-3.8347,-3.8202,-3.8202,-3.8202,-3.8202,-3.8202,-3.8202,-3.8202,-3.8202,-3.8202,-3.8202,-3.8202,-3.8202,-3.8202,-3.8202,-3.8202,-3.8202,-3.8202,-3.8202,-3.8202,-3.8202,-3.8202,-3.8202,-3.8202,-3.8202,-3.8202,-3.8202,-3.8202,-3.8202,-3.8202,-3.8202,-3.8202,-3.8202,-3.8202,-3.8202,-3.8202,-3.8202,-3.8202,-3.8202,-3.8202,-3.8202,-3.8202,-3.8202,-3.8202,-3.8202,-3.8202,-3.8202,-3.8165,-3.8127,-3.7606,-3.6766,-3.5976,-3.5101,-3.4426,-3.3654,-3.3326,-3.3666,-3.3907,-3.3992,-3.3696,-3.3441,-3.324,-3.3124,-3.3124,-3.3124,-3.3124,-3.3124,-3.3124,-3.3124,-3.3124,-3.3124,-3.3124,-3.3124,-3.3124,-3.3099,-3.2998,-3.2986,-4.9732,-4.9669,-4.9522,-4.9522,-4.9605,-4.9196,-4.8296,-4.7229,-4.6014,-4.4262,-4.2512,-4.2377,-4.167,-4.1132,-4.0982,-4.1032,-4.1269,-4.1369,-4.2146,-4.2985,-4.2744,-4.246,-4.2172,-4.1998,-4.1987,-4.2481,-4.2243,-4.2065,-4.2092,-4.2092,-4.2092,-4.2092,-4.2078,-4.1613,-4.1047,-4.0408,-3.9712,-3.9117,-3.8507,-3.8202,-3.8202,-3.8202,-3.8202,-3.8202,-3.8202,-3.8202,-3.8202,-3.8202,-3.8202,-3.8202,-3.8202,-3.8202,-3.8202,-3.8202,-3.8202,-3.8202,-3.8202,-3.8202,-3.8202,-3.8202,-3.8202,-3.8202,-3.8202,-3.8202,-3.8202,-3.8202,-3.8202,-3.8202,-3.8202,-3.8202,-3.8202,-3.8202,-3.8202,-3.8202,-3.8202,-3.8202,-3.8202,-3.8202,-3.8202,-3.8202,-3.8202,-3.8202,-3.8202,-3.8202,-3.8202,-3.8202,-3.8202,-3.7962,-3.7169,-3.636,-3.5575,-3.4827,-3.4092,-3.3326,-3.3539,-3.3654,-3.3781,-3.3738,-3.3484,-3.3283,-3.3124,-3.3124,-3.3124,-3.3124,-3.3124,-3.3124,-3.3124,-3.3124,-3.3124,-3.3124,-3.3124,-3.3124,-3.3124,-3.3124,-3.3124,-4.9732,-4.9634,-4.8688,-4.8788,-4.921,-4.7259,-4.6679,-4.6614,-4.4148,-4.2658,-4.2081,-4.0837,-4.0275,-4.0032,-3.9981,-4.0415,-4.0932,-4.1082,-4.1617,-4.2257,-4.1887,-4.1448,-4.1442,-4.0696,-4.0385,-4.0824,-4.1383,-4.1829,-4.1995,-4.2092,-4.1995,-4.2051,-4.2092,-4.1744,-4.1163,-4.0437,-3.9886,-3.932,-3.8667,-3.8318,-3.8202,-3.8202,-3.8202,-3.8202,-3.8202,-3.8202,-3.8202,-3.8202,-3.8202,-3.8202,-3.8202,-3.8202,-3.8202,-3.8202,-3.8202,-3.8202,-3.8202,-3.8202,-3.8202,-3.8202,-3.8202,-3.8202,-3.8202,-3.8202,-3.8202,-3.8202,-3.8202,-3.8202,-3.8202,-3.8202,-3.8202,-3.8202,-3.8202,-3.8202,-3.8202,-3.8202,-3.8202,-3.8202,-3.8202,-3.8202,-3.8202,-3.8202,-3.8202,-3.8202,-3.8202,-3.8202,-3.8202,-3.8202,-3.7796,-3.7,-3.6241,-3.5494,-3.4786,-3.3937,-3.3338,-3.3368,-3.3411,-3.3484,-3.3368,-3.324,-3.3124,-3.3124,-3.3124,-3.3124,-3.3124,-3.3124,-3.3124,-3.3124,-3.3124,-3.3124,-3.3124,-3.3124,-3.3124,-3.3124,-3.3124,-4.936,-4.8838,-4.8838,-4.834,-4.7452,-4.6771,-4.5642,-4.4465,-4.2891,-4.1697,-4.0875,-4.0068,-3.9697,-3.9697,-3.9697,-4.0032,-4.0313,-4.0453,-4.0756,-4.0995,-4.068,-4.0359,-4.049,-3.9611,-3.9431,-3.9591,-4.0214,-4.0916,-4.1254,-4.1296,-4.1577,-4.2036,-4.2092,-4.1903,-4.1541,-4.0974,-4.0292,-3.9654,-3.9044,-3.8522,-3.8231,-3.8202,-3.8202,-3.8202,-3.8202,-3.8202,-3.8202,-3.8202,-3.8202,-3.8202,-3.8202,-3.8202,-3.8202,-3.8202,-3.8202,-3.8202,-3.8202,-3.8202,-3.8202,-3.8202,-3.8202,-3.8202,-3.8202,-3.8202,-3.8202,-3.8202,-3.8202,-3.8202,-3.8202,-3.8202,-3.8202,-3.8202,-3.8202,-3.8202,-3.8202,-3.8202,-3.8202,-3.8202,-3.8202,-3.8202,-3.8202,-3.8202,-3.8202,-3.8202,-3.8202,-3.8202,-3.8202,-3.8202,-3.8202,-3.7567,-3.6766,-3.5722,-3.4937,-3.4259,-3.3539,-3.3411,-3.3326,-3.3368,-3.3283,-3.3167,-3.3124,-3.3124,-3.3124,-3.3124,-3.3124,-3.3124,-3.3124,-3.3124,-3.3124,-3.3124,-3.3124,-3.3124,-3.3124,-3.3124,-3.3124,-4.8466,-4.7692,-4.8141,-4.7197,-4.5594,-4.5596,-4.4468,-4.2468,-4.1838,-4.094,-3.9838,-3.9697,-3.9697,-3.9697,-3.9697,-3.9749,-3.9697,-3.9736,-3.9839,-3.989,-3.9814,-3.9473,-3.8981,-3.8881,-3.8761,-3.815,-3.8398,-3.9241,-4.0173,-4.0346,-4.0802,-4.1184,-4.1549,-4.18,-4.1529,-4.1186,-4.0691,-4.0278,-3.9538,-3.887,-3.8376,-3.8202,-3.8202,-3.8202,-3.8202,-3.8202,-3.8202,-3.8202,-3.8202,-3.8202,-3.8202,-3.8202,-3.8202,-3.8202,-3.8202,-3.8202,-3.8202,-3.8202,-3.8202,-3.8202,-3.8202,-3.8202,-3.8202,-3.8202,-3.8202,-3.8202,-3.8202,-3.8202,-3.8202,-3.8202,-3.8202,-3.8202,-3.8202,-3.8202,-3.8202,-3.8202,-3.8202,-3.8202,-3.8202,-3.8202,-3.8202,-3.8202,-3.8202,-3.8202,-3.8202,-3.8202,-3.8202,-3.8202,-3.8165,-3.7848,-3.7053,-3.5883,-3.4965,-3.4384,-3.3907,-3.3666,-3.3539,-3.3454,-3.3283,-3.3124,-3.3124,-3.3124,-3.3124,-3.3124,-3.3124,-3.3124,-3.3124,-3.3124,-3.3124,-3.3124,-3.3124,-3.3124,-3.3124,-3.3124,-3.3124,-4.6559,-4.6266,-4.4607,-4.416,-4.4344,-4.2462,-4.1828,-4.2005,-4.0658,-3.9915,-3.9697,-3.9697,-3.9697,-3.9697,-3.9697,-3.9697,-3.9697,-3.9697,-3.9697,-3.9697,-3.9672,-3.9145,-3.8278,-3.8114,-3.7714,-3.7137,-3.6926,-3.7795,-3.8899,-3.9299,-3.9475,-3.9839,-4.0489,-4.0831,-4.1,-4.1031,-4.1076,-4.0771,-3.9799,-3.8884,-3.8333,-3.8202,-3.8202,-3.8202,-3.8202,-3.8202,-3.8202,-3.8202,-3.8202,-3.8202,-3.8202,-3.8202,-3.8202,-3.8202,-3.8202,-3.8202,-3.8202,-3.8202,-3.8202,-3.8202,-3.8202,-3.8202,-3.8202,-3.8202,-3.8202,-3.8202,-3.8202,-3.8202,-3.8202,-3.8202,-3.8202,-3.8202,-3.8202,-3.8202,-3.8202,-3.8202,-3.8202,-3.8202,-3.8202,-3.8202,-3.8202,-3.8202,-3.8202,-3.8202,-3.8202,-3.8202,-3.8202,-3.8202,-3.7962,-3.7567,-3.7078,-3.5883,-3.469,-3.4021,-3.3781,-3.3624,-3.3581,-3.3496,-3.3326,-3.3124,-3.3124,-3.3124,-3.3124,-3.3124,-3.3124,-3.3124,-3.3124,-3.3124,-3.3124,-3.3124,-3.3124,-3.3124,-3.3124,-3.3124,-3.3124,-4.3769,-4.4441,-4.4693,-4.3798,-4.2345,-4.1608,-4.1183,-4.0683,-4.0056,-3.9697,-3.9697,-3.9697,-3.9697,-3.9697,-3.9697,-3.9697,-3.9697,-3.9697,-3.9697,-3.9697,-3.9609,-3.9082,-3.8253,-3.7939,-3.7412,-3.6656,-3.6465,-3.6722,-3.7658,-3.8238,-3.8599,-3.9152,-3.9593,-4.0159,-4.0332,-4.0703,-4.0945,-4.0683,-3.99,-3.8899,-3.8376,-3.8202,-3.8202,-3.8202,-3.8202,-3.8202,-3.8202,-3.8202,-3.8202,-3.8202,-3.8202,-3.8202,-3.8202,-3.8202,-3.8202,-3.8202,-3.8202,-3.8202,-3.8202,-3.8202,-3.8202,-3.8202,-3.8202,-3.8202,-3.8202,-3.8202,-3.8202,-3.8202,-3.8202,-3.8202,-3.8202,-3.8202,-3.8202,-3.8202,-3.8202,-3.8202,-3.8202,-3.8202,-3.8202,-3.8202,-3.8202,-3.8202,-3.8202,-3.8202,-3.8202,-3.8202,-3.8202,-3.8202,-3.7668,-3.6908,-3.6425,-3.5789,-3.4566,-3.3496,-3.3368,-3.3253,-3.3338,-3.3295,-3.3253,-3.3124,-3.3124,-3.3124,-3.3124,-3.3124,-3.3124,-3.3124,-3.3124,-3.3124,-3.3124,-3.3124,-3.3124,-3.3124,-3.3124,-3.3124,-3.3124,-4.1564,-4.2358,-4.3908,-4.29,-4.0417,-4.1261,-4.0875,-3.9838,-3.9697,-3.9697,-3.9697,-3.9697,-3.9697,-3.9697,-3.9697,-3.9697,-3.9697,-3.9697,-3.9697,-3.9697,-3.9559,-3.9019,-3.8316,-3.7914,-3.7425,-3.6417,-3.6417,-3.6546,-3.6675,-3.7129,-3.7795,-3.8496,-3.8675,-3.9108,-3.9724,-4.0076,-4.0337,-4.0476,-3.9301,-3.8617,-3.8442,-3.8011,-3.8028,-3.8127,-3.8202,-3.8202,-3.8202,-3.8202,-3.8202,-3.8202,-3.8202,-3.8202,-3.8202,-3.8202,-3.8202,-3.8202,-3.8202,-3.8202,-3.8202,-3.8202,-3.8202,-3.8202,-3.8202,-3.8202,-3.8202,-3.8202,-3.8202,-3.8202,-3.8202,-3.8202,-3.8202,-3.8202,-3.8202,-3.8202,-3.8202,-3.8202,-3.8202,-3.8202,-3.8202,-3.8202,-3.8202,-3.8202,-3.8202,-3.8202,-3.8202,-3.8202,-3.8202,-3.8202,-3.763,-3.6855,-3.6503,-3.6148,-3.5156,-3.405,-3.3581,-3.3411,-3.3326,-3.3124,-3.3124,-3.3124,-3.3124,-3.3124,-3.3124,-3.3124,-3.3124,-3.3124,-3.3124,-3.3124,-3.3124,-3.3124,-3.3124,-3.3124,-3.3124,-3.3124,-3.3124,-4.0681,-3.9952,-4.0171,-4.0171,-3.9785,-3.9851,-3.9838,-3.9697,-3.9697,-3.9697,-3.9697,-3.9697,-3.9697,-3.9697,-3.9697,-3.9697,-3.9697,-3.9697,-3.9697,-3.9697,-3.9597,-3.9007,-3.8341,-3.7852,-3.7462,-3.6568,-3.6417,-3.6417,-3.6417,-3.6546,-3.6675,-3.6675,-3.7566,-3.7887,-3.8419,-3.9169,-3.9538,-3.9494,-3.8477,-3.8301,-3.8211,-3.7872,-3.74,-3.8037,-3.8202,-3.8188,-3.8202,-3.8202,-3.8202,-3.8202,-3.8202,-3.8202,-3.8202,-3.8202,-3.8202,-3.8202,-3.8202,-3.8202,-3.8202,-3.8202,-3.8202,-3.8202,-3.8202,-3.8202,-3.8202,-3.8202,-3.8202,-3.8202,-3.8202,-3.8202,-3.8202,-3.8202,-3.8202,-3.8202,-3.8202,-3.8202,-3.8202,-3.8202,-3.8202,-3.8202,-3.8202,-3.8202,-3.8202,-3.8202,-3.8202,-3.8202,-3.8202,-3.8202,-3.8075,-3.7462,-3.7193,-3.6713,-3.5869,-3.5006,-3.4272,-3.3907,-3.3283,-3.3124,-3.3124,-3.3124,-3.3124,-3.3124,-3.3124,-3.3124,-3.3124,-3.3124,-3.3124,-3.3124,-3.3124,-3.3124,-3.3124,-3.3124,-3.3124,-3.3124,-3.3124,-4.007,-3.9697,-3.9697,-3.9697,-3.9697,-3.9697,-3.9697,-3.9697,-3.9697,-3.9697,-3.9697,-3.9697,-3.9697,-3.9697,-3.9697,-3.9697,-3.9697,-3.9697,-3.9697,-3.9697,-3.9572,-3.8994,-3.8366,-3.7839,-3.745,-3.6631,-3.6417,-3.6417,-3.6417,-3.6417,-3.6417,-3.6593,-3.6862,-3.7302,-3.7874,-3.8514,-3.8901,-3.8614,-3.7971,-3.78,-3.7812,-3.7037,-3.6752,-3.8089,-3.7529,-3.7758,-3.8089,-3.8202,-3.8202,-3.8202,-3.8202,-3.8202,-3.8202,-3.8202,-3.8202,-3.8202,-3.8202,-3.8202,-3.8202,-3.8202,-3.8202,-3.8202,-3.8202,-3.8202,-3.8202,-3.8202,-3.8202,-3.8202,-3.8202,-3.8202,-3.8202,-3.8202,-3.8202,-3.8202,-3.8202,-3.8202,-3.8202,-3.8202,-3.8202,-3.8202,-3.8202,-3.8202,-3.8202,-3.8202,-3.8202,-3.8202,-3.8202,-3.8202,-3.8075,-3.7834,-3.7438,-3.6922,-3.6082,-3.5359,-3.4634,-3.3894,-3.3167,-3.3124,-3.3124,-3.3124,-3.3124,-3.3124,-3.3124,-3.3124,-3.3124,-3.3124,-3.3124,-3.3124,-3.3124,-3.3124,-3.3124,-3.3124,-3.3124,-3.3124,-3.3124,-3.9697,-3.9697,-3.9697,-3.9697,-3.9697,-3.9697,-3.9697,-3.9697,-3.9697,-3.9697,-3.9697,-3.9697,-3.9697,-3.9697,-3.9697,-3.9697,-3.9697,-3.9697,-3.9697,-3.9697,-3.9584,-3.8994,-3.8354,-3.7839,-3.745,-3.6656,-3.6417,-3.6417,-3.6417,-3.6417,-3.6417,-3.6417,-3.6465,-3.6862,-3.7256,-3.7939,-3.8282,-3.8033,-3.731,-3.725,-3.7359,-3.6389,-3.6192,-3.7485,-3.7208,-3.7453,-3.7962,-3.8202,-3.8202,-3.8202,-3.8202,-3.8202,-3.8202,-3.8202,-3.8202,-3.8202,-3.8202,-3.8202,-3.8202,-3.8202,-3.8202,-3.8202,-3.8202,-3.8202,-3.8202,-3.8202,-3.8202,-3.8202,-3.8202,-3.8202,-3.8202,-3.8202,-3.8202,-3.8202,-3.8202,-3.8202,-3.8202,-3.8202,-3.8202,-3.8202,-3.8202,-3.8202,-3.8202,-3.8202,-3.8202,-3.8052,-3.7682,-3.7848,-3.8075,-3.7796,-3.7323,-3.6819,-3.6136,-3.5413,-3.4786,-3.3894,-3.3124,-3.3124,-3.3124,-3.3124,-3.3124,-3.3124,-3.3124,-3.3124,-3.3124,-3.3124,-3.3124,-3.3124,-3.3124,-3.3124,-3.3124,-3.3124,-3.3124,-3.3124,-3.3124,-3.9697,-3.9697,-3.9697,-3.9697,-3.9697,-3.9697,-3.9697,-3.9697,-3.9697,-3.9697,-3.9697,-3.9697,-3.9697,-3.9697,-3.9697,-3.9697,-3.9697,-3.9697,-3.9697,-3.9697,-3.9672,-3.8994,-3.8366,-3.7852,-3.7437,-3.6656,-3.6417,-3.6417,-3.6417,-3.6417,-3.6417,-3.6417,-3.6417,-3.6499,-3.6487,-3.6499,-3.6943,-3.7475,-3.6317,-3.6509,-3.6716,-3.5862,-3.5925,-3.6761,-3.6805,-3.7078,-3.7962,-3.8202,-3.8202,-3.8202,-3.8202,-3.8202,-3.8202,-3.8202,-3.8202,-3.8202,-3.8202,-3.8202,-3.8202,-3.8202,-3.8202,-3.8202,-3.8202,-3.8202,-3.8202,-3.8202,-3.8202,-3.8202,-3.8202,-3.8202,-3.8202,-3.8202,-3.8202,-3.8202,-3.8202,-3.8202,-3.8202,-3.8202,-3.8202,-3.8202,-3.8202,-3.8202,-3.8202,-3.8202,-3.8202,-3.7924,-3.7337,-3.7362,-3.7796,-3.7796,-3.74,-3.657,-3.5936,-3.5467,-3.4744,-3.3768,-3.3167,-3.3124,-3.3124,-3.3124,-3.3124,-3.3124,-3.3124,-3.3124,-3.3124,-3.3124,-3.3124,-3.3124,-3.3124,-3.3124,-3.3124,-3.3124,-3.3124,-3.3124,-3.3124,-3.9697,-3.9697,-3.9697,-3.9697,-3.9697,-3.9697,-3.9697,-3.9697,-3.9697,-3.9697,-3.9697,-3.9697,-3.9697,-3.9697,-3.9697,-3.9697,-3.9697,-3.9697,-3.9697,-3.9697,-3.9659,-3.8956,-3.8304,-3.7852,-3.7387,-3.6694,-3.6417,-3.6417,-3.6417,-3.6417,-3.6417,-3.6417,-3.6417,-3.6417,-3.6405,-3.6417,-3.6628,-3.6667,-3.6084,-3.5787,-3.6214,-3.5288,-3.5142,-3.6679,-3.6308,-3.6713,-3.7962,-3.8089,-3.8127,-3.8202,-3.8202,-3.8202,-3.8202,-3.8202,-3.8202,-3.8202,-3.8202,-3.8202,-3.8202,-3.8202,-3.8202,-3.8202,-3.8202,-3.8202,-3.8202,-3.8202,-3.8202,-3.8202,-3.8202,-3.8202,-3.8202,-3.8202,-3.8202,-3.8202,-3.8202,-3.8202,-3.8202,-3.8202,-3.8202,-3.8202,-3.8202,-3.8202,-3.8202,-3.8202,-3.8202,-3.8113,-3.7606,-3.7169,-3.7362,-3.772,-3.7591,-3.6464,-3.5669,-3.5291,-3.4703,-3.3725,-3.321,-3.3124,-3.3124,-3.3124,-3.3124,-3.3124,-3.3124,-3.3124,-3.3124,-3.3124,-3.3124,-3.3124,-3.3124,-3.3124,-3.3124,-3.3124,-3.3124,-3.3124,-3.3124,-3.9233,-3.9408,-3.9408,-3.9521,-3.9672,-3.9697,-3.9697,-3.9697,-3.9697,-3.9697,-3.9697,-3.9697,-3.9697,-3.9697,-3.9697,-3.9697,-3.9697,-3.9697,-3.9697,-3.9659,-3.9459,-3.8806,-3.8216,-3.7764,-3.7161,-3.6606,-3.6417,-3.6417,-3.6417,-3.6417,-3.6417,-3.6417,-3.6417,-3.6417,-3.6417,-3.6417,-3.6417,-3.6411,-3.6062,-3.5823,-3.566,-3.5098,-3.49,-3.5652,-3.5845,-3.5963,-3.7208,-3.781,-3.7924,-3.8089,-3.8202,-3.8202,-3.8202,-3.8202,-3.8202,-3.8202,-3.8202,-3.8202,-3.8202,-3.8202,-3.8202,-3.8202,-3.8202,-3.8202,-3.8202,-3.8202,-3.8202,-3.8202,-3.8202,-3.8202,-3.8202,-3.8202,-3.8202,-3.8202,-3.8202,-3.8202,-3.8202,-3.8202,-3.8202,-3.8202,-3.8202,-3.8202,-3.8202,-3.8202,-3.8202,-3.8075,-3.7872,-3.74,-3.6936,-3.7078,-3.7155,-3.6108,-3.5278,-3.4937,-3.4426,-3.3738,-3.3295,-3.3124,-3.3124,-3.3124,-3.3124,-3.3124,-3.3124,-3.3124,-3.3124,-3.3124,-3.3124,-3.3124,-3.3124,-3.3124,-3.3124,-3.3124,-3.3124,-3.3124,-3.3124,-3.8341,-3.8818,-3.8894,-3.9132,-3.9572,-3.9509,-3.9584,-3.9685,-3.9697,-3.9697,-3.9697,-3.9697,-3.9697,-3.9697,-3.9697,-3.9697,-3.9697,-3.9697,-3.9622,-3.9484,-3.917,-3.853,-3.7965,-3.745,-3.7008,-3.6631,-3.6417,-3.6417,-3.6417,-3.6417,-3.6417,-3.6417,-3.6417,-3.6417,-3.6417,-3.6417,-3.6417,-3.6367,-3.6292,-3.5961,-3.5549,-3.5012,-3.4968,-3.5231,-3.5077,-3.5588,-3.6584,-3.713,-3.7529,-3.7886,-3.8202,-3.8202,-3.8202,-3.8202,-3.8202,-3.8202,-3.8202,-3.8202,-3.8202,-3.8202,-3.8202,-3.8202,-3.8202,-3.8202,-3.8202,-3.8202,-3.8202,-3.8202,-3.8202,-3.8202,-3.8202,-3.8202,-3.8202,-3.8202,-3.8202,-3.8202,-3.8202,-3.8202,-3.8202,-3.8202,-3.8202,-3.8202,-3.8202,-3.8202,-3.8089,-3.8,-3.772,-3.7025,-3.6557,-3.6108,-3.6029,-3.54,-3.4718,-3.4454,-3.3979,-3.3454,-3.3295,-3.3124,-3.3124,-3.3124,-3.3124,-3.3124,-3.3124,-3.3124,-3.3124,-3.3124,-3.3124,-3.3124,-3.3124,-3.3124,-3.3124,-3.3124,-3.3124,-3.3124,-3.3124,-3.8115,-3.8253,-3.8253,-3.8354,-3.8479,-3.8492,-3.8931,-3.9634,-3.9697,-3.9697,-3.9697,-3.9697,-3.9634,-3.9697,-3.9697,-3.9697,-3.9697,-3.9634,-3.9383,-3.9196,-3.8831,-3.8203,-3.7663,-3.7211,-3.687,-3.6581,-3.6417,-3.6417,-3.6417,-3.6417,-3.6417,-3.6417,-3.6417,-3.6417,-3.6417,-3.6417,-3.6417,-3.6417,-3.6417,-3.6031,-3.5508,-3.4956,-3.4946,-3.4848,-3.4559,-3.529,-3.6334,-3.678,-3.7299,-3.8,-3.8202,-3.8202,-3.8202,-3.8202,-3.8202,-3.8202,-3.8202,-3.8202,-3.8202,-3.8202,-3.8202,-3.8202,-3.8202,-3.8202,-3.8202,-3.8202,-3.8202,-3.8202,-3.8202,-3.8202,-3.8202,-3.8202,-3.8202,-3.8202,-3.8202,-3.8202,-3.8202,-3.8202,-3.8202,-3.8202,-3.8202,-3.8075,-3.8075,-3.8037,-3.7924,-3.7886,-3.7477,-3.6674,-3.6108,-3.5669,-3.5074,-3.447,-3.4288,-3.4021,-3.3696,-3.321,-3.3167,-3.3124,-3.3124,-3.3124,-3.3124,-3.3124,-3.3124,-3.3124,-3.3124,-3.3124,-3.3124,-3.3124,-3.3124,-3.3124,-3.3124,-3.3124,-3.3124,-3.3124,-3.3124,-3.75,-3.7663,-3.7676,-3.7801,-3.799,-3.8002,-3.8442,-3.8969,-3.9032,-3.9019,-3.9057,-3.9258,-3.9371,-3.9383,-3.9559,-3.9685,-3.9672,-3.9396,-3.9157,-3.8982,-3.8442,-3.7826,-3.7312,-3.6948,-3.6694,-3.6493,-3.6417,-3.6417,-3.6417,-3.6417,-3.6417,-3.6417,-3.6417,-3.6417,-3.6417,-3.6417,-3.6417,-3.6417,-3.6342,-3.6006,-3.5542,-3.4956,-3.4825,-3.4571,-3.4203,-3.4962,-3.6162,-3.6413,-3.7039,-3.7962,-3.8202,-3.8202,-3.8202,-3.8202,-3.8202,-3.8202,-3.8202,-3.8202,-3.8202,-3.8202,-3.8202,-3.8202,-3.8202,-3.8202,-3.8202,-3.8202,-3.8202,-3.8202,-3.8202,-3.8202,-3.8202,-3.8202,-3.8202,-3.8202,-3.8202,-3.8202,-3.8202,-3.8202,-3.8202,-3.8202,-3.8113,-3.791,-3.7834,-3.7758,-3.74,-3.6844,-3.6281,-3.5615,-3.5251,-3.5087,-3.44,-3.3725,-3.3683,-3.3611,-3.3283,-3.3124,-3.3124,-3.3124,-3.3124,-3.3124,-3.3124,-3.3124,-3.3124,-3.3124,-3.3124,-3.3124,-3.3124,-3.3124,-3.3124,-3.3124,-3.3124,-3.3124,-3.3124,-3.3124,-3.3124,-3.6719,-3.7111,-3.7111,-3.7374,-3.7839,-3.7801,-3.7839,-3.7877,-3.7877,-3.7952,-3.814,-3.858,-3.8856,-3.8856,-3.9132,-3.932,-3.9195,-3.8944,-3.8668,-3.8756,-3.7864,-3.7262,-3.6973,-3.6646,-3.6531,-3.6443,-3.6417,-3.6417,-3.6417,-3.6417,-3.6417,-3.6417,-3.6417,-3.6417,-3.6417,-3.6417,-3.6417,-3.6417,-3.6342,-3.6094,-3.5542,-3.4956,-3.4417,-3.3954,-3.3766,-3.3924,-3.5183,-3.5949,-3.6385,-3.7553,-3.8202,-3.8202,-3.8202,-3.8202,-3.8202,-3.8202,-3.8202,-3.8202,-3.8202,-3.8202,-3.8202,-3.8202,-3.8202,-3.8202,-3.8202,-3.8202,-3.8202,-3.8202,-3.8202,-3.8202,-3.8202,-3.8202,-3.8202,-3.8202,-3.8202,-3.8202,-3.8202,-3.8202,-3.8202,-3.8202,-3.8165,-3.7924,-3.7362,-3.7246,-3.7,-3.6002,-3.5251,-3.4744,-3.4509,-3.4468,-3.3937,-3.3197,-3.3283,-3.3368,-3.3253,-3.3124,-3.3124,-3.3124,-3.3124,-3.3124,-3.3124,-3.3124,-3.3124,-3.3124,-3.3124,-3.3124,-3.3124,-3.3124,-3.3124,-3.3124,-3.3124,-3.3124,-3.3124,-3.3124,-3.3124,-3.6493,-3.6593,-3.6606,-3.6694,-3.6747,-3.6795,-3.682,-3.6795,-3.6807,-3.7236,-3.7914,-3.8128,-3.8216,-3.8278,-3.8442,-3.8555,-3.8442,-3.8354,-3.7977,-3.7764,-3.7236,-3.691,-3.6719,-3.6531,-3.6417,-3.6417,-3.6417,-3.6417,-3.6417,-3.6417,-3.6417,-3.6417,-3.6417,-3.6417,-3.6417,-3.6417,-3.6417,-3.6417,-3.638,-3.6044,-3.542,-3.4931,-3.4449,-3.3897,-3.3555,-3.4034,-3.5033,-3.5669,-3.6674,-3.7848,-3.8127,-3.8202,-3.8202,-3.8202,-3.8202,-3.8202,-3.8202,-3.8202,-3.8202,-3.8202,-3.8202,-3.8202,-3.8202,-3.8202,-3.8202,-3.8202,-3.8202,-3.8202,-3.8202,-3.8202,-3.8202,-3.8202,-3.8202,-3.8202,-3.8202,-3.8202,-3.8202,-3.8202,-3.8202,-3.8202,-3.8202,-3.7772,-3.713,-3.6649,-3.6373,-3.5776,-3.4991,-3.4397,-3.4105,-3.3992,-3.3696,-3.3167,-3.3167,-3.3167,-3.3124,-3.3124,-3.3124,-3.3124,-3.3124,-3.3124,-3.3124,-3.3124,-3.3124,-3.3124,-3.3124,-3.3124,-3.3124,-3.3124,-3.3124,-3.3124,-3.3124,-3.3124,-3.3124,-3.3124,-3.3124,-3.6417,-3.6417,-3.6417,-3.6417,-3.6417,-3.6417,-3.6417,-3.6417,-3.6417,-3.6744,-3.7274,-3.75,-3.7638,-3.7739,-3.7877,-3.7939,-3.7902,-3.7739,-3.7563,-3.7262,-3.6958,-3.6646,-3.6493,-3.6417,-3.6417,-3.6417,-3.6417,-3.6417,-3.6417,-3.6417,-3.6417,-3.6417,-3.6417,-3.6417,-3.6417,-3.6417,-3.6417,-3.6417,-3.6417,-3.5943,-3.5295,-3.4806,-3.4248,-3.3684,-3.3571,-3.4121,-3.4992,-3.5709,-3.6674,-3.7682,-3.8165,-3.8202,-3.8202,-3.8202,-3.8202,-3.8202,-3.8202,-3.8202,-3.8202,-3.8202,-3.8202,-3.8202,-3.8202,-3.8202,-3.8202,-3.8202,-3.8202,-3.8202,-3.8202,-3.8202,-3.8202,-3.8202,-3.8202,-3.8202,-3.8202,-3.8202,-3.8202,-3.8202,-3.8202,-3.8202,-3.8089,-3.781,-3.713,-3.6281,-3.5883,-3.506,-3.4356,-3.3907,-3.3666,-3.3624,-3.3295,-3.3124,-3.3124,-3.3124,-3.3124,-3.3124,-3.3124,-3.3124,-3.3124,-3.3124,-3.3124,-3.3124,-3.3124,-3.3124,-3.3124,-3.3124,-3.3124,-3.3124,-3.3124,-3.3124,-3.3124,-3.3124,-3.3124,-3.3124,-3.3124,-3.6417,-3.6417,-3.6417,-3.6417,-3.6417,-3.6417,-3.6417,-3.6417,-3.6417,-3.6417,-3.6543,-3.6923,-3.7061,-3.7262,-3.7538,-3.7688,-3.7638,-3.7236,-3.7061,-3.6971,-3.6656,-3.6518,-3.6468,-3.6417,-3.6417,-3.6417,-3.6417,-3.6417,-3.6417,-3.6417,-3.6417,-3.6417,-3.6417,-3.6417,-3.6417,-3.6417,-3.6417,-3.6417,-3.6267,-3.573,-3.5203,-3.4643,-3.406,-3.3495,-3.324,-3.3995,-3.5074,-3.5869,-3.6582,-3.7477,-3.8202,-3.8202,-3.8202,-3.8202,-3.8202,-3.8202,-3.8202,-3.8202,-3.8202,-3.8202,-3.8202,-3.8202,-3.8202,-3.8202,-3.8202,-3.8202,-3.8202,-3.8202,-3.8202,-3.8202,-3.8202,-3.8202,-3.8202,-3.8202,-3.8202,-3.8202,-3.8202,-3.8202,-3.8202,-3.8202,-3.8,-3.7772,-3.7039,-3.6227,-3.5359,-3.4496,-3.3865,-3.3411,-3.3167,-3.3295,-3.321,-3.3124,-3.3124,-3.3124,-3.3124,-3.3124,-3.3124,-3.3124,-3.3124,-3.3124,-3.3124,-3.3124,-3.3124,-3.3124,-3.3124,-3.3124,-3.3124,-3.3124,-3.3124,-3.3124,-3.3124,-3.3124,-3.3124,-3.3124,-3.3124,-3.6417,-3.6417,-3.6417,-3.6417,-3.6417,-3.6417,-3.6417,-3.6417,-3.6417,-3.6417,-3.6443,-3.6468,-3.6568,-3.6581,-3.6631,-3.6795,-3.691,-3.6694,-3.6619,-3.6493,-3.648,-3.6443,-3.6417,-3.6417,-3.6417,-3.6417,-3.6417,-3.6417,-3.6417,-3.6417,-3.6417,-3.6417,-3.6417,-3.6417,-3.6417,-3.6417,-3.6417,-3.6392,-3.6216,-3.5755,-3.5027,-3.4512,-3.4048,-3.3533,-3.3124,-3.4191,-3.5102,-3.5588,-3.6674,-3.7644,-3.8202,-3.8202,-3.8202,-3.8202,-3.8202,-3.8202,-3.8202,-3.8202,-3.8202,-3.8202,-3.8202,-3.8202,-3.8202,-3.8202,-3.8202,-3.8202,-3.8202,-3.8202,-3.8202,-3.8202,-3.8202,-3.8202,-3.8202,-3.8202,-3.8202,-3.8202,-3.8202,-3.8202,-3.8202,-3.8202,-3.8165,-3.7734,-3.7169,-3.632,-3.5386,-3.4524,-3.3696,-3.3283,-3.3124,-3.3124,-3.3124,-3.3124,-3.3124,-3.3124,-3.3124,-3.3124,-3.3124,-3.3124,-3.3124,-3.3124,-3.3124,-3.3124,-3.3124,-3.3124,-3.3124,-3.3124,-3.3124,-3.3124,-3.3124,-3.3124,-3.3124,-3.3124,-3.3124,-3.3124,-3.3124]},{"header":{"parameterUnit":"m.s-1","parameterCategory":1,"la1":31.0,"la2":29.5877,"lo1":-88.7671,"lo2":-86.6584,"dy":0.0162,"dx":0.0185,"nx":115,"ny":88,"refTime":"2026-03-17T12:00:00:Z","depth":0,"parameterNumber":3,"parameterNumberName":"V-component_of_WINDS"},"data":[0.0,0.0,0.0,0.0,0.0,0.0,0.0,0.0,0.0,0.0,0.0,0.0,0.0,0.0,0.0,0.0,0.0,0.0,0.0,0.0,0.0,0.0,0.0,0.0,0.0,0.0,0.0,0.0,0.0,0.0,0.0,0.0,0.0,0.0,0.0,0.0,0.0,0.0,0.0,0.0,0.0,0.0,0.0,0.0,0.0,0.0,0.0,0.0,0.0,0.0,0.0,0.0,0.0,0.0,0.0,0.0,0.0,0.0,0.0,0.0,0.0,0.0,0.0,0.0,0.0,0.0,0.0,0.0,0.0,0.0,0.0,0.0,0.0,0.0,0.0,0.0,0.0,0.0,0.0,0.0,0.0,0.0,0.0,0.0,0.0,0.0,0.0,0.0,0.0,0.0,0.0,0.0,0.0,0.0,0.0,0.0,0.0,0.0,0.0,0.0,0.0,0.0,0.0,0.0,0.0,0.0,0.0,0.0,0.0,0.0,0.0,0.0,0.0,0.0,0.0,0.0,0.0,0.0,0.0,0.0,0.0,0.0,0.0,0.0,0.0,0.0,0.0,0.0,0.0,0.0,0.0,0.0,0.0,0.0,0.0,0.0,0.0,0.0,0.0,0.0,0.0,0.0,0.0,0.0,0.0,0.0,0.0,0.0,0.0,0.0,0.0,0.0,0.0,0.0,0.0,0.0,0.0,0.0,0.0,0.0,0.0,0.0,0.0,0.0,0.0,0.0,0.0,0.0,0.0,0.0,0.0,0.0,0.0,0.0,0.0,0.0,0.0,0.0,0.0,0.0,0.0,0.0,0.0,0.0,0.0,0.0,0.0,0.0,0.0,0.0,0.0,0.0,0.0,0.0,0.0,0.0,0.0,0.0,0.0,0.0,0.0,0.0,0.0,0.0,0.0,0.0,0.0,0.0,0.0,0.0,0.0,0.0,0.0,0.0,0.0,0.0,0.0,0.0,0.0,0.0,0.0,0.0,0.0,0.0,0.0,0.0,0.0,0.0,0.0,0.0,0.0,0.0,0.0,0.0,0.0,0.0,0.0,0.0,0.0,0.0,0.0,0.0,0.0,0.0,0.0,0.0,0.0,0.0,0.0,0.0,0.0,0.0,0.0,0.0,0.0,0.0,0.0,0.0,0.0,0.0,0.0,0.0,0.0,0.0,0.0,0.0,0.0,0.0,0.0,0.0,0.0,0.0,0.0,0.0,0.0,0.0,0.0,0.0,0.0,0.0,0.0,0.0,0.0,0.0,0.0,0.0,0.0,0.0,0.0,0.0,0.0,0.0,0.0,0.0,0.0,0.0,0.0,0.0,0.0,0.0,0.0,0.0,0.0,0.0,0.0,0.0,0.0,0.0,0.0,0.0,0.0,0.0,0.0,0.0,0.0,0.0,0.0,0.0,0.0,0.0,0.0,0.0,0.0,0.0,0.0,0.0,0.0,0.0,0.0,0.0,0.0,0.0,0.0,0.0,0.0,0.0,0.0,0.0,0.0,0.0,0.0,0.0,0.0,0.0,0.0,0.0,0.0,0.0,0.0,0.0,0.0,0.0,0.0,0.0,0.0,0.0,0.0,0.0,0.0,0.0,0.0,0.0,0.0,0.0,0.0,0.0,0.0,0.0,0.0,0.0,0.0,0.0,0.0,0.0,0.0,0.0,0.0,0.0,0.0,0.0,0.0,0.0,0.0,0.0,0.0,0.0,0.0,0.0,0.0,0.0,0.0,0.0,0.0,0.0,0.0,0.0,0.0,0.0,0.0,0.0,0.0,0.0,0.0,0.0,0.0,0.0,0.0,0.0,0.0,0.0,0.0,0.0,0.0,0.0,0.0,0.0,0.0,0.0,0.0,0.0,0.0,0.0,0.0,0.0,0.0,0.0,0.0,0.0,0.0,0.0,0.0,0.0,0.0,0.0,0.0,0.0,0.0,0.0,0.0,0.0,0.0,0.0,0.0,0.0,0.0,0.0,0.0,0.0,0.0,0.0,0.0,0.0,0.0,0.0,0.0,0.0,0.0,0.0,0.0,0.0,0.0,0.0,0.0,0.0,0.0,0.0,0.0,0.0,0.0,0.0,0.0,0.0,0.0,0.0,0.0,0.0,0.0,0.0,0.0,0.0,0.0,0.0,0.0,0.0,0.0,0.0,0.0,0.0,0.0,0.0,0.0,0.0,0.0,0.0,0.0,0.0,0.0,0.0,0.0,0.0,0.0,0.0,0.0,0.0,0.0,0.0,0.0,0.0,0.0,0.0,0.0,0.0,0.0,0.0,0.0,0.0,0.0,0.0,0.0,0.0,0.0,0.0,0.0,0.0,0.0,0.0,0.0,0.0,0.0,0.0,0.0,0.0,0.0,0.0,0.0,0.0,0.0,0.0,0.0,0.0,0.0,0.0,0.0,0.0,0.0,0.0,0.0,0.0,0.0,0.0,0.0,0.0,0.0,0.0,0.0,0.0,0.0,0.0,0.0,0.0,0.0,0.0,0.0,0.0,0.0,0.0,0.0,0.0,0.0,0.0,0.0,0.0,0.0,0.0,0.0,0.0,0.0,0.0,0.0,0.0,0.0,0.0,0.0,0.0,0.0,0.0,0.0,0.0,0.0,0.0,0.0,0.0,0.0,0.0,0.0,0.0,0.0,0.0,0.0,0.0,0.0,0.0,0.0,0.0,0.0,0.0,0.0,0.0,0.0,0.0,0.0,0.0,0.0,0.0,0.0,0.0,0.0,0.0,0.0,0.0,0.0,0.0,0.0,0.0,0.0,0.0,0.0,0.0,0.0,0.0,0.0,0.0,0.0,0.0,0.0,0.0,0.0,0.0,0.0,0.0,0.0,0.0,0.0,0.0,0.0,0.0,0.0,0.0,0.0,0.0,0.0,0.0,0.0,0.0,0.0,0.0,0.0,0.0,0.0,0.0,0.0,0.0,0.0,0.0,0.0,0.0,0.0,0.0,0.0,0.0,0.0,0.0,0.0,0.0,0.0,0.0,0.0,0.0,0.0,0.0,0.0,0.0,0.0,0.0,0.0,0.0,0.0,0.0,0.0,0.0,0.0,0.0,0.0,0.0,0.0,0.0,0.0,0.0,0.0,0.0,0.0,0.0,0.0,0.0,0.0,0.0,0.0,0.0,0.0,0.0,0.0,0.0,0.0,0.0,0.0,0.0,0.0,0.0,0.0,0.0,0.0,0.0,0.0,0.0,0.0,0.0,0.0,0.0,0.0,0.0,0.0,0.0,0.0,0.0,0.0,0.0,0.0,0.0,0.0,0.0,0.0,0.0,0.0,0.0,0.0,0.0,0.0,0.0,0.0,0.0,0.0,0.0,0.0,0.0,0.0,0.0,0.0,0.0,0.0,0.0,0.0,0.0,0.0,0.0,0.0,0.0,0.0,0.0,0.0,0.0,0.0,0.0,0.0,0.0,0.0,0.0,0.0,0.0,0.0,0.0,0.0,0.0,0.0,0.0,0.0,0.0,0.0,0.0,0.0,0.0,0.0,0.0,0.0,0.0,0.0,0.0,0.0,0.0,0.0,0.0,0.0,0.0,0.0,0.0,0.0,0.0,0.0,0.0,0.0,0.0,0.0,0.0,0.0,0.0,0.0,0.0,0.0,0.0,0.0,0.0,0.0,0.0,0.0,0.0,0.0,0.0,0.0,0.0,0.0,0.0,0.0,0.0,0.0,0.0,0.0,0.0,0.0,0.0,0.0,0.0,0.0,0.0,0.0,0.0,0.0,0.0,0.0,0.0,0.0,0.0,0.0,0.0,0.0,0.0,0.0,0.0,0.0,0.0,0.0,0.0,0.0,0.0,0.0,0.0,0.0,0.0,0.0,0.0,0.0,0.0,0.0,0.0,0.0,0.0,0.0,0.0,0.0,0.0,0.0,0.0,0.0,0.0,0.0,0.0,0.0,0.0,0.0,0.0,0.0,0.0,0.0,0.0,0.0,0.0,0.0,0.0,0.0,0.0,0.0,0.0,0.0,0.0,0.0,0.0,0.0,0.0,0.0,0.0,0.0,0.0,0.0,0.0,0.0,0.0,0.0,0.0,0.0,0.0,0.0,0.0,0.0,0.0,0.0,0.0,0.0,0.0,0.0,0.0,0.0,0.0,0.0,0.0,0.0,0.0,0.0,0.0,0.0,0.0,0.0,0.0,0.0,0.0,0.0,0.0,0.0,0.0,0.0,0.0,0.0,0.0,0.0,0.0,0.0,0.0,0.0,0.0,0.0,0.0,0.0,0.0,0.0,0.0,0.0,0.0,0.0,0.0,-1.3767,0.0,0.0,0.0,0.0,0.0,0.0,0.0,0.0,0.0,0.0,0.0,0.0,0.0,0.0,0.0,0.0,0.0,0.0,0.0,0.0,0.0,0.0,0.0,0.0,0.0,0.0,0.0,0.0,0.0,0.0,0.0,0.0,0.0,0.0,0.0,0.0,0.0,0.0,0.0,0.0,0.0,0.0,0.0,0.0,0.0,0.0,0.0,0.0,0.0,0.0,0.0,0.0,0.0,0.0,0.0,0.0,0.0,0.0,0.0,0.0,0.0,0.0,0.0,0.0,0.0,0.0,0.0,0.0,0.0,0.0,0.0,0.0,0.0,0.0,0.0,0.0,0.0,0.0,0.0,0.0,0.0,0.0,0.0,0.0,0.0,0.0,0.0,0.0,0.0,0.0,0.0,0.0,0.0,0.0,0.0,0.0,0.0,0.0,0.0,0.0,0.0,0.0,0.0,0.0,0.0,0.0,0.0,0.0,0.0,0.0,-1.5026,-1.4921,-1.4336,-1.3997,-1.3981,0.0,0.0,0.0,0.0,0.0,0.0,0.0,0.0,0.0,0.0,0.0,0.0,0.0,0.0,0.0,0.0,0.0,0.0,0.0,0.0,0.0,0.0,0.0,0.0,0.0,0.0,0.0,0.0,0.0,0.0,0.0,0.0,0.0,0.0,0.0,0.0,0.0,0.0,0.0,0.0,0.0,0.0,0.0,0.0,0.0,0.0,0.0,0.0,0.0,0.0,0.0,0.0,0.0,0.0,0.0,0.0,0.0,0.0,0.0,0.0,0.0,0.0,0.0,0.0,0.0,0.0,0.0,0.0,0.0,0.0,0.0,0.0,0.0,0.0,0.0,0.0,0.0,0.0,0.0,0.0,0.0,0.0,0.0,0.0,0.0,0.0,0.0,0.0,0.0,0.0,0.0,0.0,0.0,0.0,0.0,0.0,0.0,0.0,0.0,0.0,0.0,0.0,0.0,0.0,0.0,0.0,0.0,0.0,0.0,0.0,0.0,0.0,-1.4713,-1.4479,-1.4026,0.0,0.0,0.0,0.0,0.0,0.0,0.0,0.0,0.0,0.0,0.0,0.0,0.0,0.0,0.0,0.0,0.0,0.0,0.0,0.0,0.0,0.0,0.0,0.0,0.0,0.0,0.0,0.0,0.0,0.0,0.0,0.0,0.0,0.0,0.0,0.0,0.0,0.0,0.0,0.0,0.0,0.0,0.0,0.0,0.0,0.0,0.0,0.0,0.0,0.0,0.0,0.0,0.0,0.0,0.0,0.0,0.0,0.0,0.0,0.0,0.0,0.0,0.0,0.0,0.0,0.0,0.0,0.0,0.0,0.0,0.0,0.0,0.0,0.0,0.0,0.0,0.0,0.0,0.0,0.0,0.0,0.0,0.0,0.0,0.0,0.0,0.0,0.0,0.0,0.0,0.0,0.0,0.0,0.0,0.0,0.0,0.0,0.0,0.0,0.0,0.0,0.0,0.0,0.0,0.0,0.0,0.0,0.0,0.0,0.0,-1.4639,-1.5571,-1.5185,0.0,-1.4327,0.0,0.0,0.0,0.0,0.0,0.0,0.0,0.0,0.0,0.0,0.0,0.0,0.0,0.0,0.0,0.0,0.0,0.0,0.0,0.0,0.0,0.0,0.0,0.0,0.0,0.0,0.0,0.0,0.0,0.0,0.0,0.0,0.0,0.0,0.0,0.0,0.0,0.0,0.0,0.0,0.0,0.0,0.0,0.0,0.0,0.0,0.0,0.0,0.0,0.0,0.0,0.0,0.0,0.0,0.0,0.0,0.0,0.0,0.0,0.0,0.0,0.0,0.0,0.0,0.0,0.0,0.0,0.0,0.0,0.0,0.0,0.0,0.0,0.0,0.0,0.0,0.0,0.0,0.0,0.0,0.0,0.0,0.0,0.0,0.0,0.0,0.0,0.0,0.0,0.0,0.0,0.0,0.0,0.0,0.0,0.0,0.0,0.0,0.0,0.0,0.0,0.0,0.0,0.0,0.0,0.0,0.0,0.0,0.0,0.0,0.0,-1.5273,-1.51,-1.4785,0.0,0.0,0.0,0.0,0.0,0.0,0.0,0.0,0.0,0.0,0.0,0.0,0.0,0.0,0.0,0.0,0.0,0.0,0.0,0.0,0.0,0.0,0.0,0.0,0.0,0.0,0.0,0.0,0.0,0.0,0.0,0.0,0.0,0.0,0.0,0.0,0.0,0.0,0.0,0.0,0.0,0.0,0.0,0.0,0.0,0.0,0.0,0.0,0.0,0.0,0.0,0.0,0.0,0.0,0.0,0.0,0.0,0.0,0.0,0.0,0.0,0.0,0.0,0.0,0.0,0.0,0.0,0.0,0.0,0.0,0.0,0.0,0.0,0.0,0.0,0.0,0.0,0.0,0.0,0.0,0.0,0.0,0.0,0.0,0.0,0.0,0.0,0.0,0.0,0.0,0.0,0.0,0.0,0.0,0.0,0.0,0.0,0.0,0.0,0.0,0.0,0.0,0.0,0.0,0.0,0.0,0.0,0.0,0.0,0.0,-1.4987,0.0,-1.513,-1.512,-1.4852,-1.4224,0.0,0.0,0.0,0.0,0.0,0.0,0.0,0.0,0.0,0.0,0.0,0.0,0.0,0.0,0.0,0.0,0.0,0.0,0.0,0.0,0.0,0.0,0.0,0.0,0.0,0.0,0.0,0.0,0.0,0.0,0.0,0.0,0.0,0.0,0.0,0.0,0.0,0.0,0.0,0.0,0.0,0.0,0.0,0.0,0.0,0.0,0.0,0.0,0.0,0.0,0.0,0.0,0.0,0.0,0.0,0.0,0.0,0.0,0.0,0.0,0.0,0.0,0.0,0.0,0.0,0.0,0.0,0.0,0.0,0.0,0.0,0.0,0.0,0.0,0.0,0.0,0.0,0.0,0.0,0.0,0.0,0.0,0.0,0.0,0.0,0.0,0.0,0.0,0.0,0.0,0.0,0.0,0.0,0.0,0.0,0.0,0.0,0.0,0.0,0.0,0.0,0.0,0.0,0.0,0.0,0.0,0.0,0.0,0.0,-1.5018,-1.4702,-1.5379,-1.5447,-1.5012,0.0,0.0,0.0,0.0,0.0,0.0,0.0,0.0,0.0,0.0,0.0,0.0,0.0,0.0,0.0,0.0,0.0,0.0,0.0,0.0,0.0,0.0,0.0,0.0,0.0,0.0,0.0,0.0,0.0,0.0,0.0,0.0,0.0,0.0,0.0,0.0,0.0,0.0,0.0,0.0,0.0,0.0,0.0,0.0,0.0,0.0,0.0,0.0,0.0,0.0,0.0,0.0,0.0,0.0,0.0,0.0,0.0,0.0,0.0,0.0,0.0,0.0,0.0,0.0,0.0,0.0,0.0,0.0,0.0,0.0,0.0,0.0,0.0,0.0,0.0,0.0,0.0,0.0,0.0,0.0,0.0,0.0,0.0,0.0,0.0,0.0,0.0,0.0,0.0,0.0,0.0,0.0,0.0,0.0,0.0,0.0,0.0,0.0,0.0,0.0,0.0,0.0,0.0,0.0,0.0,0.0,0.0,0.0,0.0,-1.4573,-1.4687,-1.5167,-1.5986,-1.5186,-1.4543,0.0,0.0,0.0,0.0,0.0,0.0,0.0,0.0,0.0,0.0,0.0,0.0,0.0,0.0,0.0,0.0,0.0,0.0,0.0,0.0,0.0,0.0,0.0,0.0,0.0,0.0,0.0,0.0,0.0,0.0,0.0,0.0,0.0,0.0,0.0,0.0,0.0,0.0,0.0,0.0,0.0,0.0,0.0,0.0,0.0,0.0,0.0,0.0,0.0,0.0,0.0,0.0,0.0,0.0,0.0,0.0,0.0,0.0,0.0,0.0,0.0,0.0,0.0,0.0,0.0,0.0,0.0,0.0,0.0,0.0,0.0,0.0,0.0,0.0,0.0,0.0,0.0,0.0,0.0,0.0,0.0,0.0,0.0,0.0,0.0,0.0,0.0,0.0,0.0,0.0,0.0,0.0,0.0,0.0,0.0,0.0,0.0,0.0,0.0,0.0,0.0,0.0,0.0,0.0,0.0,0.0,0.0,0.0,0.0,-1.4076,0.0,-1.5635,0.0,-1.5018,-1.4252,0.0,0.0,0.0,0.0,0.0,0.0,0.0,0.0,0.0,0.0,0.0,0.0,0.0,0.0,0.0,0.0,0.0,0.0,0.0,0.0,0.0,0.0,0.0,0.0,0.0,0.0,0.0,0.0,0.0,0.0,0.0,0.0,0.0,0.0,0.0,0.0,0.0,0.0,0.0,0.0,0.0,0.0,0.0,0.0,0.0,0.0,0.0,0.0,0.0,0.0,0.0,0.0,0.0,0.0,0.0,0.0,0.0,0.0,0.0,0.0,0.0,0.0,0.0,0.0,0.0,0.0,0.0,0.0,0.0,0.0,0.0,0.0,0.0,0.0,0.0,0.0,0.0,0.0,0.0,0.0,0.0,0.0,0.0,0.0,0.0,0.0,0.0,0.0,0.0,0.0,0.0,0.0,0.0,0.0,0.0,0.0,0.0,0.0,0.0,0.0,0.0,0.0,0.0,0.0,0.0,0.0,0.0,0.0,-1.4051,-1.4945,-1.5863,-1.5887,-1.5059,-1.4945,-1.4117,0.0,0.0,0.0,0.0,0.0,0.0,0.0,0.0,0.0,0.0,0.0,0.0,0.0,0.0,0.0,0.0,0.0,0.0,0.0,0.0,0.0,0.0,0.0,0.0,0.0,0.0,0.0,0.0,0.0,0.0,0.0,0.0,0.0,0.0,0.0,0.0,0.0,0.0,0.0,0.0,0.0,0.0,0.0,0.0,0.0,0.0,0.0,0.0,0.0,0.0,0.0,0.0,0.0,0.0,0.0,0.0,0.0,0.0,0.0,0.0,0.0,0.0,0.0,0.0,0.0,0.0,0.0,0.0,0.0,0.0,0.0,0.0,0.0,0.0,0.0,0.0,0.0,0.0,0.0,0.0,0.0,0.0,0.0,0.0,0.0,0.0,0.0,0.0,0.0,0.0,0.0,0.0,0.0,0.0,0.0,0.0,0.0,0.0,0.0,0.0,0.0,0.0,0.0,0.0,0.0,0.0,0.0,0.0,0.0,-1.4086,-1.4945,-1.5442,-1.5459,-1.4231,-1.3755,0.0,0.0,0.0,0.0,0.0,0.0,0.0,0.0,0.0,0.0,0.0,0.0,0.0,0.0,0.0,0.0,0.0,0.0,0.0,0.0,0.0,0.0,0.0,0.0,0.0,0.0,0.0,0.0,0.0,0.0,0.0,0.0,0.0,0.0,0.0,0.0,0.0,0.0,0.0,0.0,0.0,0.0,0.0,0.0,0.0,0.0,0.0,0.0,0.0,0.0,0.0,0.0,0.0,0.0,0.0,0.0,0.0,0.0,0.0,0.0,0.0,0.0,0.0,0.0,0.0,0.0,0.0,0.0,0.0,0.0,0.0,0.0,0.0,0.0,0.0,0.0,0.0,0.0,0.0,0.0,0.0,0.0,0.0,0.0,0.0,0.0,0.0,0.0,0.0,0.0,0.0,0.0,0.0,0.0,0.0,0.0,0.0,0.0,0.0,0.0,0.0,0.0,0.0,0.0,0.0,0.0,0.0,0.0,0.0,-1.449,-1.5452,-1.5991,-1.5949,-1.4821,-1.42,-1.421,0.0,0.0,0.0,0.0,0.0,0.0,0.0,0.0,0.0,0.0,0.0,0.0,0.0,0.0,0.0,0.0,0.0,0.0,0.0,0.0,0.0,0.0,0.0,0.0,0.0,0.0,0.0,0.0,0.0,0.0,0.0,0.0,0.0,0.0,0.0,0.0,0.0,0.0,0.0,0.0,0.0,0.0,0.0,0.0,0.0,0.0,0.0,0.0,0.0,0.0,0.0,0.0,0.0,0.0,0.0,0.0,0.0,0.0,0.0,0.0,0.0,0.0,0.0,0.0,0.0,0.0,0.0,0.0,0.0,0.0,0.0,0.0,0.0,0.0,0.0,0.0,0.0,0.0,0.0,0.0,0.0,0.0,0.0,0.0,0.0,0.0,0.0,0.0,0.0,0.0,0.0,0.0,0.0,0.0,0.0,0.0,0.0,0.0,0.0,0.0,0.0,0.0,0.0,0.0,0.0,0.0,0.0,0.0,-1.5956,-1.7192,-1.744,-1.6568,-1.6423,-1.5349,0.0,0.0,0.0,0.0,0.0,0.0,0.0,0.0,0.0,0.0,0.0,0.0,0.0,0.0,0.0,0.0,0.0,0.0,0.0,0.0,0.0,0.0,0.0,0.0,0.0,0.0,0.0,0.0,0.0,0.0,0.0,0.0,0.0,0.0,0.0,0.0,0.0,0.0,0.0,0.0,0.0,0.0,0.0,0.0,0.0,0.0,0.0,0.0,0.0,0.0,0.0,0.0,0.0,0.0,0.0,0.0,0.0,0.0,0.0,0.0,0.0,0.0,0.0,0.0,0.0,0.0,0.0,0.0,0.0,0.0,0.0,0.0,0.0,0.0,0.0,0.0,0.0,0.0,0.0,0.0,0.0,0.0,0.0,0.0,0.0,0.0,0.0,0.0,0.0,0.0,0.0,0.0,0.0,0.0,0.0,0.0,0.0,0.0,0.0,0.0,0.0,0.0,0.0,0.0,0.0,0.0,0.0,0.0,0.0,-1.8725,-1.9706,-1.9468,-1.7937,-1.6931,-1.6133,0.0,0.0,0.0,0.0,0.0,0.0,0.0,0.0,0.0,0.0,0.0,0.0,0.0,0.0,0.0,0.0,0.0,0.0,0.0,0.0,0.0,0.0,0.0,0.0,0.0,0.0,0.0,0.0,0.0,0.0,0.0,0.0,0.0,0.0,0.0,0.0,0.0,0.0,0.0,0.0,0.0,0.0,0.0,0.0,0.0,0.0,0.0,0.0,0.0,0.0,0.0,0.0,0.0,0.0,0.0,0.0,0.0,0.0,0.0,0.0,0.0,0.0,0.0,0.0,0.0,0.0,0.0,0.0,0.0,0.0,0.0,0.0,0.0,0.0,0.0,0.0,0.0,0.0,0.0,0.0,0.0,0.0,0.0,0.0,0.0,0.0,0.0,0.0,0.0,0.0,0.0,0.0,0.0,0.0,0.0,0.0,0.0,0.0,0.0,0.0,0.0,0.0,0.0,0.0,0.0,0.0,0.0,0.0,-1.8775,-1.9793,-2.1217,-2.1375,-2.0128,-1.879,-1.7594,0.0,0.0,0.0,0.0,0.0,0.0,0.0,0.0,0.0,0.0,0.0,0.0,0.0,0.0,0.0,0.0,0.0,0.0,0.0,0.0,0.0,0.0,0.0,0.0,0.0,0.0,0.0,0.0,0.0,0.0,0.0,0.0,0.0,0.0,0.0,0.0,0.0,0.0,0.0,0.0,0.0,0.0,0.0,0.0,0.0,0.0,0.0,0.0,0.0,0.0,0.0,0.0,0.0,0.0,0.0,0.0,0.0,0.0,0.0,0.0,0.0,0.0,0.0,0.0,0.0,0.0,0.0,0.0,0.0,0.0,0.0,0.0,0.0,0.0,0.0,0.0,0.0,0.0,0.0,0.0,0.0,0.0,0.0,0.0,0.0,0.0,0.0,0.0,0.0,0.0,0.0,0.0,0.0,0.0,0.0,0.0,0.0,0.0,0.0,0.0,0.0,0.0,0.0,0.0,0.0,0.0,0.0,0.0,-1.9432,-2.0149,-2.2234,-2.31,-2.26,-2.1178,-1.9323,0.0,0.0,0.0,0.0,0.0,0.0,0.0,0.0,0.0,0.0,0.0,0.0,0.0,0.0,0.0,0.0,0.0,0.0,0.0,0.0,0.0,0.0,0.0,0.0,0.0,0.0,0.0,0.0,0.0,0.0,0.0,0.0,0.0,0.0,0.0,0.0,0.0,0.0,0.0,0.0,0.0,0.0,0.0,0.0,0.0,0.0,0.0,0.0,0.0,0.0,0.0,0.0,0.0,0.0,0.0,0.0,0.0,0.0,0.0,0.0,0.0,0.0,0.0,0.0,0.0,0.0,0.0,0.0,0.0,0.0,0.0,0.0,0.0,0.0,0.0,0.0,0.0,0.0,0.0,0.0,0.0,0.0,0.0,0.0,0.0,0.0,0.0,0.0,0.0,0.0,0.0,0.0,0.0,0.0,0.0,0.0,0.0,0.0,0.0,0.0,0.0,0.0,0.0,0.0,0.0,0.0,0.0,0.0,-2.0189,-2.2316,-2.3598,-2.4153,-2.3959,-2.165,-1.976,0.0,0.0,0.0,0.0,0.0,0.0,0.0,0.0,0.0,0.0,0.0,0.0,0.0,0.0,0.0,0.0,0.0,0.0,0.0,0.0,0.0,0.0,0.0,0.0,0.0,0.0,0.0,0.0,0.0,0.0,0.0,0.0,0.0,0.0,0.0,0.0,0.0,0.0,0.0,0.0,0.0,0.0,0.0,0.0,0.0,0.0,0.0,0.0,-1.5609,0.0,0.0,0.0,0.0,0.0,0.0,0.0,0.0,0.0,0.0,0.0,0.0,0.0,0.0,0.0,0.0,0.0,0.0,0.0,0.0,0.0,0.0,0.0,0.0,0.0,0.0,0.0,0.0,0.0,0.0,0.0,0.0,0.0,0.0,0.0,0.0,0.0,0.0,0.0,0.0,0.0,0.0,0.0,0.0,0.0,0.0,0.0,0.0,0.0,0.0,0.0,0.0,0.0,0.0,0.0,0.0,0.0,0.0,0.0,-2.1524,-2.3382,-2.4548,-2.499,-2.4657,-2.2945,-2.128,0.0,0.0,0.0,0.0,0.0,0.0,0.0,0.0,0.0,0.0,0.0,0.0,0.0,0.0,0.0,0.0,0.0,0.0,0.0,0.0,0.0,0.0,0.0,0.0,0.0,0.0,0.0,0.0,0.0,0.0,0.0,0.0,0.0,0.0,0.0,0.0,0.0,0.0,0.0,0.0,0.0,0.0,0.0,0.0,0.0,0.0,0.0,0.0,0.0,0.0,0.0,0.0,0.0,0.0,0.0,0.0,0.0,0.0,0.0,0.0,0.0,0.0,0.0,0.0,0.0,0.0,0.0,0.0,0.0,0.0,0.0,0.0,0.0,0.0,0.0,0.0,0.0,0.0,0.0,0.0,0.0,0.0,0.0,0.0,0.0,0.0,0.0,0.0,0.0,0.0,0.0,0.0,0.0,0.0,0.0,0.0,0.0,0.0,0.0,0.0,0.0,0.0,0.0,0.0,0.0,0.0,0.0,-2.1074,-2.3017,-2.4484,-2.5643,-2.5969,-2.5379,-2.4602,-2.3195,-2.0989,0.0,0.0,0.0,0.0,0.0,0.0,0.0,0.0,0.0,0.0,0.0,0.0,0.0,0.0,0.0,0.0,0.0,0.0,0.0,0.0,0.0,0.0,0.0,0.0,0.0,0.0,0.0,0.0,0.0,0.0,0.0,0.0,0.0,0.0,0.0,0.0,0.0,0.0,-1.5278,-1.7489,0.0,0.0,0.0,0.0,0.0,0.0,0.0,0.0,-1.6818,0.0,0.0,0.0,0.0,0.0,0.0,0.0,0.0,0.0,0.0,0.0,0.0,0.0,0.0,0.0,0.0,0.0,0.0,0.0,0.0,0.0,0.0,0.0,0.0,0.0,0.0,0.0,0.0,0.0,0.0,0.0,0.0,0.0,0.0,0.0,0.0,0.0,0.0,0.0,0.0,0.0,0.0,0.0,0.0,0.0,0.0,0.0,0.0,0.0,0.0,0.0,0.0,0.0,0.0,0.0,0.0,-2.151,-2.2097,-2.4059,-2.746,-2.783,-2.7676,-2.7003,-2.6462,-2.4942,-2.2362,0.0,0.0,0.0,0.0,0.0,0.0,0.0,0.0,0.0,0.0,0.0,0.0,0.0,0.0,0.0,0.0,0.0,0.0,0.0,0.0,0.0,0.0,0.0,0.0,0.0,0.0,0.0,0.0,0.0,0.0,0.0,0.0,0.0,0.0,0.0,0.0,0.0,0.0,0.0,-1.9834,-2.0977,0.0,0.0,0.0,0.0,0.0,0.0,0.0,0.0,-1.7285,0.0,0.0,0.0,0.0,0.0,0.0,0.0,0.0,0.0,0.0,0.0,0.0,0.0,0.0,0.0,0.0,0.0,0.0,0.0,0.0,0.0,0.0,0.0,0.0,0.0,0.0,0.0,0.0,0.0,0.0,0.0,0.0,0.0,0.0,0.0,0.0,0.0,0.0,0.0,0.0,0.0,0.0,0.0,0.0,0.0,0.0,0.0,0.0,0.0,0.0,0.0,0.0,0.0,0.0,0.0,-2.2433,-2.3899,-2.5825,-2.8196,-2.8604,-2.8327,-2.7486,-2.6626,-2.5043,0.0,0.0,0.0,0.0,0.0,0.0,0.0,0.0,0.0,0.0,0.0,0.0,0.0,0.0,0.0,0.0,0.0,0.0,0.0,0.0,0.0,0.0,0.0,0.0,0.0,0.0,0.0,0.0,0.0,0.0,0.0,0.0,0.0,0.0,0.0,0.0,0.0,0.0,0.0,0.0,-2.0575,-2.138,-2.1076,0.0,0.0,0.0,0.0,0.0,0.0,-1.9114,-1.8606,0.0,0.0,0.0,0.0,0.0,0.0,0.0,0.0,0.0,0.0,0.0,0.0,0.0,0.0,0.0,0.0,0.0,0.0,0.0,0.0,0.0,0.0,0.0,0.0,0.0,0.0,0.0,0.0,0.0,0.0,0.0,0.0,0.0,0.0,0.0,0.0,0.0,0.0,0.0,0.0,0.0,0.0,0.0,0.0,0.0,0.0,0.0,0.0,0.0,0.0,0.0,0.0,0.0,0.0,0.0,-2.3076,-2.5585,-2.7491,-2.8774,-2.926,-2.8972,-2.7879,-2.6742,-2.5148,0.0,0.0,0.0,0.0,0.0,0.0,0.0,0.0,0.0,0.0,0.0,0.0,0.0,0.0,0.0,0.0,0.0,0.0,0.0,0.0,0.0,0.0,0.0,0.0,0.0,0.0,0.0,0.0,0.0,0.0,0.0,0.0,0.0,0.0,0.0,0.0,0.0,0.0,0.0,0.0,0.0,-2.1956,-2.14,-2.1862,0.0,0.0,0.0,0.0,-2.1143,-2.1303,0.0,0.0,0.0,0.0,0.0,0.0,0.0,0.0,0.0,0.0,0.0,0.0,0.0,0.0,0.0,0.0,0.0,0.0,0.0,0.0,0.0,0.0,0.0,0.0,0.0,0.0,0.0,0.0,0.0,0.0,0.0,0.0,0.0,0.0,0.0,0.0,0.0,0.0,0.0,0.0,0.0,0.0,0.0,0.0,0.0,0.0,0.0,0.0,0.0,0.0,0.0,0.0,0.0,0.0,0.0,0.0,-2.4152,-2.6303,-2.8477,-3.0564,-3.0746,-3.0211,-2.9049,-2.7961,-2.6249,0.0,0.0,0.0,0.0,0.0,0.0,0.0,0.0,0.0,0.0,0.0,0.0,0.0,0.0,0.0,0.0,0.0,0.0,0.0,0.0,0.0,0.0,0.0,0.0,0.0,0.0,0.0,0.0,0.0,0.0,0.0,0.0,0.0,0.0,0.0,0.0,0.0,0.0,0.0,0.0,0.0,-2.4191,-2.3516,-2.3445,-2.3657,0.0,0.0,0.0,-2.4105,-2.5207,0.0,0.0,0.0,0.0,0.0,0.0,0.0,0.0,0.0,0.0,0.0,0.0,0.0,0.0,0.0,0.0,0.0,0.0,0.0,0.0,0.0,0.0,0.0,0.0,0.0,0.0,0.0,0.0,0.0,0.0,0.0,0.0,0.0,0.0,0.0,0.0,0.0,0.0,0.0,0.0,0.0,0.0,0.0,0.0,0.0,0.0,0.0,0.0,0.0,0.0,0.0,0.0,0.0,0.0,0.0,-2.2227,-2.5151,-2.7371,-2.9314,-3.0908,-3.1024,-3.0431,-2.9292,-2.7846,-2.5968,0.0,0.0,0.0,0.0,0.0,0.0,0.0,0.0,0.0,0.0,0.0,0.0,0.0,0.0,0.0,0.0,0.0,0.0,0.0,0.0,0.0,0.0,0.0,0.0,0.0,0.0,0.0,0.0,0.0,0.0,0.0,0.0,0.0,0.0,0.0,0.0,0.0,0.0,0.0,0.0,0.0,0.0,-2.5376,-2.5428,0.0,0.0,0.0,-2.6411,-2.5859,0.0,0.0,0.0,0.0,0.0,0.0,0.0,0.0,0.0,0.0,0.0,0.0,0.0,0.0,0.0,0.0,0.0,0.0,0.0,0.0,0.0,0.0,0.0,0.0,0.0,0.0,0.0,0.0,0.0,0.0,0.0,0.0,0.0,0.0,0.0,0.0,0.0,0.0,0.0,0.0,0.0,0.0,0.0,0.0,0.0,0.0,0.0,0.0,0.0,0.0,0.0,0.0,0.0,0.0,0.0,0.0,0.0,-2.5767,-2.8111,-2.9859,-3.0985,-3.1024,-3.0487,-2.9336,-2.7753,0.0,0.0,0.0,0.0,0.0,0.0,0.0,0.0,0.0,0.0,0.0,0.0,0.0,0.0,0.0,0.0,0.0,0.0,0.0,0.0,0.0,0.0,0.0,0.0,0.0,0.0,0.0,-1.0756,0.0,0.0,0.0,0.0,0.0,0.0,0.0,0.0,0.0,0.0,0.0,0.0,0.0,0.0,-2.4943,-2.6758,-2.7032,-2.7442,0.0,0.0,-2.8547,-2.7709,-2.8304,-2.76,0.0,0.0,0.0,0.0,0.0,0.0,0.0,0.0,0.0,0.0,0.0,0.0,0.0,0.0,0.0,0.0,0.0,0.0,0.0,0.0,0.0,0.0,0.0,0.0,0.0,0.0,0.0,0.0,0.0,0.0,0.0,0.0,0.0,0.0,0.0,0.0,0.0,0.0,0.0,0.0,0.0,0.0,0.0,0.0,0.0,0.0,0.0,0.0,0.0,0.0,0.0,0.0,0.0,0.0,0.0,-2.5728,-2.8111,-2.9836,-3.0934,-3.1024,-3.0438,-2.9349,-2.8111,-2.6106,0.0,0.0,0.0,0.0,0.0,0.0,0.0,0.0,0.0,0.0,0.0,0.0,0.0,0.0,0.0,0.0,0.0,0.0,0.0,0.0,0.0,0.0,0.0,0.0,0.0,0.0,0.0,0.0,0.0,0.0,0.0,0.0,0.0,0.0,0.0,0.0,0.0,0.0,0.0,0.0,0.0,-2.5903,-2.735,-2.7967,-2.8976,0.0,0.0,-2.9684,-3.0163,-3.13,-3.0642,-2.6138,0.0,0.0,0.0,0.0,0.0,0.0,0.0,0.0,0.0,0.0,0.0,0.0,0.0,0.0,0.0,0.0,0.0,0.0,0.0,0.0,0.0,0.0,0.0,0.0,0.0,0.0,0.0,0.0,0.0,0.0,0.0,0.0,0.0,0.0,0.0,0.0,0.0,0.0,0.0,0.0,0.0,0.0,0.0,0.0,0.0,0.0,0.0,0.0,0.0,0.0,0.0,0.0,0.0,-2.2388,-2.5785,-2.8111,-2.9872,-3.0959,-3.1024,-3.0474,-2.9336,-2.8137,-2.6132,0.0,0.0,0.0,0.0,0.0,0.0,0.0,0.0,0.0,0.0,0.0,0.0,0.0,0.0,0.0,0.0,0.0,0.0,0.0,0.0,0.0,0.0,0.0,0.0,0.0,0.0,0.0,0.0,-1.3735,-1.3892,-1.3187,0.0,0.0,0.0,0.0,0.0,0.0,0.0,0.0,0.0,0.0,-2.7126,-2.9637,-2.9828,0.0,0.0,-3.1704,-3.133,-3.1137,-3.121,-3.0133,-2.6752,-2.5181,0.0,0.0,0.0,0.0,0.0,0.0,0.0,0.0,0.0,0.0,0.0,0.0,0.0,0.0,0.0,0.0,0.0,0.0,0.0,0.0,0.0,0.0,0.0,0.0,0.0,0.0,0.0,0.0,0.0,0.0,0.0,0.0,0.0,0.0,0.0,0.0,0.0,0.0,0.0,0.0,0.0,0.0,0.0,0.0,0.0,0.0,0.0,0.0,0.0,0.0,0.0,0.0,-2.2388,-2.5767,-2.8098,-2.9872,-3.0998,-3.1024,-3.0474,-2.9349,-2.8307,-2.6315,0.0,0.0,0.0,0.0,0.0,0.0,0.0,0.0,0.0,0.0,0.0,0.0,0.0,0.0,0.0,0.0,0.0,0.0,0.0,0.0,0.0,0.0,0.0,0.0,0.0,0.0,0.0,0.0,-1.4877,-1.472,-1.3396,0.0,0.0,0.0,0.0,0.0,0.0,0.0,0.0,0.0,0.0,-2.7963,-3.1066,-3.1087,-3.1259,-3.2616,-3.2467,-3.2063,-3.157,-3.1092,-2.9924,-2.7315,0.0,0.0,0.0,0.0,0.0,0.0,0.0,0.0,0.0,0.0,0.0,0.0,0.0,0.0,0.0,0.0,0.0,0.0,0.0,0.0,0.0,0.0,0.0,0.0,0.0,0.0,0.0,0.0,0.0,0.0,-2.066,0.0,0.0,0.0,0.0,0.0,0.0,0.0,0.0,0.0,0.0,0.0,0.0,0.0,0.0,0.0,0.0,0.0,0.0,0.0,0.0,0.0,0.0,0.0,-2.5767,-2.8111,-2.9872,-3.0947,-3.1024,-3.0474,-2.9375,-2.8673,-2.6739,-2.3261,0.0,0.0,0.0,0.0,0.0,0.0,0.0,0.0,0.0,0.0,0.0,0.0,0.0,0.0,0.0,0.0,0.0,0.0,0.0,0.0,0.0,0.0,0.0,0.0,0.0,0.0,-1.5375,-1.4951,-1.3971,0.0,0.0,0.0,0.0,0.0,0.0,0.0,0.0,0.0,0.0,-2.5908,-2.8416,-3.1127,-3.1439,-3.1902,-3.3273,-3.2378,-3.1555,-3.1525,-3.1466,-3.0584,0.0,0.0,0.0,0.0,0.0,0.0,0.0,0.0,0.0,0.0,0.0,0.0,0.0,0.0,0.0,0.0,0.0,0.0,0.0,0.0,0.0,0.0,0.0,0.0,0.0,0.0,0.0,-2.3655,-2.2975,0.0,0.0,0.0,0.0,0.0,0.0,0.0,0.0,0.0,0.0,0.0,-2.4975,-2.572,0.0,0.0,0.0,0.0,0.0,0.0,0.0,0.0,0.0,0.0,0.0,0.0,-2.274,-2.5741,-2.8098,-2.9872,-3.0947,-3.1024,-3.062,-2.9862,-2.8882,-2.6399,-2.2217,0.0,0.0,0.0,0.0,0.0,0.0,0.0,0.0,0.0,0.0,0.0,0.0,0.0,0.0,0.0,0.0,0.0,0.0,0.0,0.0,0.0,0.0,0.0,0.0,0.0,-1.5333,0.0,0.0,0.0,0.0,0.0,0.0,0.0,0.0,0.0,0.0,0.0,-2.3414,-2.5504,-2.7874,-3.027,-3.2527,-3.2824,-3.3134,0.0,0.0,0.0,0.0,0.0,0.0,0.0,0.0,0.0,0.0,0.0,0.0,0.0,0.0,-2.8517,-2.3295,-2.1994,-2.1695,-2.1695,0.0,0.0,0.0,0.0,0.0,0.0,0.0,0.0,0.0,0.0,0.0,0.0,0.0,0.0,-2.5824,0.0,-2.5092,0.0,0.0,0.0,0.0,0.0,0.0,0.0,0.0,-2.6164,-2.7386,-2.7902,-2.8464,-2.8425,0.0,-2.6935,-2.4622,0.0,0.0,0.0,0.0,0.0,0.0,0.0,0.0,-2.342,-2.6086,-2.8399,-3.0032,-3.0934,-3.1024,-3.0712,-3.01,-2.8608,-2.619,-2.2818,-2.1041,-1.9499,0.0,0.0,0.0,0.0,0.0,0.0,0.0,0.0,0.0,0.0,0.0,0.0,0.0,0.0,0.0,0.0,0.0,0.0,0.0,0.0,0.0,0.0,0.0,-1.6114,0.0,0.0,0.0,0.0,0.0,0.0,0.0,0.0,0.0,-2.1032,-2.3163,-2.5426,-2.7523,-2.9356,-3.124,-3.323,0.0,0.0,0.0,0.0,0.0,0.0,0.0,-3.0926,-3.0838,-3.0178,-2.9759,-3.0193,-3.1345,-3.1959,-3.1271,0.0,0.0,-2.6707,-2.5226,-2.4822,-2.5061,-2.5794,-2.6249,-2.6048,-2.723,-2.8188,0.0,0.0,0.0,0.0,0.0,0.0,0.0,0.0,-2.7007,-2.7262,0.0,-2.7092,0.0,0.0,0.0,0.0,0.0,0.0,0.0,0.0,-2.9862,-3.0725,-3.027,-3.0803,-3.0777,-3.0257,-3.0686,-2.947,-2.6641,-2.2309,0.0,0.0,0.0,0.0,0.0,0.0,-2.44,-2.6719,-2.8961,-3.0375,-3.096,-3.1024,-3.0712,-3.0035,-2.7928,-2.6235,-2.5018,-2.3328,-2.1642,-1.9943,-1.8205,0.0,0.0,0.0,0.0,0.0,0.0,0.0,0.0,0.0,0.0,0.0,0.0,0.0,0.0,0.0,0.0,0.0,0.0,0.0,0.0,-1.6885,0.0,0.0,0.0,0.0,0.0,0.0,0.0,0.0,0.0,0.0,-2.3525,-2.539,-2.7497,-2.9533,0.0,0.0,0.0,0.0,-3.2826,-3.3499,-3.3574,-3.335,-3.2706,-3.3066,-3.3036,-3.1809,0.0,0.0,-3.1854,-3.2676,-3.2961,-3.1061,-3.1898,-3.2811,-3.329,-3.1539,-3.0507,-3.1062,-3.0268,-2.9909,-3.0402,-3.0793,-3.1391,-3.1222,0.0,0.0,0.0,0.0,-2.968,-3.0686,-3.2163,-3.1784,-3.1197,-3.0531,-2.9993,0.0,0.0,0.0,0.0,0.0,0.0,-2.8582,-2.9422,-3.0871,-3.1915,-3.2607,-3.2764,-3.2764,-3.2581,-3.1889,-3.096,-2.9702,-2.7203,-2.4099,-2.0597,0.0,0.0,0.0,0.0,-2.5393,-2.7275,-2.9134,-3.0375,-3.0973,-3.1024,-3.0516,-2.9549,-2.8464,-2.7157,-2.5628,-2.4321,-2.3027,-2.1694,-2.0009,0.0,0.0,0.0,0.0,0.0,0.0,0.0,0.0,0.0,0.0,0.0,0.0,0.0,0.0,0.0,0.0,0.0,0.0,0.0,-1.6807,-1.7107,-1.7063,0.0,0.0,0.0,0.0,0.0,0.0,0.0,0.0,0.0,-2.8241,-2.9011,-2.9642,0.0,0.0,-3.2856,-3.341,-3.3739,-3.4158,-3.4831,0.0,0.0,0.0,-3.3679,-3.3529,-3.3619,-3.4352,-3.4801,-3.4427,-3.4681,-3.4741,-3.4128,-3.4397,-3.4711,-3.4741,-3.2931,-3.1421,-3.1451,-3.1555,-3.1704,-3.1928,-3.2467,-3.2931,-3.5103,-3.262,-3.1692,-3.1705,-3.2346,-3.2594,-3.3483,-3.4737,-3.441,-3.3992,-3.3483,-3.2685,-3.1117,-2.9048,-2.8347,0.0,0.0,0.0,-3.0385,-3.1535,-3.2176,-3.3025,-3.3875,-3.3914,-3.3914,-3.3862,-3.2973,-3.2359,-3.1993,-3.049,-2.8007,-2.4661,0.0,0.0,-2.3616,-2.5437,-2.6968,-2.8229,-2.9706,-3.0647,-3.0973,-3.1024,-3.0487,-2.9362,-2.897,-2.7928,-2.6216,-2.5275,-2.4256,-2.3091,-2.142,-1.9799,0.0,0.0,0.0,0.0,0.0,0.0,0.0,0.0,0.0,0.0,0.0,-1.2954,0.0,0.0,0.0,0.0,-1.5304,-1.6945,-1.8463,-1.8375,0.0,0.0,0.0,0.0,0.0,0.0,0.0,-2.4815,-2.6218,-2.8055,-3.0987,-3.1822,-3.2124,-3.2179,-3.2927,-3.3784,-3.4577,0.0,-3.5205,-3.6133,-3.6267,-3.6118,-3.5699,-3.51,-3.4741,-3.4846,-3.522,-3.5489,-3.5489,-3.5489,-3.5489,-3.5489,-3.5489,-3.5489,-3.5489,-3.4158,-3.308,-3.308,-3.3185,-3.3365,-3.3634,-3.4008,-3.4292,-3.8501,-3.7861,-3.5704,-3.4763,-3.4737,-3.5312,-3.5547,-3.5508,-3.5508,-3.5757,-3.607,-3.5025,-3.3927,-3.2803,-3.1261,0.0,0.0,-3.1836,-3.2698,-3.3718,-3.3679,-3.3914,-3.4384,-3.4397,-3.4397,-3.4384,-3.3888,-3.3652,-3.3587,-3.2502,-3.1145,-2.9637,-2.7445,-2.6504,-2.6824,-2.7897,-2.8786,-2.9353,-3.0461,-3.1024,-3.1024,-3.1024,-3.0438,-2.9362,-2.931,-2.8499,-2.6784,-2.6112,-2.5315,-2.4204,-2.2518,-2.108,-1.9943,0.0,0.0,0.0,0.0,0.0,0.0,0.0,0.0,0.0,0.0,0.0,0.0,0.0,0.0,0.0,-1.8061,0.0,-2.0673,-2.0242,0.0,0.0,0.0,-1.9787,-2.0664,-2.1603,-2.3401,-2.649,0.0,0.0,0.0,0.0,-3.4653,-3.4668,-3.4113,-3.4382,-3.6181,-3.5953,-3.6088,-3.718,-3.7419,-3.7464,-3.721,-3.6716,-3.6133,-3.5669,-3.5549,-3.5504,-3.5489,-3.5489,-3.5489,-3.5489,-3.5489,-3.5489,-3.5489,-3.5385,-3.5489,-3.5355,-3.4968,-3.4726,-3.522,-3.537,-3.537,-3.9324,-3.9155,-3.8593,-3.7874,-3.7116,-3.7665,-3.7665,-3.7286,-3.7286,-3.7103,-3.675,-3.6031,-3.5312,-3.4646,-3.4254,-3.4149,-3.428,-3.441,-3.462,-3.4855,-3.441,-3.428,-3.4397,-3.4397,-3.4397,-3.4384,-3.4267,-3.4214,-3.4175,-3.3509,-3.2973,-3.2529,-3.1548,-2.981,-2.7438,-2.849,-2.9353,-2.9928,-3.062,-3.1024,-3.1024,-3.1024,-3.0438,-2.9349,-2.931,-2.8499,-2.6784,-2.6138,-2.5497,-2.4796,-2.3121,-2.1852,-2.1106,-1.8375,0.0,0.0,0.0,0.0,0.0,0.0,0.0,0.0,0.0,-1.6238,-1.3791,0.0,-1.7983,0.0,-1.9261,-2.0556,-2.1237,-2.0818,0.0,0.0,-2.1943,-2.2232,-2.3734,-2.4962,-2.6552,-2.87,-3.0553,-3.2299,-3.3841,-3.5207,-3.6046,-3.6046,-3.5863,-3.5774,-3.5804,-3.6492,-3.706,-3.7404,-3.7868,-3.7973,-3.7494,-3.6896,-3.6462,-3.6267,-3.5848,-3.5504,-3.5504,-3.5489,-3.5489,-3.5489,-3.5489,-3.5489,-3.5489,-3.5489,-3.5489,-3.5489,-3.5355,-3.5295,-3.5474,-3.5489,-3.5489,-4.0357,-4.037,-4.0383,-4.0004,-3.9416,-3.9207,-3.8945,-3.8671,-3.8658,-3.8331,-3.7717,-3.6867,-3.6188,-3.5665,-3.5665,-3.5665,-3.5652,-3.5665,-3.5652,-3.5626,-3.5051,-3.4789,-3.4789,-3.4528,-3.4397,-3.4397,-3.4397,-3.4397,-3.4384,-3.4097,-3.3822,-3.3587,-3.326,-3.1993,-2.9954,-3.0477,-3.0843,-3.0857,-3.0947,-3.1024,-3.1024,-3.1024,-3.0438,-2.9327,-2.931,-2.8499,-2.6771,-2.6125,-2.5414,-2.4609,-2.3199,-2.2126,-2.1485,-1.9264,-1.7826,0.0,0.0,0.0,0.0,0.0,0.0,0.0,0.0,0.0,0.0,0.0,-1.9394,0.0,-2.0949,0.0,-2.2975,-2.2794,-2.3095,-2.4213,-2.4347,-2.4779,-2.5981,-2.727,-2.8766,-3.066,-3.2137,-3.351,-3.4797,-3.5833,-3.6492,-3.6507,-3.6971,-3.721,-3.6941,-3.7434,-3.7943,-3.8257,-3.8616,-3.8616,-3.7958,-3.7569,-3.724,-3.6911,-3.6357,-3.5953,-3.5923,-3.5699,-3.5489,-3.5489,-3.5489,-3.5489,-3.5489,-3.5489,-3.5489,-3.5489,-3.5489,-3.5489,-3.5489,-3.5489,-3.5489,-4.1311,-4.1311,-4.1311,-4.1311,-4.1246,-4.0239,-3.9782,-3.9716,-3.9716,-3.9324,-3.8645,-3.7665,-3.6894,-3.6345,-3.6332,-3.6332,-3.6332,-3.6253,-3.6214,-3.6188,-3.5587,-3.5299,-3.5273,-3.4685,-3.4397,-3.4397,-3.4397,-3.4397,-3.4397,-3.4397,-3.4162,-3.3705,-3.3692,-3.343,-3.2934,-3.2908,-3.2555,-3.181,-3.1352,-3.1102,-3.1024,-3.1024,-3.0438,-2.9353,-2.9231,-2.8368,-2.6661,-2.6073,-2.5258,-2.4135,-2.3171,-2.2361,-2.1734,-2.0152,-1.9211,0.0,-1.8127,0.0,0.0,0.0,0.0,0.0,0.0,0.0,0.0,-1.9721,-2.0845,-2.1773,-2.2921,-2.4047,-2.5018,-2.524,-2.5524,-2.6086,-2.6582,-2.7144,-2.7785,-2.896,-3.0417,-3.2184,-3.3083,-3.4087,-3.5258,-3.6126,-3.6611,-3.6866,-3.7813,-3.8422,-3.8482,-3.8482,-3.8721,-3.9313,-3.9388,-3.9125,-3.8631,-3.8422,-3.8138,-3.7599,-3.7015,-3.6582,-3.6447,-3.6028,-3.5624,-3.5534,-3.5489,-3.5489,-3.5489,-3.5489,-3.5489,-3.5489,-3.5489,-3.5489,-3.5489,-3.5489,-3.5489,-4.1311,-4.1311,-4.1311,-4.1311,-4.1298,-4.1089,-4.071,-4.0265,-4.0265,-3.9677,-3.871,-3.8488,-3.8083,-3.7586,-3.756,-3.756,-3.7534,-3.705,-3.6841,-3.6802,-3.577,-3.5299,-3.526,-3.4685,-3.4397,-3.4397,-3.4397,-3.4397,-3.4397,-3.4397,-3.4345,-3.4254,-3.4241,-3.4175,-3.4084,0.0,0.0,0.0,-3.1693,-3.1406,-3.1037,-3.1024,-3.0438,-2.9314,-2.8804,0.0,-2.6086,-2.5845,-2.5301,-2.4191,-2.3887,0.0,0.0,0.0,0.0,0.0,0.0,0.0,0.0,0.0,0.0,0.0,-2.2177,-2.172,-2.1015,-2.2779,-2.389,-2.3694,-2.5079,-2.5947,-2.5694,-2.6485,-2.7275,-2.7824,-2.8028,-2.8464,-2.9483,-3.037,-3.1243,-3.2053,-3.3308,-3.4452,-3.5263,-3.6418,-3.7419,-3.7913,-3.8721,-3.92,-3.9215,-3.9185,-3.926,-3.9358,-3.9388,-3.9343,-3.926,-3.8766,-3.8407,-3.8138,-3.7659,-3.709,-3.6611,-3.6417,-3.6073,-3.5624,-3.5489,-3.5489,-3.5489,-3.5489,-3.5489,-3.5489,-3.5489,-3.5489,-3.5489,-3.5489,-3.5489,-4.199,0.0,-4.1729,-4.1585,0.0,-4.1311,-4.1141,-4.0853,-4.0853,-4.0321,-3.952,-3.8958,-3.8553,-3.8279,-3.8031,-3.79,-3.7887,-3.7586,-3.7442,-3.7403,-3.6541,-3.5992,-3.5678,-3.5116,-3.4685,-3.4397,-3.4397,-3.4397,-3.4397,-3.4397,-3.4397,-3.4397,-3.4397,-3.4397,-3.4397,-3.4397,-3.3849,-3.2712,-3.2098,-3.1654,-3.1418,-3.113,-3.0581,-2.9732,0.0,0.0,0.0,0.0,0.0,0.0,0.0,0.0,0.0,0.0,0.0,-2.2781,-2.2545,-2.2506,-2.2781,-2.282,-2.3304,-2.4383,-2.5275,-2.5158,-2.3717,-2.4726,-2.5615,-2.619,-2.7027,-2.757,-2.7549,-2.8059,-2.8621,-2.9157,-2.9248,-2.9601,-3.0446,-3.1198,-3.187,-3.2545,-3.3861,-3.5058,-3.5677,-3.7015,-3.7953,-3.8362,-3.899,-3.9388,-3.9388,-3.9388,-3.9388,-3.9388,-3.9388,-3.9388,-3.9358,-3.917,-3.8886,-3.8826,-3.8332,-3.7689,-3.706,-3.6701,-3.6267,-3.5654,-3.5489,-3.5489,-3.5489,-3.5489,-3.5489,-3.5489,-3.5489,-3.5489,-3.5489,-3.5489,-3.5489,-4.2748,-4.2317,-4.2304,-4.2043,-4.1611,-4.1507,-4.1415,-4.1311,0.0,0.0,0.0,-3.9429,-3.8906,-3.8684,-3.824,-3.7991,-3.7913,-3.79,-3.79,-3.7874,-3.7286,-3.6737,-3.624,-3.56,-3.5038,-3.4567,-3.445,-3.4397,-3.4397,-3.4397,-3.4397,-3.4397,-3.4397,-3.4397,-3.4397,-3.4397,-3.4175,-3.3705,-3.2646,-3.2006,-3.1797,-3.1378,-3.0817,-3.0113,-2.9575,-2.8778,-2.7719,-2.7223,-2.6261,-2.4674,-2.4631,-2.4452,-2.3848,-2.3838,-2.4308,-2.5328,-2.545,-2.5489,-2.5594,-2.5594,-2.5855,-2.6399,-2.7732,-2.7889,-2.6354,-2.6373,-2.7013,-2.8412,-2.8669,-2.8908,-2.9392,-2.9536,-2.9771,-3.0205,-3.0244,-3.0466,-3.1076,-3.1652,-3.2236,-3.2962,-3.4128,-3.5253,-3.5848,-3.7176,-3.824,-3.8424,-3.8973,-3.9388,-3.9388,-3.9388,-3.9388,-3.9388,-3.9388,-3.9388,-3.9388,-3.9358,-3.9388,-3.9298,-3.8916,-3.8347,-3.7689,-3.706,-3.6447,-3.5863,-3.5609,-3.5504,-3.5489,-3.5489,-3.5489,-3.5489,-3.5489,-3.5489,-3.5489,-3.5489,-3.5489,-4.2984,-4.2905,-4.2905,-4.2853,-4.2748,-4.2252,-4.1768,-4.1324,-4.1311,-4.0984,-4.0409,-4.0252,-3.9625,-3.871,-3.8619,-3.8344,-3.7913,-3.79,-3.79,0.0,-3.7273,-3.6959,-3.6828,-3.5796,-3.5247,-3.5129,-3.4646,-3.4397,-3.4397,-3.4397,-3.4397,-3.4397,-3.4397,-3.4397,-3.4397,-3.4397,-3.4358,-3.4267,-3.3666,-3.2855,-3.1836,-3.1719,-3.1171,-3.014,-2.9601,-2.9009,-2.8294,-2.8177,-2.7609,-2.6399,-2.6791,-2.6791,-2.6229,-2.6196,-2.6491,-2.7072,-2.7137,-2.7379,-2.7897,-2.7902,-2.8198,-2.8739,-2.9061,-2.8817,-2.8124,-2.8503,-2.8895,-2.917,-2.9588,-2.9879,-2.9996,-3.0451,-3.0764,-3.0869,-3.0869,-3.1091,-3.1602,-3.1782,-3.2146,-3.279,-3.3463,-3.4393,-3.5263,-3.6568,-3.777,-3.8245,-3.8979,-3.9388,-3.9388,-3.9388,-3.9388,-3.9388,-3.9388,-3.9388,-3.9388,-3.9388,-3.9388,-3.9388,-3.9298,-3.896,-3.8272,-3.7689,-3.706,-3.6432,-3.5908,-3.5579,-3.5504,-3.5489,-3.5489,-3.5489,-3.5489,-3.5489,-3.5489,-3.5489,-3.5489,-4.3768,-4.3493,-4.348,-4.3297,-4.2971,-4.2409,-4.1847,-4.1324,-4.1311,-4.1154,-4.088,-4.0566,-4.0122,-3.9638,-3.9324,-3.888,-3.8331,-3.8344,-3.8174,-3.79,-3.7625,-3.7325,-3.6985,-3.6475,-3.5887,-3.5312,-3.5012,-3.4711,-3.4424,-3.4397,-3.4397,-3.4397,-3.4397,-3.4397,-3.4397,-3.4397,-3.4397,-3.4384,-3.3875,-3.3326,-3.2803,-3.2476,-3.1914,-3.104,-3.0503,-2.9941,-2.9353,-2.9039,-2.8512,-2.7628,-2.785,-2.7863,-2.7661,-2.7635,-2.7863,-2.8425,-2.8477,-2.8582,-2.8878,-2.9157,-2.9444,-2.9732,-3.0032,-3.0228,-3.0255,-2.9941,-2.9876,-3.0176,-3.0464,-3.0725,-3.0988,-3.1262,-3.1561,-3.1888,-3.1953,-3.2019,-3.2241,-3.2293,-3.2712,-3.3686,-3.456,-3.5461,-3.6521,-3.7664,-3.8465,-3.8841,-3.9228,-3.9388,-3.9388,-3.9388,-3.9388,-3.9388,-3.9388,-3.9388,-3.9388,-3.9388,-3.9388,-3.9388,-3.9388,-3.914,-3.8542,-3.8093,-3.7569,-3.6701,-3.6222,-3.5908,-3.5594,-3.5489,-3.5489,-3.5489,-3.5489,-3.5489,-3.5489,-3.5489,-3.5489,-4.4474,-4.4068,-4.4068,-4.3729,-4.318,-4.2605,-4.203,-4.1507,-4.1376,-4.1311,-4.1246,-4.0814,-4.0553,-4.037,-3.9978,-3.9403,-3.8776,-3.871,-3.841,-3.7939,-3.79,-3.7665,-3.722,-3.7077,-3.6462,-3.5547,-3.5365,-3.4999,-3.445,-3.4397,-3.4397,-3.4397,-3.4397,-3.4397,-3.4397,-3.4397,-3.4397,-3.4371,-3.3992,-3.3705,-3.3587,-3.313,-3.262,-3.2006,-3.147,-3.0973,-3.0492,-2.9967,-2.9392,-2.883,-2.8778,-2.8778,-2.8813,-2.8778,-2.9039,-2.9624,-2.9666,-2.9702,-2.9693,-3.0202,-3.0492,-3.0492,-3.1039,-3.1548,-3.1888,-3.1197,-3.0844,-3.1287,-3.1392,-3.1561,-3.1876,-3.198,-3.2176,-3.2633,-3.2672,-3.2712,-3.2855,-3.2894,-3.3344,-3.4552,-3.5317,-3.6108,-3.7181,-3.8211,-3.8892,-3.9199,-3.9388,-3.9388,-3.9388,-3.9388,-3.9388,-3.9388,-3.9388,-3.9388,-3.9388,-3.9388,-3.9388,-3.9388,-3.9388,-3.92,-3.8766,-3.8542,-3.7988,-3.7,-3.66,-3.6193,-3.5654,-3.5489,-3.5489,-3.5489,-3.5489,-3.5489,-3.5489,-3.5489,-3.5489,-4.4642,-4.4657,-4.463,-4.4317,-4.3729,-4.318,-4.2605,-4.2043,-4.1546,-4.1311,-4.1298,-4.1259,-4.0919,-4.0461,-4.0357,-3.9769,-3.8802,-3.8723,-3.8449,-3.7952,-3.79,-3.7874,-3.7743,-3.7273,-3.6671,-3.6031,-3.5561,-3.5038,-3.4476,-3.441,-3.4397,-3.4397,-3.4397,-3.4397,-3.4397,-3.4397,-3.4397,-3.4397,-3.4345,-3.4084,-3.3613,-3.3535,-3.3208,-3.2633,-3.2032,-3.1706,-3.1602,-3.113,-3.0568,-3.0009,-2.9957,-2.9944,-2.9944,-2.9944,-3.0192,-3.0777,-3.0867,-3.0867,-3.0869,-3.1327,-3.1628,-3.1693,-3.2163,-3.2502,-3.2594,-3.2502,-3.2463,-3.2529,-3.2529,-3.2489,-3.2607,-3.262,-3.2672,-3.2816,-3.2803,-3.2894,-3.3378,-3.3509,-3.3772,-3.4337,-3.4735,-3.4664,-3.5332,-3.6543,-3.7881,-3.9265,-3.9388,-3.9388,-3.9388,-3.9388,-3.9388,-3.9388,-3.9388,-3.9388,-3.9388,-3.9388,-3.9388,-3.9388,-3.9388,-3.9298,-3.9155,-3.8766,-3.8138,-3.7554,-3.6881,-3.6372,-3.5833,-3.5489,-3.5489,-3.5489,-3.5489,-3.5489,-3.5489,-3.5489,-3.5489,-4.4681,-4.4681,-4.4681,-4.4395,-4.3872,-4.3611,-4.301,-4.2211,-4.1976,-4.1638,-4.1337,-4.1311,-4.118,-4.0945,-4.0945,-4.0488,-3.9716,-3.939,-3.8932,-3.8383,-3.8057,-3.79,-3.7861,-3.7678,-3.722,-3.6619,-3.6044,-3.5482,-3.4946,-3.4567,-3.4397,-3.4397,-3.4397,-3.4397,-3.4397,-3.4397,-3.4397,-3.4397,-3.4397,-3.428,-3.4097,-3.4058,-3.3796,-3.3287,-3.2999,-3.2698,-3.2359,-3.211,-3.1888,-3.1666,-3.164,-3.1653,-3.164,-3.1653,-3.1744,-3.198,-3.2006,-3.1993,-3.1993,-3.2215,-3.2333,-3.2359,-3.2542,-3.2829,-3.3195,-3.3221,-3.3352,-3.3574,-3.3104,-3.2816,-3.3156,-3.3221,-3.3352,-3.3613,-3.3705,-3.3796,-3.4018,-3.4071,-3.4327,-3.5047,-3.5196,-3.5345,-3.5923,-3.6894,-3.8084,-3.9156,-3.9388,-3.9352,-3.9388,-3.9388,-3.9388,-3.9388,-3.9388,-3.9388,-3.9388,-3.9388,-3.9388,-3.9388,-3.9388,-3.9388,-3.9328,-3.9224,-3.8781,-3.8093,-3.7419,-3.6806,-3.6237,-3.5729,-3.5489,-3.5489,-3.5489,-3.5489,-3.5489,-3.5489,-3.5489,-4.4681,-4.4681,-4.4681,-4.4487,-4.4095,-4.3938,-4.3363,-4.2448,-4.2239,-4.1847,-4.1337,-4.1311,-4.1311,-4.1311,-4.1311,-4.0984,-4.0409,-4.0004,-3.9416,-3.8736,-3.8292,-3.8044,-3.7913,-3.79,-3.7586,-3.7011,-3.6567,-3.5992,-3.5312,-3.4685,-3.4397,-3.4397,-3.4397,-3.4397,-3.4397,-3.4397,-3.4397,-3.4397,-3.4397,-3.4397,-3.4397,-3.4397,-3.4214,-3.3835,-3.3666,-3.3378,-3.2973,-3.2777,-3.2672,-3.2672,-3.2672,-3.2672,-3.2672,-3.2672,-3.2672,-3.2672,-3.2672,-3.2672,-3.2725,-3.2842,-3.2947,-3.2947,-3.3051,-3.3339,-3.3692,-3.3809,-3.3979,-3.4241,-3.3639,-3.3404,-3.3718,-3.3809,-3.3992,-3.4345,-3.4397,-3.4397,-3.4384,-3.4397,-3.462,-3.5223,-3.5196,-3.5762,-3.6699,-3.7424,-3.8136,-3.9156,-3.9192,-3.9192,-3.9352,-3.9388,-3.9388,-3.9388,-3.9388,-3.9388,-3.9388,-3.9388,-3.9388,-3.9388,-3.9388,-3.9388,-3.9388,-3.9388,-3.9185,-3.8317,-3.7808,-3.7195,-3.6477,-3.5938,-3.5489,-3.5489,-3.5489,-3.5489,-3.5489,-3.5489,-3.5489,-4.4681,-4.4681,-4.4681,-4.4709,-4.4643,-4.4134,-4.3546,-4.2944,-4.2422,-4.186,-4.1389,-4.1311,-4.1311,-4.1311,-4.1311,-4.0997,-4.0474,-4.0383,-3.9769,-3.8828,-3.8684,-3.8383,-3.7913,-3.7887,-3.7599,-3.7103,-3.6946,-3.6345,-3.5312,-3.4724,-3.4397,-3.4397,-3.4397,-3.4397,-3.4397,-3.4397,-3.4397,-3.4397,-3.4397,-3.4397,-3.4397,-3.4397,-3.4384,-3.428,-3.3875,-3.3587,-3.3509,-3.2999,-3.2712,-3.2698,-3.2764,-3.2738,-3.2725,-3.2738,-3.2764,-3.2751,-3.2738,-3.2725,-3.2829,-3.326,-3.3548,-3.36,-3.394,-3.4293,-3.4267,-3.428,-3.4319,-3.4384,-3.4267,-3.4241,-3.428,-3.4267,-3.4306,-3.4371,-3.4397,-3.4397,-3.4397,-3.4397,-3.4397,-3.4522,-3.4551,-3.5223,-3.6607,-3.6919,-3.7729,-3.8686,-3.8738,-3.8575,-3.9228,-3.9388,-3.9388,-3.9388,-3.9388,-3.9388,-3.9388,-3.9388,-3.9388,-3.9388,-3.9388,-3.9388,-3.9388,-3.9313,-3.8975,-3.8571,-3.7988,-3.736,-3.6626,-3.6073,-3.5639,-3.5489,-3.5489,-3.5489,-3.5489,-3.5489,-3.5489,-4.4681,-4.4681,-4.4681,-4.4681,-4.4709,-4.45,-4.4081,-4.3533,-4.2971,-4.2396,-4.186,-4.1481,-4.1311,-4.1311,-4.1311,-4.1206,-4.0958,-4.0605,-4.0004,-3.9285,-3.8893,-3.8423,-3.7939,-3.79,-3.7821,-3.756,-3.7194,-3.6423,-3.5404,-3.5064,-3.4763,-3.445,-3.4397,-3.4397,-3.4397,-3.4397,-3.4397,-3.4397,-3.4397,-3.4397,-3.4397,-3.4397,-3.4397,-3.4397,-3.4214,-3.411,-3.411,-3.3888,-3.3783,-3.377,-3.3796,-3.3783,-3.3783,-3.3783,-3.3783,-3.3783,-3.3783,-3.3783,-3.3796,-3.3979,-3.411,-3.4123,-3.428,-3.4397,-3.4397,-3.4397,-3.4397,-3.4397,-3.4397,-3.4397,-3.4397,-3.4397,-3.4397,-3.4397,-3.4397,-3.4397,-3.4397,-3.4397,-3.4397,-3.4397,-3.4397,-3.4868,-3.5816,-3.6162,-3.6791,-3.8225,-3.8389,-3.8575,-3.9156,-3.9388,-3.9352,-3.9388,-3.9388,-3.9388,-3.9388,-3.9388,-3.9388,-3.9388,-3.9388,-3.9388,-3.9388,-3.9388,-3.914,-3.9005,-3.8392,-3.7719,-3.706,-3.6207,-3.5789,-3.5594,-3.5579,-3.5489,-3.5489,-3.5489,-3.5489,-4.4681,-4.4681,-4.4681,-4.4681,-4.4681,-4.4681,-4.4408,-4.3833,-4.3271,-4.2696,-4.2185,-4.1559,-4.1311,-4.1311,-4.1311,-4.1311,-4.1272,-4.088,-4.0396,-3.9847,-3.9272,-3.8697,-3.82,-3.7978,-3.79,-3.7808,-3.7286,-3.6488,-3.5639,-3.5378,-3.4986,-3.4424,-3.4397,-3.4397,-3.4397,-3.4397,-3.4397,-3.4397,-3.4397,-3.4397,-3.4397,-3.4397,-3.4397,-3.4397,-3.4397,-3.4397,-3.4397,-3.4397,-3.4397,-3.4397,-3.4397,-3.4397,-3.4397,-3.4397,-3.4397,-3.4397,-3.4384,-3.4397,-3.4397,-3.4397,-3.4397,-3.4397,-3.4397,-3.4397,-3.4397,-3.4397,-3.4397,-3.4397,-3.4397,-3.4397,-3.4397,-3.4397,-3.4397,-3.4397,-3.4397,-3.4397,-3.4397,-3.4397,-3.4397,-3.4439,-3.4716,-3.5114,-3.5548,-3.5709,-3.6545,-3.7962,-3.8,-3.8136,-3.8811,-3.901,-3.901,-3.901,-3.8958,-3.9119,-3.9265,-3.9388,-3.9388,-3.9388,-3.9388,-3.9388,-3.9388,-3.9388,-3.9358,-3.9275,-3.8856,-3.8182,-3.7404,-3.6507,-3.6058,-3.5833,-3.5609,-3.5489,-3.5489,-3.5489,-3.5489,-4.4681,-4.4681,-4.4681,-4.4681,-4.4681,-4.4681,-4.4408,-4.3899,-4.3284,-4.2722,-4.2239,-4.1598,-4.1311,-4.1311,-4.1311,-4.1311,-4.1298,-4.1232,-4.0906,-4.0318,-3.9782,-3.922,-3.8632,-3.8122,-3.79,-3.7874,-3.7325,-3.6737,-3.6123,-3.5626,-3.5077,-3.4541,-3.4424,-3.4397,-3.4397,-3.4397,-3.4397,-3.4397,-3.4397,-3.4397,-3.4397,-3.4397,-3.4397,-3.4397,-3.4397,-3.4397,-3.4397,-3.4397,-3.4397,-3.4397,-3.4397,-3.4397,-3.4397,-3.4397,-3.4397,-3.4397,-3.4397,-3.4397,-3.4397,-3.4397,-3.4397,-3.4397,-3.4397,-3.4397,-3.4397,-3.4397,-3.4397,-3.4397,-3.4397,-3.4397,-3.4397,-3.4397,-3.4397,-3.4397,-3.4397,-3.4397,-3.4397,-3.4397,-3.4397,-3.4481,-3.4937,-3.5588,-3.5669,-3.5669,-3.6334,-3.7438,-3.7501,-3.7386,-3.815,-3.8315,-3.8202,-3.8277,-3.8427,-3.8686,-3.9083,-3.9388,-3.9373,-3.9373,-3.9388,-3.9388,-3.9388,-3.9388,-3.9388,-3.9269,-3.8841,-3.8197,-3.7838,-3.7015,-3.6537,-3.6267,-3.5923,-3.5594,-3.5489,-3.5489,-3.5489,-4.4681,-4.4681,-4.4681,-4.4681,-4.4681,-4.4681,-4.4617,-4.4356,-4.3467,-4.2918,-4.2605,-4.1742,-4.1311,-4.1311,-4.1311,-4.1311,-4.1311,-4.1298,-4.0997,-4.0409,-3.986,-3.9311,-3.871,-3.8161,-3.79,-3.7874,-3.773,-3.7312,-3.6698,-3.6123,-3.5561,-3.5051,-3.4593,-3.441,-3.4397,-3.4397,-3.4397,-3.4397,-3.4397,-3.4397,-3.4397,-3.4397,-3.4397,-3.4397,-3.4397,-3.4397,-3.4397,-3.4397,-3.4397,-3.4397,-3.4397,-3.4397,-3.4397,-3.4397,-3.4397,-3.4397,-3.4397,-3.4397,-3.4397,-3.4397,-3.4397,-3.4397,-3.4397,-3.4397,-3.4397,-3.4397,-3.4397,-3.4397,-3.4397,-3.4397,-3.4397,-3.4397,-3.4397,-3.4397,-3.4397,-3.4397,-3.4397,-3.4397,-3.4397,-3.4397,-3.4634,-3.4799,-3.495,-3.5196,-3.6056,-3.7025,-3.7011,-3.7179,-3.7834,-3.763,-3.763,-3.8037,-3.8188,-3.8464,-3.9031,-3.9192,-3.901,-3.9141,-3.9265,-3.9352,-3.9352,-3.9388,-3.9388,-3.9254,-3.8796,-3.8437,-3.8078,-3.7629,-3.715,-3.6716,-3.6387,-3.6028,-3.5624,-3.5564,-3.5654,-4.4681,-4.4681,-4.4681,-4.4681,-4.4681,-4.4681,-4.4681,-4.4498,-4.352,-4.3023,-4.2788,-4.1821,-4.1311,-4.1311,-4.1311,-4.1311,-4.1311,-4.1311,-4.1115,-4.0697,-4.0161,-3.9586,-3.8985,-3.824,-3.79,-3.79,-3.79,-3.7586,-3.7011,-3.6606,-3.6057,-3.5338,-3.4907,-3.4607,-3.4437,-3.4397,-3.4397,-3.4397,-3.4397,-3.4397,-3.4397,-3.4397,-3.4397,-3.4397,-3.4397,-3.4397,-3.4397,-3.4397,-3.4397,-3.4397,-3.4397,-3.4397,-3.4397,-3.4397,-3.4397,-3.4397,-3.4397,-3.4397,-3.4397,-3.4397,-3.4397,-3.4397,-3.4397,-3.4397,-3.4397,-3.4397,-3.4397,-3.4397,-3.4397,-3.4397,-3.4397,-3.4397,-3.4397,-3.4397,-3.4397,-3.4397,-3.4397,-3.4397,-3.4397,-3.4397,-3.4439,-3.4397,-3.4564,-3.4799,-3.5534,-3.6227,-3.6464,-3.6543,-3.7078,-3.7063,-3.7347,-3.7706,-3.7985,-3.8449,-3.9141,-3.9031,-3.8664,-3.8848,-3.9068,-3.9192,-3.9265,-3.9352,-3.9388,-3.9358,-3.9065,-3.9005,-3.8691,-3.8167,-3.7689,-3.7285,-3.6926,-3.6552,-3.6222,-3.6013,-3.5968,-4.4681,-4.4681,-4.4681,-4.4681,-4.4681,-4.4681,-4.4681,-4.4498,-4.3598,-4.3088,-4.2801,-4.1912,-4.1376,-4.1337,-4.1311,-4.1311,-4.1311,-4.1311,-4.1298,-4.1115,-4.0697,-4.0109,-3.9298,-3.8436,-3.8018,-3.79,-3.79,-3.7612,-3.7168,-3.6972,-3.6475,-3.5613,-3.5338,-3.5025,-3.4607,-3.445,-3.4397,-3.4397,-3.4397,-3.4397,-3.4397,-3.4397,-3.4397,-3.4397,-3.4397,-3.4397,-3.4397,-3.4397,-3.4397,-3.4397,-3.4397,-3.4397,-3.4397,-3.4397,-3.4397,-3.4397,-3.4397,-3.4397,-3.4397,-3.4397,-3.4397,-3.4397,-3.4397,-3.4397,-3.4397,-3.4397,-3.4397,-3.4397,-3.4397,-3.4397,-3.4397,-3.4397,-3.4397,-3.4397,-3.4397,-3.4397,-3.4397,-3.4397,-3.4397,-3.4397,-3.4397,-3.4397,-3.4439,-3.4564,-3.506,-3.5534,-3.5896,-3.6162,-3.6281,-3.666,-3.6894,-3.7372,-3.7947,-3.8486,-3.9156,-3.8775,-3.8516,-3.8922,-3.9031,-3.8995,-3.9192,-3.9352,-3.9388,-3.9358,-3.9328,-3.9328,-3.9194,-3.8691,-3.8302,-3.7988,-3.7614,-3.7195,-3.6866,-3.6626,-3.6447,-4.4681,-4.4681,-4.4681,-4.4681,-4.4681,-4.4681,-4.4681,-4.4576,-4.3964,-4.335,-4.2918,-4.2265,-4.1714,-4.1337,-4.1311,-4.1311,-4.1361,-4.1361,-4.1311,-4.1285,-4.113,-4.0226,-3.9181,-3.8671,-3.8266,-3.7952,-3.79,-3.7821,-3.7639,-3.7246,-3.6841,-3.6541,-3.573,-3.526,-3.5025,-3.462,-3.441,-3.4397,-3.4397,-3.4397,-3.4397,-3.4397,-3.4397,-3.4397,-3.4397,-3.4397,-3.4397,-3.4397,-3.4397,-3.4397,-3.4397,-3.4397,-3.4397,-3.4397,-3.4397,-3.4397,-3.4397,-3.4397,-3.4397,-3.4397,-3.4397,-3.4397,-3.4397,-3.4397,-3.4397,-3.4397,-3.4397,-3.4397,-3.4397,-3.4397,-3.4397,-3.4397,-3.4397,-3.4397,-3.4397,-3.4397,-3.4397,-3.4397,-3.4397,-3.4397,-3.4397,-3.4397,-3.4522,-3.4868,-3.5264,-3.5629,-3.5976,-3.6385,-3.6306,-3.6621,-3.6958,-3.7668,-3.824,-3.8664,-3.8885,-3.8516,-3.8516,-3.8995,-3.9046,-3.8775,-3.9083,-3.9388,-3.9388,-3.9373,-3.9358,-3.9358,-3.9373,-3.9119,-3.8901,-3.8586,-3.8317,-3.7913,-3.7479,-3.7165,-3.712,-4.4681,-4.4681,-4.4681,-4.4681,-4.4681,-4.4681,-4.4681,-4.4565,-4.3859,-4.3585,-4.3331,-4.2287,-4.1863,-4.1931,-4.1918,-4.1967,-4.1904,-4.1967,-4.1954,-4.1855,-4.1471,-4.0474,-3.9351,-3.888,-3.8423,-3.7952,-3.79,-3.79,-3.7848,-3.7534,-3.7273,-3.692,-3.6345,-3.5796,-3.526,-3.4986,-3.4633,-3.445,-3.4397,-3.4397,-3.4397,-3.4397,-3.4397,-3.4397,-3.4397,-3.4397,-3.4397,-3.4397,-3.4397,-3.4397,-3.4397,-3.4397,-3.4397,-3.4397,-3.4397,-3.4397,-3.4397,-3.4397,-3.4397,-3.4397,-3.4397,-3.4397,-3.4397,-3.4397,-3.4397,-3.4397,-3.4397,-3.4397,-3.4397,-3.4397,-3.4397,-3.4397,-3.4397,-3.4397,-3.4397,-3.4397,-3.4397,-3.4397,-3.4397,-3.4397,-3.4397,-3.4397,-3.4397,-3.4881,-3.5073,-3.5196,-3.5332,-3.5803,-3.6188,-3.6646,-3.7165,-3.7872,-3.8516,-3.8973,-3.901,-3.8664,-3.8627,-3.9119,-3.9192,-3.89,-3.9046,-3.9388,-3.9388,-3.9388,-3.9388,-3.9388,-3.9388,-3.9373,-3.9224,-3.899,-3.8856,-3.8571,-3.8108,-3.7823,-3.7778,-4.4681,-4.4681,-4.4681,-4.4681,-4.4681,-4.4681,-4.4681,-4.4526,-4.3874,-4.3814,-4.3977,-4.2552,-4.2507,-4.2937,-4.2937,-4.2937,-4.2937,-4.2744,-4.2563,-4.2284,-4.1802,-4.0916,-3.9743,-3.9141,-3.8553,-3.8004,-3.79,-3.79,-3.7887,-3.7861,-3.7612,-3.7207,-3.7011,-3.6384,-3.5626,-3.5312,-3.4959,-3.4489,-3.4397,-3.4397,-3.4397,-3.4397,-3.4397,-3.4397,-3.4397,-3.4397,-3.4397,-3.4397,-3.4397,-3.4397,-3.4397,-3.4397,-3.4397,-3.4397,-3.4397,-3.4397,-3.4397,-3.4397,-3.4397,-3.4397,-3.4397,-3.4397,-3.4397,-3.4397,-3.4397,-3.4397,-3.4397,-3.4397,-3.4397,-3.4397,-3.4397,-3.4397,-3.4397,-3.4397,-3.4397,-3.4397,-3.4397,-3.4397,-3.4397,-3.4397,-3.4397,-3.4397,-3.4397,-3.4397,-3.4439,-3.4799,-3.506,-3.5575,-3.6201,-3.683,-3.7424,-3.8037,-3.8664,-3.9316,-3.9119,-3.8811,-3.8958,-3.9228,-3.9316,-3.9192,-3.9192,-3.9388,-3.9388,-3.9388,-3.9388,-3.9388,-3.9388,-3.9373,-3.9343,-3.9313,-3.9155,-3.8931,-3.8676,-3.8556,-3.8467,-4.4681,-4.4681,-4.4681,-4.4681,-4.4681,-4.4681,-4.4735,-4.4698,-4.4835,-4.463,-4.4511,-4.4345,-4.4117,-4.397,-4.397,-4.397,-4.3876,-4.3273,-4.2431,-4.1733,-4.2333,-4.1581,-4.0443,-3.9721,-3.8854,-3.8161,-3.7913,-3.79,-3.79,-3.7887,-3.7848,-3.7665,-3.722,-3.6658,-3.6018,-3.5534,-3.5012,-3.4515,-3.441,-3.4397,-3.4397,-3.4397,-3.4397,-3.4397,-3.4397,-3.4397,-3.4397,-3.4397,-3.4397,-3.4397,-3.4397,-3.4397,-3.4397,-3.4397,-3.4397,-3.4397,-3.4397,-3.4397,-3.4397,-3.4397,-3.4397,-3.4397,-3.4397,-3.4397,-3.4397,-3.4397,-3.4397,-3.4397,-3.4397,-3.4397,-3.4397,-3.4397,-3.4397,-3.4397,-3.4397,-3.4397,-3.4397,-3.4397,-3.4397,-3.4397,-3.4397,-3.4397,-3.4397,-3.4397,-3.4439,-3.4481,-3.4881,-3.5386,-3.6136,-3.6883,-3.7553,-3.8113,-3.8811,-3.9352,-3.901,-3.8775,-3.8848,-3.9068,-3.9228,-3.9388,-3.9388,-3.9388,-3.9388,-3.9388,-3.9388,-3.9388,-3.9388,-3.9388,-3.9373,-3.9388,-3.9388,-3.9209,-3.908,-3.908,-3.9035,-4.4681,-4.4681,-4.4681,-4.4681,-4.4681,-4.4735,-4.4821,-4.4957,-4.4956,-4.5207,-4.5323,-4.5118,-4.4842,-4.5007,-4.5007,-4.4992,-4.49,-4.447,-4.3687,-4.3095,-4.3307,-4.2835,-4.1775,-4.0702,-3.9641,-3.8457,-3.8004,-3.7926,-3.79,-3.79,-3.79,-3.79,-3.756,-3.7142,-3.6528,-3.594,-3.5417,-3.4881,-3.4528,-3.4397,-3.4397,-3.4397,-3.4397,-3.4397,-3.4397,-3.4397,-3.4397,-3.4397,-3.4397,-3.4397,-3.4397,-3.4397,-3.4397,-3.4397,-3.4397,-3.4397,-3.4397,-3.4397,-3.4397,-3.4397,-3.4397,-3.4397,-3.4397,-3.4397,-3.4397,-3.4397,-3.4397,-3.4397,-3.4397,-3.4397,-3.4397,-3.4397,-3.4397,-3.4397,-3.4397,-3.4397,-3.4397,-3.4397,-3.4397,-3.4397,-3.4397,-3.4397,-3.4397,-3.4397,-3.4397,-3.4439,-3.4481,-3.4991,-3.5816,-3.661,-3.7477,-3.815,-3.8885,-3.9192,-3.89,-3.8664,-3.859,-3.8848,-3.9068,-3.9265,-3.9388,-3.9388,-3.9388,-3.9388,-3.9388,-3.9388,-3.9388,-3.9388,-3.9388,-3.9388,-3.9388,-3.9388,-3.9358,-3.9239,-3.9224,-4.4681,-4.4722,-4.4884,-4.4884,-4.4763,-4.4981,-4.5234,-4.531,-4.5021,-4.5635,-4.6293,-4.5246,-4.5475,-4.5883,-4.6018,-4.5973,-4.5734,-4.5644,-4.49,-4.4125,-4.4359,-4.3873,-4.3008,-4.1998,-4.0813,-3.9184,-3.8287,-3.7959,-3.79,-3.79,-3.79,-3.79,-3.7887,-3.7469,-3.6959,-3.6384,-3.5757,-3.5221,-3.4672,-3.4397,-3.4397,-3.4397,-3.4397,-3.4397,-3.4397,-3.4397,-3.4397,-3.4397,-3.4397,-3.4397,-3.4397,-3.4397,-3.4397,-3.4397,-3.4397,-3.4397,-3.4397,-3.4397,-3.4397,-3.4397,-3.4397,-3.4397,-3.4397,-3.4397,-3.4397,-3.4397,-3.4397,-3.4397,-3.4397,-3.4397,-3.4397,-3.4397,-3.4397,-3.4397,-3.4397,-3.4397,-3.4397,-3.4397,-3.4397,-3.4397,-3.4397,-3.4397,-3.4397,-3.4397,-3.4397,-3.4397,-3.4397,-3.4634,-3.5426,-3.6201,-3.7,-3.7758,-3.8449,-3.9192,-3.901,-3.8885,-3.8775,-3.8811,-3.9031,-3.9228,-3.9388,-3.9388,-3.9388,-3.9388,-3.9388,-3.9388,-3.9388,-3.9388,-3.9388,-3.9388,-3.9388,-3.9388,-3.9388,-3.9388,-3.9388,-4.4681,-4.4789,-4.5702,-4.5595,-4.4994,-4.6038,-4.6072,-4.5608,-4.6017,-4.6451,-4.6633,-4.6771,-4.6741,-4.6975,-4.7019,-4.6594,-4.6062,-4.5928,-4.5417,-4.4823,-4.5115,-4.4936,-4.3766,-4.3261,-4.2372,-4.0824,-3.9186,-3.8161,-3.7979,-3.79,-3.7979,-3.7946,-3.79,-3.7586,-3.7063,-3.641,-3.5913,-3.5404,-3.4816,-3.4502,-3.4397,-3.4397,-3.4397,-3.4397,-3.4397,-3.4397,-3.4397,-3.4397,-3.4397,-3.4397,-3.4397,-3.4397,-3.4397,-3.4397,-3.4397,-3.4397,-3.4397,-3.4397,-3.4397,-3.4397,-3.4397,-3.4397,-3.4397,-3.4397,-3.4397,-3.4397,-3.4397,-3.4397,-3.4397,-3.4397,-3.4397,-3.4397,-3.4397,-3.4397,-3.4397,-3.4397,-3.4397,-3.4397,-3.4397,-3.4397,-3.4397,-3.4397,-3.4397,-3.4397,-3.4397,-3.4397,-3.4397,-3.4397,-3.4786,-3.5575,-3.632,-3.7078,-3.7796,-3.8612,-3.9207,-3.9156,-3.9119,-3.9031,-3.9156,-3.9265,-3.9388,-3.9388,-3.9388,-3.9388,-3.9388,-3.9388,-3.9388,-3.9388,-3.9388,-3.9388,-3.9388,-3.9388,-3.9388,-3.9388,-3.9388,-4.5033,-4.5542,-4.5542,-4.5673,-4.5924,-4.6062,-4.6142,-4.6145,-4.6501,-4.682,-4.7022,-4.7226,-4.7309,-4.7309,-4.7309,-4.6975,-4.6682,-4.6535,-4.627,-4.6032,-4.6285,-4.6021,-4.4674,-4.4283,-4.3315,-4.1995,-4.0302,-3.8997,-3.8639,-3.8594,-3.8349,-3.7933,-3.79,-3.773,-3.7403,-3.6894,-3.6279,-3.5704,-3.5155,-3.4685,-3.4424,-3.4397,-3.4397,-3.4397,-3.4397,-3.4397,-3.4397,-3.4397,-3.4397,-3.4397,-3.4397,-3.4397,-3.4397,-3.4397,-3.4397,-3.4397,-3.4397,-3.4397,-3.4397,-3.4397,-3.4397,-3.4397,-3.4397,-3.4397,-3.4397,-3.4397,-3.4397,-3.4397,-3.4397,-3.4397,-3.4397,-3.4397,-3.4397,-3.4397,-3.4397,-3.4397,-3.4397,-3.4397,-3.4397,-3.4397,-3.4397,-3.4397,-3.4397,-3.4397,-3.4397,-3.4397,-3.4397,-3.4397,-3.4397,-3.5032,-3.5816,-3.683,-3.763,-3.83,-3.901,-3.9119,-3.9192,-3.9156,-3.9228,-3.9352,-3.9388,-3.9388,-3.9388,-3.9388,-3.9388,-3.9388,-3.9388,-3.9388,-3.9388,-3.9388,-3.9388,-3.9388,-3.9388,-3.9388,-3.9388,-4.5196,-4.5955,-4.5485,-4.5877,-4.66,-4.6298,-4.625,-4.6651,-4.6772,-4.6992,-4.7267,-4.7309,-4.7309,-4.7309,-4.7309,-4.7266,-4.7309,-4.7251,-4.7164,-4.7121,-4.7134,-4.6834,-4.5843,-4.4925,-4.3811,-4.2838,-4.1904,-4.0546,-3.9651,-3.9475,-3.906,-3.8742,-3.8408,-3.8135,-3.8055,-3.7329,-3.6799,-3.6266,-3.56,-3.4999,-3.4554,-3.4397,-3.4397,-3.4397,-3.4397,-3.4397,-3.4397,-3.4397,-3.4397,-3.4397,-3.4397,-3.4397,-3.4397,-3.4397,-3.4397,-3.4397,-3.4397,-3.4397,-3.4397,-3.4397,-3.4397,-3.4397,-3.4397,-3.4397,-3.4397,-3.4397,-3.4397,-3.4397,-3.4397,-3.4397,-3.4397,-3.4397,-3.4397,-3.4397,-3.4397,-3.4397,-3.4397,-3.4397,-3.4397,-3.4397,-3.4397,-3.4397,-3.4397,-3.4397,-3.4397,-3.4397,-3.4397,-3.4397,-3.4439,-3.4758,-3.5548,-3.6674,-3.7577,-3.8188,-3.8664,-3.89,-3.901,-3.9083,-3.9228,-3.9388,-3.9388,-3.9388,-3.9388,-3.9388,-3.9388,-3.9388,-3.9388,-3.9388,-3.9388,-3.9388,-3.9388,-3.9388,-3.9388,-3.9388,-3.9388,-4.457,-4.4874,-4.6496,-4.6841,-4.6423,-4.7367,-4.7382,-4.6754,-4.7081,-4.7254,-4.7309,-4.7309,-4.7309,-4.7309,-4.7309,-4.7309,-4.7309,-4.7309,-4.7309,-4.7309,-4.7279,-4.6651,-4.5618,-4.5323,-4.4255,-4.3386,-4.2949,-4.1976,-4.0901,-4.0518,-4.0346,-4.0014,-3.9356,-3.9002,-3.8738,-3.7846,-3.6985,-3.6711,-3.5835,-3.5012,-3.4515,-3.4397,-3.4397,-3.4397,-3.4397,-3.4397,-3.4397,-3.4397,-3.4397,-3.4397,-3.4397,-3.4397,-3.4397,-3.4397,-3.4397,-3.4397,-3.4397,-3.4397,-3.4397,-3.4397,-3.4397,-3.4397,-3.4397,-3.4397,-3.4397,-3.4397,-3.4397,-3.4397,-3.4397,-3.4397,-3.4397,-3.4397,-3.4397,-3.4397,-3.4397,-3.4397,-3.4397,-3.4397,-3.4397,-3.4397,-3.4397,-3.4397,-3.4397,-3.4397,-3.4397,-3.4397,-3.4397,-3.4397,-3.4634,-3.5032,-3.5494,-3.6674,-3.7857,-3.8538,-3.8775,-3.8936,-3.8973,-3.9046,-3.9192,-3.9388,-3.9388,-3.9388,-3.9388,-3.9388,-3.9388,-3.9388,-3.9388,-3.9388,-3.9388,-3.9388,-3.9388,-3.9388,-3.9388,-3.9388,-3.9388,-4.5622,-4.6222,-4.5979,-4.6457,-4.7236,-4.7445,-4.7272,-4.7111,-4.7211,-4.7309,-4.7309,-4.7309,-4.7309,-4.7309,-4.7309,-4.7309,-4.7309,-4.7309,-4.7309,-4.7309,-4.7204,-4.6576,-4.5589,-4.5214,-4.4586,-4.3589,-4.3265,-4.2996,-4.2099,-4.1547,-4.1212,-4.0632,-4.0202,-3.9637,-3.9461,-3.8626,-3.7767,-3.6954,-3.5926,-3.5025,-3.4554,-3.4397,-3.4397,-3.4397,-3.4397,-3.4397,-3.4397,-3.4397,-3.4397,-3.4397,-3.4397,-3.4397,-3.4397,-3.4397,-3.4397,-3.4397,-3.4397,-3.4397,-3.4397,-3.4397,-3.4397,-3.4397,-3.4397,-3.4397,-3.4397,-3.4397,-3.4397,-3.4397,-3.4397,-3.4397,-3.4397,-3.4397,-3.4397,-3.4397,-3.4397,-3.4397,-3.4397,-3.4397,-3.4397,-3.4397,-3.4397,-3.4397,-3.4397,-3.4397,-3.4397,-3.4397,-3.4397,-3.4397,-3.4896,-3.5642,-3.6108,-3.6738,-3.7971,-3.9046,-3.9156,-3.928,-3.9207,-3.9243,-3.928,-3.9388,-3.9388,-3.9388,-3.9388,-3.9388,-3.9388,-3.9388,-3.9388,-3.9388,-3.9388,-3.9388,-3.9388,-3.9388,-3.9388,-3.9388,-3.9388,-4.6467,-4.7355,-4.5867,-4.6307,-4.7954,-4.7152,-4.7022,-4.7267,-4.7309,-4.7309,-4.7309,-4.7309,-4.7309,-4.7309,-4.7309,-4.7309,-4.7309,-4.7309,-4.7309,-4.7309,-4.7145,-4.6501,-4.5663,-4.5185,-4.4601,-4.3305,-4.3305,-4.317,-4.3036,-4.2618,-4.1976,-4.1281,-4.1113,-4.0675,-4.0073,-3.9555,-3.8868,-3.7497,-3.681,-3.5854,-3.4918,-3.4754,-3.4618,-3.4481,-3.4397,-3.4397,-3.4397,-3.4397,-3.4397,-3.4397,-3.4397,-3.4397,-3.4397,-3.4397,-3.4397,-3.4397,-3.4397,-3.4397,-3.4397,-3.4397,-3.4397,-3.4397,-3.4397,-3.4397,-3.4397,-3.4397,-3.4397,-3.4397,-3.4397,-3.4397,-3.4397,-3.4397,-3.4397,-3.4397,-3.4397,-3.4397,-3.4397,-3.4397,-3.4397,-3.4397,-3.4397,-3.4397,-3.4397,-3.4397,-3.4397,-3.4397,-3.4397,-3.4397,-3.4937,-3.5669,-3.6029,-3.6385,-3.7372,-3.8486,-3.8973,-3.9119,-3.9192,-3.9388,-3.9388,-3.9388,-3.9388,-3.9388,-3.9388,-3.9388,-3.9388,-3.9388,-3.9388,-3.9388,-3.9388,-3.9388,-3.9388,-3.9388,-3.9388,-3.9388,-3.9388,-4.6388,-4.7298,-4.7138,-4.7138,-4.7414,-4.7282,-4.7267,-4.7309,-4.7309,-4.7309,-4.7309,-4.7309,-4.7309,-4.7309,-4.7309,-4.7309,-4.7309,-4.7309,-4.7309,-4.7309,-4.7189,-4.6486,-4.5693,-4.511,-4.4646,-4.3484,-4.3305,-4.3305,-4.3305,-4.317,-4.3036,-4.3036,-4.2181,-4.1893,-4.138,-4.0561,-3.9624,-3.8558,-3.806,-3.7068,-3.5945,-3.5393,-3.5182,-3.4551,-3.4397,-3.4384,-3.4397,-3.4397,-3.4397,-3.4397,-3.4397,-3.4397,-3.4397,-3.4397,-3.4397,-3.4397,-3.4397,-3.4397,-3.4397,-3.4397,-3.4397,-3.4397,-3.4397,-3.4397,-3.4397,-3.4397,-3.4397,-3.4397,-3.4397,-3.4397,-3.4397,-3.4397,-3.4397,-3.4397,-3.4397,-3.4397,-3.4397,-3.4397,-3.4397,-3.4397,-3.4397,-3.4397,-3.4397,-3.4397,-3.4397,-3.4397,-3.4397,-3.4397,-3.4509,-3.5087,-3.5372,-3.5843,-3.666,-3.7539,-3.8315,-3.8664,-3.9228,-3.9388,-3.9388,-3.9388,-3.9388,-3.9388,-3.9388,-3.9388,-3.9388,-3.9388,-3.9388,-3.9388,-3.9388,-3.9388,-3.9388,-3.9388,-3.9388,-3.9388,-3.9388,-4.6916,-4.7309,-4.7309,-4.7309,-4.7309,-4.7309,-4.7309,-4.7309,-4.7309,-4.7309,-4.7309,-4.7309,-4.7309,-4.7309,-4.7309,-4.7309,-4.7309,-4.7309,-4.7309,-4.7309,-4.716,-4.6471,-4.5723,-4.5095,-4.4631,-4.3559,-4.3305,-4.3305,-4.3305,-4.3305,-4.3305,-4.313,-4.2875,-4.2441,-4.1879,-4.1211,-4.0196,-3.9466,-3.8893,-3.7882,-3.6674,-3.6238,-3.5803,-3.4522,-3.5073,-3.4827,-3.4522,-3.4397,-3.4397,-3.4397,-3.4397,-3.4397,-3.4397,-3.4397,-3.4397,-3.4397,-3.4397,-3.4397,-3.4397,-3.4397,-3.4397,-3.4397,-3.4397,-3.4397,-3.4397,-3.4397,-3.4397,-3.4397,-3.4397,-3.4397,-3.4397,-3.4397,-3.4397,-3.4397,-3.4397,-3.4397,-3.4397,-3.4397,-3.4397,-3.4397,-3.4397,-3.4397,-3.4397,-3.4397,-3.4397,-3.4397,-3.4397,-3.4397,-3.4509,-3.4744,-3.5142,-3.5655,-3.6478,-3.7179,-3.7962,-3.8649,-3.9352,-3.9388,-3.9388,-3.9388,-3.9388,-3.9388,-3.9388,-3.9388,-3.9388,-3.9388,-3.9388,-3.9388,-3.9388,-3.9388,-3.9388,-3.9388,-3.9388,-3.9388,-3.9388,-4.7309,-4.7309,-4.7309,-4.7309,-4.7309,-4.7309,-4.7309,-4.7309,-4.7309,-4.7309,-4.7309,-4.7309,-4.7309,-4.7309,-4.7309,-4.7309,-4.7309,-4.7309,-4.7309,-4.7309,-4.7174,-4.6471,-4.5708,-4.5095,-4.4631,-4.3589,-4.3305,-4.3305,-4.3305,-4.3305,-4.3305,-4.3305,-4.3265,-4.2875,-4.2482,-4.1767,-4.1053,-4.043,-4.001,-3.8912,-3.7687,-3.7436,-3.6589,-3.5263,-3.5386,-3.5155,-3.4634,-3.4397,-3.4397,-3.4397,-3.4397,-3.4397,-3.4397,-3.4397,-3.4397,-3.4397,-3.4397,-3.4397,-3.4397,-3.4397,-3.4397,-3.4397,-3.4397,-3.4397,-3.4397,-3.4397,-3.4397,-3.4397,-3.4397,-3.4397,-3.4397,-3.4397,-3.4397,-3.4397,-3.4397,-3.4397,-3.4397,-3.4397,-3.4397,-3.4397,-3.4397,-3.4397,-3.4397,-3.4397,-3.4397,-3.4564,-3.4909,-3.4758,-3.4509,-3.4786,-3.5264,-3.579,-3.6452,-3.7155,-3.7796,-3.8649,-3.9388,-3.9388,-3.9388,-3.9388,-3.9388,-3.9388,-3.9388,-3.9388,-3.9388,-3.9388,-3.9388,-3.9388,-3.9388,-3.9388,-3.9388,-3.9388,-3.9388,-3.9388,-3.9388,-4.7309,-4.7309,-4.7309,-4.7309,-4.7309,-4.7309,-4.7309,-4.7309,-4.7309,-4.7309,-4.7309,-4.7309,-4.7309,-4.7309,-4.7309,-4.7309,-4.7309,-4.7309,-4.7309,-4.7309,-4.7279,-4.6471,-4.5723,-4.511,-4.4616,-4.3589,-4.3305,-4.3305,-4.3305,-4.3305,-4.3305,-4.3305,-4.3305,-4.321,-4.3195,-4.321,-4.278,-4.2079,-4.2055,-4.0637,-3.9202,-3.8796,-3.7692,-3.6046,-3.5776,-3.5494,-3.4634,-3.4397,-3.4397,-3.4397,-3.4397,-3.4397,-3.4397,-3.4397,-3.4397,-3.4397,-3.4397,-3.4397,-3.4397,-3.4397,-3.4397,-3.4397,-3.4397,-3.4397,-3.4397,-3.4397,-3.4397,-3.4397,-3.4397,-3.4397,-3.4397,-3.4397,-3.4397,-3.4397,-3.4397,-3.4397,-3.4397,-3.4397,-3.4397,-3.4397,-3.4397,-3.4397,-3.4397,-3.4397,-3.4397,-3.4675,-3.5277,-3.5223,-3.4786,-3.4786,-3.5182,-3.6016,-3.6649,-3.713,-3.7834,-3.876,-3.9352,-3.9388,-3.9388,-3.9388,-3.9388,-3.9388,-3.9388,-3.9388,-3.9388,-3.9388,-3.9388,-3.9388,-3.9388,-3.9388,-3.9388,-3.9388,-3.9388,-3.9388,-3.9388,-4.7309,-4.7309,-4.7309,-4.7309,-4.7309,-4.7309,-4.7309,-4.7309,-4.7309,-4.7309,-4.7309,-4.7309,-4.7309,-4.7309,-4.7309,-4.7309,-4.7309,-4.7309,-4.7309,-4.7309,-4.7264,-4.6426,-4.5648,-4.511,-4.4556,-4.3633,-4.3305,-4.3305,-4.3305,-4.3305,-4.3305,-4.3305,-4.3305,-4.3305,-4.329,-4.3305,-4.3076,-4.2837,-4.2436,-4.1533,-3.9956,-3.9711,-3.8688,-3.6045,-3.6308,-3.5843,-3.4634,-3.4522,-3.4481,-3.4397,-3.4397,-3.4397,-3.4397,-3.4397,-3.4397,-3.4397,-3.4397,-3.4397,-3.4397,-3.4397,-3.4397,-3.4397,-3.4397,-3.4397,-3.4397,-3.4397,-3.4397,-3.4397,-3.4397,-3.4397,-3.4397,-3.4397,-3.4397,-3.4397,-3.4397,-3.4397,-3.4397,-3.4397,-3.4397,-3.4397,-3.4397,-3.4397,-3.4397,-3.4397,-3.4397,-3.4468,-3.4991,-3.5426,-3.5223,-3.4868,-3.4978,-3.6068,-3.6855,-3.7271,-3.7872,-3.8797,-3.9316,-3.9388,-3.9388,-3.9388,-3.9388,-3.9388,-3.9388,-3.9388,-3.9388,-3.9388,-3.9388,-3.9388,-3.9388,-3.9388,-3.9388,-3.9388,-3.9388,-3.9388,-3.9388,-4.6756,-4.6965,-4.6965,-4.71,-4.7279,-4.7309,-4.7309,-4.7309,-4.7309,-4.7309,-4.7309,-4.7309,-4.7309,-4.7309,-4.7309,-4.7309,-4.7309,-4.7309,-4.7309,-4.7264,-4.7025,-4.6247,-4.5544,-4.5005,-4.4287,-4.3529,-4.3305,-4.3305,-4.3305,-4.3305,-4.3305,-4.3305,-4.3305,-4.3305,-4.3305,-4.3305,-4.3305,-4.3106,-4.2787,-4.2222,-4.1204,-4.0554,-3.9534,-3.7816,-3.7038,-3.6596,-3.5386,-3.4799,-3.4675,-3.4522,-3.4397,-3.4397,-3.4397,-3.4397,-3.4397,-3.4397,-3.4397,-3.4397,-3.4397,-3.4397,-3.4397,-3.4397,-3.4397,-3.4397,-3.4397,-3.4397,-3.4397,-3.4397,-3.4397,-3.4397,-3.4397,-3.4397,-3.4397,-3.4397,-3.4397,-3.4397,-3.4397,-3.4397,-3.4397,-3.4397,-3.4397,-3.4397,-3.4397,-3.4397,-3.4397,-3.4509,-3.4703,-3.5182,-3.5669,-3.5494,-3.5413,-3.6425,-3.7256,-3.763,-3.815,-3.8811,-3.9243,-3.9388,-3.9388,-3.9388,-3.9388,-3.9388,-3.9388,-3.9388,-3.9388,-3.9388,-3.9388,-3.9388,-3.9388,-3.9388,-3.9388,-3.9388,-3.9388,-3.9388,-3.9388,-4.5693,-4.6262,-4.6249,-4.6636,-4.716,-4.7085,-4.7174,-4.7294,-4.7309,-4.7309,-4.7309,-4.7309,-4.7309,-4.7309,-4.7309,-4.7309,-4.7309,-4.7309,-4.7219,-4.7055,-4.6681,-4.5918,-4.5244,-4.4631,-4.4007,-4.3559,-4.3305,-4.3305,-4.3305,-4.3305,-4.3305,-4.3305,-4.3305,-4.3305,-4.3305,-4.3305,-4.3305,-4.3245,-4.3155,-4.2667,-4.1993,-4.1449,-4.0227,-3.8871,-3.8112,-3.7095,-3.603,-3.5467,-3.5073,-3.4716,-3.4397,-3.4397,-3.4397,-3.4397,-3.4397,-3.4397,-3.4397,-3.4397,-3.4397,-3.4397,-3.4397,-3.4397,-3.4397,-3.4397,-3.4397,-3.4397,-3.4397,-3.4397,-3.4397,-3.4397,-3.4397,-3.4397,-3.4397,-3.4397,-3.4397,-3.4397,-3.4397,-3.4397,-3.4397,-3.4397,-3.4397,-3.4397,-3.4397,-3.4397,-3.4522,-3.4592,-3.4868,-3.5521,-3.6002,-3.6425,-3.6503,-3.7141,-3.7805,-3.8098,-3.8575,-3.9083,-3.9243,-3.9388,-3.9388,-3.9388,-3.9388,-3.9388,-3.9388,-3.9388,-3.9388,-3.9388,-3.9388,-3.9388,-3.9388,-3.9388,-3.9388,-3.9388,-3.9388,-3.9388,-3.9388,-4.5424,-4.5589,-4.5589,-4.5708,-4.5858,-4.5873,-4.6396,-4.7234,-4.7309,-4.7309,-4.7309,-4.7309,-4.7234,-4.7309,-4.7309,-4.7309,-4.7309,-4.7234,-4.6935,-4.6608,-4.6277,-4.5529,-4.4885,-4.4347,-4.3843,-4.3499,-4.3305,-4.3305,-4.3305,-4.3305,-4.3305,-4.3305,-4.3305,-4.3305,-4.3305,-4.3305,-4.3305,-4.3305,-4.3305,-4.294,-4.241,-4.1752,-4.0556,-3.9475,-3.8635,-3.7433,-3.6255,-3.583,-3.5318,-3.4592,-3.4397,-3.4397,-3.4397,-3.4397,-3.4397,-3.4397,-3.4397,-3.4397,-3.4397,-3.4397,-3.4397,-3.4397,-3.4397,-3.4397,-3.4397,-3.4397,-3.4397,-3.4397,-3.4397,-3.4397,-3.4397,-3.4397,-3.4397,-3.4397,-3.4397,-3.4397,-3.4397,-3.4397,-3.4397,-3.4397,-3.4397,-3.4509,-3.4509,-3.4551,-3.4675,-3.4716,-3.5101,-3.5883,-3.6425,-3.6855,-3.7448,-3.8032,-3.8248,-3.8538,-3.8848,-3.9316,-3.9352,-3.9388,-3.9388,-3.9388,-3.9388,-3.9388,-3.9388,-3.9388,-3.9388,-3.9388,-3.9388,-3.9388,-3.9388,-3.9388,-3.9388,-3.9388,-3.9388,-3.9388,-3.9388,-4.4691,-4.4885,-4.49,-4.505,-4.5274,-4.5289,-4.5813,-4.6441,-4.6516,-4.6501,-4.6546,-4.6785,-4.692,-4.6935,-4.7145,-4.7294,-4.7279,-4.695,-4.6666,-4.6354,-4.5813,-4.508,-4.4466,-4.4032,-4.3633,-4.3394,-4.3305,-4.3305,-4.3305,-4.3305,-4.3305,-4.3305,-4.3305,-4.3305,-4.3305,-4.3305,-4.3305,-4.3305,-4.3215,-4.291,-4.2357,-4.1752,-4.0685,-3.977,-3.9002,-3.7739,-3.6399,-3.6175,-3.5534,-3.4634,-3.4397,-3.4397,-3.4397,-3.4397,-3.4397,-3.4397,-3.4397,-3.4397,-3.4397,-3.4397,-3.4397,-3.4397,-3.4397,-3.4397,-3.4397,-3.4397,-3.4397,-3.4397,-3.4397,-3.4397,-3.4397,-3.4397,-3.4397,-3.4397,-3.4397,-3.4397,-3.4397,-3.4397,-3.4397,-3.4397,-3.4468,-3.4662,-3.4744,-3.4827,-3.5182,-3.5736,-3.6281,-3.6961,-3.7309,-3.7462,-3.8121,-3.8797,-3.8833,-3.8922,-3.9228,-3.9388,-3.9388,-3.9388,-3.9388,-3.9388,-3.9388,-3.9388,-3.9388,-3.9388,-3.9388,-3.9388,-3.9388,-3.9388,-3.9388,-3.9388,-3.9388,-3.9388,-3.9388,-3.9388,-3.9388,-4.3663,-4.4227,-4.4227,-4.4541,-4.5095,-4.505,-4.5095,-4.514,-4.514,-4.5229,-4.5454,-4.5978,-4.6204,-4.6307,-4.6636,-4.686,-4.6711,-4.6411,-4.6082,-4.6085,-4.5125,-4.4407,-4.4062,-4.3673,-4.3439,-4.3334,-4.3305,-4.3305,-4.3305,-4.3305,-4.3305,-4.3305,-4.3305,-4.3305,-4.3305,-4.3305,-4.3305,-4.3305,-4.3215,-4.3015,-4.2357,-4.1752,-4.1108,-4.0375,-3.9535,-3.8598,-3.7319,-3.6582,-3.6148,-3.5019,-3.4397,-3.4397,-3.4397,-3.4397,-3.4397,-3.4397,-3.4397,-3.4397,-3.4397,-3.4397,-3.4397,-3.4397,-3.4397,-3.4397,-3.4397,-3.4397,-3.4397,-3.4397,-3.4397,-3.4397,-3.4397,-3.4397,-3.4397,-3.4397,-3.4397,-3.4397,-3.4397,-3.4397,-3.4397,-3.4397,-3.4439,-3.4675,-3.5223,-3.5345,-3.5575,-3.6557,-3.7309,-3.7834,-3.8075,-3.8113,-3.8612,-3.9301,-3.9228,-3.9156,-3.928,-3.9388,-3.9388,-3.9388,-3.9388,-3.9388,-3.9388,-3.9388,-3.9388,-3.9388,-3.9388,-3.9388,-3.9388,-3.9388,-3.9388,-3.9388,-3.9388,-3.9388,-3.9388,-3.9388,-3.9388,-4.3394,-4.3514,-4.3529,-4.3633,-4.3793,-4.3753,-4.3783,-4.3753,-4.3768,-4.4377,-4.5185,-4.5439,-4.5544,-4.5618,-4.5813,-4.5948,-4.5813,-4.5708,-4.5259,-4.5005,-4.4377,-4.3988,-4.3663,-4.3439,-4.3305,-4.3305,-4.3305,-4.3305,-4.3305,-4.3305,-4.3305,-4.3305,-4.3305,-4.3305,-4.3305,-4.3305,-4.3305,-4.3305,-4.326,-4.2955,-4.2306,-4.1722,-4.1055,-4.0397,-3.9637,-3.8553,-3.7486,-3.6855,-3.5883,-3.4758,-3.4481,-3.4397,-3.4397,-3.4397,-3.4397,-3.4397,-3.4397,-3.4397,-3.4397,-3.4397,-3.4397,-3.4397,-3.4397,-3.4397,-3.4397,-3.4397,-3.4397,-3.4397,-3.4397,-3.4397,-3.4397,-3.4397,-3.4397,-3.4397,-3.4397,-3.4397,-3.4397,-3.4397,-3.4397,-3.4397,-3.4397,-3.484,-3.5467,-3.5936,-3.6215,-3.6805,-3.7606,-3.8202,-3.8464,-3.859,-3.8848,-3.9352,-3.9352,-3.9352,-3.9388,-3.9388,-3.9388,-3.9388,-3.9388,-3.9388,-3.9388,-3.9388,-3.9388,-3.9388,-3.9388,-3.9388,-3.9388,-3.9388,-3.9388,-3.9388,-3.9388,-3.9388,-3.9388,-3.9388,-3.9388,-4.3305,-4.3305,-4.3305,-4.3305,-4.3305,-4.3305,-4.3305,-4.3305,-4.3305,-4.3693,-4.4421,-4.4691,-4.4855,-4.4975,-4.514,-4.5214,-4.517,-4.4975,-4.4766,-4.4407,-4.3947,-4.3673,-4.3394,-4.3305,-4.3305,-4.3305,-4.3305,-4.3305,-4.3305,-4.3305,-4.3305,-4.3305,-4.3305,-4.3305,-4.3305,-4.3305,-4.3305,-4.3305,-4.3305,-4.2836,-4.2156,-4.1572,-4.0816,-4.0142,-3.9393,-3.8397,-3.7525,-3.6816,-3.5883,-3.4909,-3.4439,-3.4397,-3.4397,-3.4397,-3.4397,-3.4397,-3.4397,-3.4397,-3.4397,-3.4397,-3.4397,-3.4397,-3.4397,-3.4397,-3.4397,-3.4397,-3.4397,-3.4397,-3.4397,-3.4397,-3.4397,-3.4397,-3.4397,-3.4397,-3.4397,-3.4397,-3.4397,-3.4397,-3.4397,-3.4397,-3.4522,-3.4799,-3.5467,-3.6281,-3.6674,-3.7515,-3.824,-3.8664,-3.89,-3.8936,-3.9243,-3.9388,-3.9388,-3.9388,-3.9388,-3.9388,-3.9388,-3.9388,-3.9388,-3.9388,-3.9388,-3.9388,-3.9388,-3.9388,-3.9388,-3.9388,-3.9388,-3.9388,-3.9388,-3.9388,-3.9388,-3.9388,-3.9388,-3.9388,-3.9388,-4.3305,-4.3305,-4.3305,-4.3305,-4.3305,-4.3305,-4.3305,-4.3305,-4.3305,-4.3305,-4.3454,-4.4003,-4.4167,-4.4407,-4.4736,-4.4915,-4.4855,-4.4377,-4.4167,-4.3962,-4.3589,-4.3424,-4.3364,-4.3305,-4.3305,-4.3305,-4.3305,-4.3305,-4.3305,-4.3305,-4.3305,-4.3305,-4.3305,-4.3305,-4.3305,-4.3305,-4.3305,-4.3305,-4.3125,-4.2581,-4.1953,-4.1377,-4.0591,-3.9918,-3.9265,-3.8509,-3.7448,-3.666,-3.5949,-3.5101,-3.4397,-3.4397,-3.4397,-3.4397,-3.4397,-3.4397,-3.4397,-3.4397,-3.4397,-3.4397,-3.4397,-3.4397,-3.4397,-3.4397,-3.4397,-3.4397,-3.4397,-3.4397,-3.4397,-3.4397,-3.4397,-3.4397,-3.4397,-3.4397,-3.4397,-3.4397,-3.4397,-3.4397,-3.4397,-3.4397,-3.4592,-3.484,-3.5534,-3.6306,-3.7179,-3.806,-3.8701,-3.9119,-3.9352,-3.9243,-3.9316,-3.9388,-3.9388,-3.9388,-3.9388,-3.9388,-3.9388,-3.9388,-3.9388,-3.9388,-3.9388,-3.9388,-3.9388,-3.9388,-3.9388,-3.9388,-3.9388,-3.9388,-3.9388,-3.9388,-3.9388,-3.9388,-3.9388,-3.9388,-3.9388,-4.3305,-4.3305,-4.3305,-4.3305,-4.3305,-4.3305,-4.3305,-4.3305,-4.3305,-4.3305,-4.3334,-4.3364,-4.3484,-4.3499,-4.3559,-4.3753,-4.3988,-4.3633,-4.3544,-4.3394,-4.3379,-4.3334,-4.3305,-4.3305,-4.3305,-4.3305,-4.3305,-4.3305,-4.3305,-4.3305,-4.3305,-4.3305,-4.3305,-4.3305,-4.3305,-4.3305,-4.3305,-4.3275,-4.3065,-4.2611,-4.1743,-4.113,-4.0576,-3.9963,-3.9388,-3.8308,-3.7396,-3.6933,-3.5883,-3.495,-3.4397,-3.4397,-3.4397,-3.4397,-3.4397,-3.4397,-3.4397,-3.4397,-3.4397,-3.4397,-3.4397,-3.4397,-3.4397,-3.4397,-3.4397,-3.4397,-3.4397,-3.4397,-3.4397,-3.4397,-3.4397,-3.4397,-3.4397,-3.4397,-3.4397,-3.4397,-3.4397,-3.4397,-3.4397,-3.4397,-3.4439,-3.4881,-3.5426,-3.6241,-3.7127,-3.8008,-3.8848,-3.9228,-3.9388,-3.9388,-3.9388,-3.9388,-3.9388,-3.9388,-3.9388,-3.9388,-3.9388,-3.9388,-3.9388,-3.9388,-3.9388,-3.9388,-3.9388,-3.9388,-3.9388,-3.9388,-3.9388,-3.9388,-3.9388,-3.9388,-3.9388,-3.9388,-3.9388,-3.9388,-3.9388]}]]